<?xml version="1.0" encoding="UTF-8" standalone="no" ?><gpx xmlns="http://www.topografix.com/GPX/1/1" xmlns:gpxx="http://www.garmin.com/xmlschemas/GpxExtensions/v3" xmlns:wptx1="http://www.garmin.com/xmlschemas/WaypointExtension/v1" xmlns:gpxtpx="http://www.garmin.com/xmlschemas/TrackPointExtension/v1" creator="GuideVTT.com" version="1.1" xmlns:xsi="http://www.w3.org/2001/XMLSchema-instance" xsi:schemaLocation="http://www.topografix.com/GPX/1/1 http://www.topografix.com/GPX/1/1/gpx.xsd http://www.garmin.com/xmlschemas/GpxExtensions/v3 http://www8.garmin.com/xmlschemas/GpxExtensionsv3.xsd http://www.garmin.com/xmlschemas/WaypointExtension/v1 http://www8.garmin.com/xmlschemas/WaypointExtensionv1.xsd http://www.garmin.com/xmlschemas/TrackPointExtension/v1 http://www.garmin.com/xmlschemas/TrackPointExtensionv1.xsd">
<metadata><link href="http://www.garmin.com"><text>Garmin International</text></link><time>2013-06-22T15:13:50Z</time></metadata>
<trk><name>henniez_mt-gibloux.gpx</name><extensions><gpxx:TrackExtension><gpxx:DisplayColor>Cyan</gpxx:DisplayColor></gpxx:TrackExtension></extensions><trkseg>
<trkpt lat="46.74234387" lon="6.88349130"><ele>483.199829</ele><time>2008-04-28T08:39:13Z</time></trkpt>
<trkpt lat="46.74245216" lon="6.88356875"><ele>483.199829</ele><time>2008-04-28T08:39:23Z</time></trkpt>
<trkpt lat="46.74255182" lon="6.88369858"><ele>482.238525</ele><time>2008-04-28T08:39:25Z</time></trkpt>
<trkpt lat="46.74264218" lon="6.88378927"><ele>483.199829</ele><time>2008-04-28T08:39:29Z</time></trkpt>
<trkpt lat="46.74277763" lon="6.88389254"><ele>483.199829</ele><time>2008-04-28T08:39:33Z</time></trkpt>
<trkpt lat="46.74291358" lon="6.88410049"><ele>482.238525</ele><time>2008-04-28T08:39:37Z</time></trkpt>
<trkpt lat="46.74290612" lon="6.88442772"><ele>480.796631</ele><time>2008-04-28T08:39:44Z</time></trkpt>
<trkpt lat="46.74293412" lon="6.88463677"><ele>484.161133</ele><time>2008-04-28T08:39:51Z</time></trkpt>
<trkpt lat="46.74297058" lon="6.88472805"><ele>485.122437</ele><time>2008-04-28T08:39:53Z</time></trkpt>
<trkpt lat="46.74307058" lon="6.88493634"><ele>487.045044</ele><time>2008-04-28T08:39:59Z</time></trkpt>
<trkpt lat="46.74313411" lon="6.88506659"><ele>488.00647</ele><time>2008-04-28T08:40:03Z</time></trkpt>
<trkpt lat="46.74328859" lon="6.88537907"><ele>491.851685</ele><time>2008-04-28T08:40:13Z</time></trkpt>
<trkpt lat="46.74335229" lon="6.88552232"><ele>493.774292</ele><time>2008-04-28T08:40:18Z</time></trkpt>
<trkpt lat="46.74333461" lon="6.88560102"><ele>493.774292</ele><time>2008-04-28T08:40:22Z</time></trkpt>
<trkpt lat="46.74293865" lon="6.88556582"><ele>496.177734</ele><time>2008-04-28T08:40:36Z</time></trkpt>
<trkpt lat="46.74274997" lon="6.88560706"><ele>497.138916</ele><time>2008-04-28T08:40:44Z</time></trkpt>
<trkpt lat="46.74266908" lon="6.88562097"><ele>498.100342</ele><time>2008-04-28T08:40:48Z</time></trkpt>
<trkpt lat="46.74245350" lon="6.88568861"><ele>501.945557</ele><time>2008-04-28T08:41:00Z</time></trkpt>
<trkpt lat="46.74243556" lon="6.88570186"><ele>501.945557</ele><time>2008-04-28T08:41:01Z</time></trkpt>
<trkpt lat="46.74233750" lon="6.88588609"><ele>503.868164</ele><time>2008-04-28T08:41:10Z</time></trkpt>
<trkpt lat="46.74233775" lon="6.88593839"><ele>503.868164</ele><time>2008-04-28T08:41:13Z</time></trkpt>
<trkpt lat="46.74228444" lon="6.88608290"><ele>505.790894</ele><time>2008-04-28T08:41:20Z</time></trkpt>
<trkpt lat="46.74206064" lon="6.88630762"><ele>508.194092</ele><time>2008-04-28T08:41:33Z</time></trkpt>
<trkpt lat="46.74200700" lon="6.88636051"><ele>508.194092</ele><time>2008-04-28T08:41:36Z</time></trkpt>
<trkpt lat="46.74191748" lon="6.88645304"><ele>509.155396</ele><time>2008-04-28T08:41:41Z</time></trkpt>
<trkpt lat="46.74185478" lon="6.88651909"><ele>509.155396</ele><time>2008-04-28T08:41:44Z</time></trkpt>
<trkpt lat="46.74170223" lon="6.88659914"><ele>509.155396</ele><time>2008-04-28T08:41:51Z</time></trkpt>
<trkpt lat="46.74160425" lon="6.88679645"><ele>510.116699</ele><time>2008-04-28T08:41:57Z</time></trkpt>
<trkpt lat="46.74143451" lon="6.88704682"><ele>510.116699</ele><time>2008-04-28T08:42:03Z</time></trkpt>
<trkpt lat="46.74142605" lon="6.88715159"><ele>510.116699</ele><time>2008-04-28T08:42:05Z</time></trkpt>
<trkpt lat="46.74144641" lon="6.88764864"><ele>510.116699</ele><time>2008-04-28T08:42:17Z</time></trkpt>
<trkpt lat="46.74152059" lon="6.88810587"><ele>508.194092</ele><time>2008-04-28T08:42:24Z</time></trkpt>
<trkpt lat="46.74159419" lon="6.88843226"><ele>502.906738</ele><time>2008-04-28T08:42:29Z</time></trkpt>
<trkpt lat="46.74159461" lon="6.88852379"><ele>502.906738</ele><time>2008-04-28T08:42:30Z</time></trkpt>
<trkpt lat="46.74166778" lon="6.88877173"><ele>505.790894</ele><time>2008-04-28T08:42:35Z</time></trkpt>
<trkpt lat="46.74168597" lon="6.88881079"><ele>507.232788</ele><time>2008-04-28T08:42:37Z</time></trkpt>
<trkpt lat="46.74177750" lon="6.88913701"><ele>509.155396</ele><time>2008-04-28T08:42:50Z</time></trkpt>
<trkpt lat="46.74182435" lon="6.88952903"><ele>511.078003</ele><time>2008-04-28T08:43:04Z</time></trkpt>
<trkpt lat="46.74183525" lon="6.88993463"><ele>512.039429</ele><time>2008-04-28T08:43:16Z</time></trkpt>
<trkpt lat="46.74175655" lon="6.89040645"><ele>513.962036</ele><time>2008-04-28T08:43:30Z</time></trkpt>
<trkpt lat="46.74165856" lon="6.89060376"><ele>513.962036</ele><time>2008-04-28T08:43:37Z</time></trkpt>
<trkpt lat="46.74171497" lon="6.89110039"><ele>515.884644</ele><time>2008-04-28T08:43:53Z</time></trkpt>
<trkpt lat="46.74180751" lon="6.89164907"><ele>515.884644</ele><time>2008-04-28T08:44:06Z</time></trkpt>
<trkpt lat="46.74188093" lon="6.89194931"><ele>517.807251</ele><time>2008-04-28T08:44:15Z</time></trkpt>
<trkpt lat="46.74205360" lon="6.89231392"><ele>520.210571</ele><time>2008-04-28T08:44:30Z</time></trkpt>
<trkpt lat="46.74222627" lon="6.89267862"><ele>520.210571</ele><time>2008-04-28T08:44:42Z</time></trkpt>
<trkpt lat="46.74227170" lon="6.89276973"><ele>521.171997</ele><time>2008-04-28T08:44:46Z</time></trkpt>
<trkpt lat="46.74242634" lon="6.89313459"><ele>522.133179</ele><time>2008-04-28T08:45:00Z</time></trkpt>
<trkpt lat="46.74250790" lon="6.89326460"><ele>523.094604</ele><time>2008-04-28T08:45:07Z</time></trkpt>
<trkpt lat="46.74264360" lon="6.89342025"><ele>525.017212</ele><time>2008-04-28T08:45:14Z</time></trkpt>
<trkpt lat="46.74284284" lon="6.89370615"><ele>525.978394</ele><time>2008-04-28T08:45:26Z</time></trkpt>
<trkpt lat="46.74306940" lon="6.89404403"><ele>526.939819</ele><time>2008-04-28T08:45:41Z</time></trkpt>
<trkpt lat="46.74314224" lon="6.89423958"><ele>528.862549</ele><time>2008-04-28T08:45:49Z</time></trkpt>
<trkpt lat="46.74315146" lon="6.89427881"><ele>528.862549</ele><time>2008-04-28T08:45:51Z</time></trkpt>
<trkpt lat="46.74324257" lon="6.89452649"><ele>533.188354</ele><time>2008-04-28T08:46:03Z</time></trkpt>
<trkpt lat="46.74335171" lon="6.89477401"><ele>533.188354</ele><time>2008-04-28T08:46:15Z</time></trkpt>
<trkpt lat="46.74341516" lon="6.89487803"><ele>534.149658</ele><time>2008-04-28T08:46:20Z</time></trkpt>
<trkpt lat="46.74346084" lon="6.89502153"><ele>535.110962</ele><time>2008-04-28T08:46:27Z</time></trkpt>
<trkpt lat="46.74349722" lon="6.89509973"><ele>536.072388</ele><time>2008-04-28T08:46:32Z</time></trkpt>
<trkpt lat="46.74359755" lon="6.89539963"><ele>538.956299</ele><time>2008-04-28T08:46:47Z</time></trkpt>
<trkpt lat="46.74364306" lon="6.89550390"><ele>538.956299</ele><time>2008-04-28T08:46:53Z</time></trkpt>
<trkpt lat="46.74364415" lon="6.89572636"><ele>541.84021</ele><time>2008-04-28T08:47:07Z</time></trkpt>
<trkpt lat="46.74359160" lon="6.89602786"><ele>542.801514</ele><time>2008-04-28T08:47:20Z</time></trkpt>
<trkpt lat="46.74351222" lon="6.89636883"><ele>543.762817</ele><time>2008-04-28T08:47:33Z</time></trkpt>
<trkpt lat="46.74350333" lon="6.89638208"><ele>543.762817</ele><time>2008-04-28T08:47:35Z</time></trkpt>
<trkpt lat="46.74348607" lon="6.89653924"><ele>545.204834</ele><time>2008-04-28T08:47:41Z</time></trkpt>
<trkpt lat="46.74347727" lon="6.89657855"><ele>546.16626</ele><time>2008-04-28T08:47:43Z</time></trkpt>
<trkpt lat="46.74349621" lon="6.89678776"><ele>549.050049</ele><time>2008-04-28T08:47:53Z</time></trkpt>
<trkpt lat="46.74352395" lon="6.89694450"><ele>550.011475</ele><time>2008-04-28T08:48:01Z</time></trkpt>
<trkpt lat="46.74352529" lon="6.89723242"><ele>552.895264</ele><time>2008-04-28T08:48:14Z</time></trkpt>
<trkpt lat="46.74356259" lon="6.89750684"><ele>553.856689</ele><time>2008-04-28T08:48:25Z</time></trkpt>
<trkpt lat="46.74357190" lon="6.89757214"><ele>553.856689</ele><time>2008-04-28T08:48:28Z</time></trkpt>
<trkpt lat="46.74367156" lon="6.89771513"><ele>553.856689</ele><time>2008-04-28T08:48:37Z</time></trkpt>
<trkpt lat="46.74384322" lon="6.89788353"><ele>554.817871</ele><time>2008-04-28T08:48:48Z</time></trkpt>
<trkpt lat="46.74397775" lon="6.89779057"><ele>555.779297</ele><time>2008-04-28T08:48:58Z</time></trkpt>
<trkpt lat="46.74403139" lon="6.89771153"><ele>554.817871</ele><time>2008-04-28T08:49:02Z</time></trkpt>
<trkpt lat="46.74405813" lon="6.89765889"><ele>554.817871</ele><time>2008-04-28T08:49:04Z</time></trkpt>
<trkpt lat="46.74409317" lon="6.89746225"><ele>555.779297</ele><time>2008-04-28T08:49:14Z</time></trkpt>
<trkpt lat="46.74408227" lon="6.89706981"><ele>552.895264</ele><time>2008-04-28T08:49:25Z</time></trkpt>
<trkpt lat="46.74409107" lon="6.89701734"><ele>552.895264</ele><time>2008-04-28T08:49:26Z</time></trkpt>
<trkpt lat="46.74409795" lon="6.89657235"><ele>553.856689</ele><time>2008-04-28T08:49:38Z</time></trkpt>
<trkpt lat="46.74412393" lon="6.89637579"><ele>554.817871</ele><time>2008-04-28T08:49:45Z</time></trkpt>
<trkpt lat="46.74412334" lon="6.89624495"><ele>555.779297</ele><time>2008-04-28T08:49:51Z</time></trkpt>
<trkpt lat="46.74411303" lon="6.89597027"><ele>558.182861</ele><time>2008-04-28T08:50:02Z</time></trkpt>
<trkpt lat="46.74414799" lon="6.89574740"><ele>560.105225</ele><time>2008-04-28T08:50:11Z</time></trkpt>
<trkpt lat="46.74415662" lon="6.89566886"><ele>561.06665</ele><time>2008-04-28T08:50:15Z</time></trkpt>
<trkpt lat="46.74424522" lon="6.89539310"><ele>562.028076</ele><time>2008-04-28T08:50:25Z</time></trkpt>
<trkpt lat="46.74431629" lon="6.89519612"><ele>562.989258</ele><time>2008-04-28T08:50:30Z</time></trkpt>
<trkpt lat="46.74434320" lon="6.89518279"><ele>563.950439</ele><time>2008-04-28T08:50:33Z</time></trkpt>
<trkpt lat="46.74446105" lon="6.89537784"><ele>565.873291</ele><time>2008-04-28T08:50:47Z</time></trkpt>
<trkpt lat="46.74445217" lon="6.89539108"><ele>565.873291</ele><time>2008-04-28T08:50:48Z</time></trkpt>
<trkpt lat="46.74439919" lon="6.89561404"><ele>566.834473</ele><time>2008-04-28T08:50:59Z</time></trkpt>
<trkpt lat="46.74436499" lon="6.89598083"><ele>570.198975</ele><time>2008-04-28T08:51:15Z</time></trkpt>
<trkpt lat="46.74436600" lon="6.89620329"><ele>571.1604</ele><time>2008-04-28T08:51:24Z</time></trkpt>
<trkpt lat="46.74436659" lon="6.89632106"><ele>572.121826</ele><time>2008-04-28T08:51:29Z</time></trkpt>
<trkpt lat="46.74435837" lon="6.89647813"><ele>573.083252</ele><time>2008-04-28T08:51:35Z</time></trkpt>
<trkpt lat="46.74437815" lon="6.89685741"><ele>575.967041</ele><time>2008-04-28T08:51:51Z</time></trkpt>
<trkpt lat="46.74438838" lon="6.89711901"><ele>578.851074</ele><time>2008-04-28T08:52:03Z</time></trkpt>
<trkpt lat="46.74441688" lon="6.89743283"><ele>582.215576</ele><time>2008-04-28T08:52:16Z</time></trkpt>
<trkpt lat="46.74452635" lon="6.89775889"><ele>583.176758</ele><time>2008-04-28T08:52:29Z</time></trkpt>
<trkpt lat="46.74471762" lon="6.89825426"><ele>584.138184</ele><time>2008-04-28T08:52:47Z</time></trkpt>
<trkpt lat="46.74494519" lon="6.89882775"><ele>585.099609</ele><time>2008-04-28T08:53:03Z</time></trkpt>
<trkpt lat="46.74516471" lon="6.89958455"><ele>587.021973</ele><time>2008-04-28T08:53:21Z</time></trkpt>
<trkpt lat="46.74505080" lon="6.90024002"><ele>589.90625</ele><time>2008-04-28T08:53:36Z</time></trkpt>
<trkpt lat="46.74486539" lon="6.90097469"><ele>591.828857</ele><time>2008-04-28T08:53:53Z</time></trkpt>
<trkpt lat="46.74472407" lon="6.90152572"><ele>595.193359</ele><time>2008-04-28T08:54:06Z</time></trkpt>
<trkpt lat="46.74481611" lon="6.90198278"><ele>597.115967</ele><time>2008-04-28T08:54:18Z</time></trkpt>
<trkpt lat="46.74516966" lon="6.90255510"><ele>598.077393</ele><time>2008-04-28T08:54:35Z</time></trkpt>
<trkpt lat="46.74556034" lon="6.90337560"><ele>600</ele><time>2008-04-28T08:54:57Z</time></trkpt>
<trkpt lat="46.74570710" lon="6.90397616"><ele>600</ele><time>2008-04-28T08:55:10Z</time></trkpt>
<trkpt lat="46.74588178" lon="6.90478577"><ele>600.961182</ele><time>2008-04-28T08:55:28Z</time></trkpt>
<trkpt lat="46.74592135" lon="6.90555749"><ele>603.845215</ele><time>2008-04-28T08:55:44Z</time></trkpt>
<trkpt lat="46.74596057" lon="6.90625068"><ele>607.209961</ele><time>2008-04-28T08:55:58Z</time></trkpt>
<trkpt lat="46.74599913" lon="6.90679994"><ele>609.132568</ele><time>2008-04-28T08:56:09Z</time></trkpt>
<trkpt lat="46.74602997" lon="6.90763713"><ele>609.132568</ele><time>2008-04-28T08:56:26Z</time></trkpt>
<trkpt lat="46.74609653" lon="6.90840860"><ele>610.09375</ele><time>2008-04-28T08:56:42Z</time></trkpt>
<trkpt lat="46.74611497" lon="6.90850005"><ele>611.055176</ele><time>2008-04-28T08:56:44Z</time></trkpt>
<trkpt lat="46.74613349" lon="6.90860457"><ele>610.09375</ele><time>2008-04-28T08:56:46Z</time></trkpt>
<trkpt lat="46.74633357" lon="6.90907370"><ele>612.977783</ele><time>2008-04-28T08:56:58Z</time></trkpt>
<trkpt lat="46.74675828" lon="6.90948827"><ele>615.861816</ele><time>2008-04-28T08:57:14Z</time></trkpt>
<trkpt lat="46.74678535" lon="6.90951417"><ele>615.861816</ele><time>2008-04-28T08:57:15Z</time></trkpt>
<trkpt lat="46.74711937" lon="6.90977267"><ele>616.822998</ele><time>2008-04-28T08:57:27Z</time></trkpt>
<trkpt lat="46.74754433" lon="6.91023963"><ele>616.822998</ele><time>2008-04-28T08:57:43Z</time></trkpt>
<trkpt lat="46.74795186" lon="6.91082451"><ele>619.226318</ele><time>2008-04-28T08:58:00Z</time></trkpt>
<trkpt lat="46.74835076" lon="6.91148803"><ele>621.14917</ele><time>2008-04-28T08:58:19Z</time></trkpt>
<trkpt lat="46.74848805" lon="6.91201022"><ele>621.14917</ele><time>2008-04-28T08:58:32Z</time></trkpt>
<trkpt lat="46.74840130" lon="6.91270466"><ele>623.071777</ele><time>2008-04-28T08:58:48Z</time></trkpt>
<trkpt lat="46.74834858" lon="6.91296693"><ele>623.071777</ele><time>2008-04-28T08:59:02Z</time></trkpt>
<trkpt lat="46.74833961" lon="6.91298009"><ele>623.071777</ele><time>2008-04-28T08:59:29Z</time></trkpt>
<trkpt lat="46.74804415" lon="6.91327086"><ele>624.032959</ele><time>2008-04-28T08:59:42Z</time></trkpt>
<trkpt lat="46.74768507" lon="6.91344453"><ele>624.032959</ele><time>2008-04-28T08:59:55Z</time></trkpt>
<trkpt lat="46.74743227" lon="6.91323758"><ele>624.032959</ele><time>2008-04-28T09:00:05Z</time></trkpt>
<trkpt lat="46.74711484" lon="6.91267792"><ele>625.955566</ele><time>2008-04-28T09:00:22Z</time></trkpt>
<trkpt lat="46.74692458" lon="6.91239185"><ele>628.8396</ele><time>2008-04-28T09:00:32Z</time></trkpt>
<trkpt lat="46.74691552" lon="6.91236578"><ele>629.800781</ele><time>2008-04-28T09:00:33Z</time></trkpt>
<trkpt lat="46.74659005" lon="6.91202874"><ele>632.204102</ele><time>2008-04-28T09:00:49Z</time></trkpt>
<trkpt lat="46.74627422" lon="6.91180930"><ele>634.126709</ele><time>2008-04-28T09:01:01Z</time></trkpt>
<trkpt lat="46.74605738" lon="6.91160210"><ele>637.010742</ele><time>2008-04-28T09:01:15Z</time></trkpt>
<trkpt lat="46.74600315" lon="6.91155022"><ele>637.972168</ele><time>2008-04-28T09:01:18Z</time></trkpt>
<trkpt lat="46.74580400" lon="6.91127739"><ele>638.933594</ele><time>2008-04-28T09:01:31Z</time></trkpt>
<trkpt lat="46.74568623" lon="6.91109533"><ele>639.894775</ele><time>2008-04-28T09:01:40Z</time></trkpt>
<trkpt lat="46.74537024" lon="6.91084974"><ele>642.778809</ele><time>2008-04-28T09:01:55Z</time></trkpt>
<trkpt lat="46.74499280" lon="6.91093197"><ele>645.181885</ele><time>2008-04-28T09:02:12Z</time></trkpt>
<trkpt lat="46.74476858" lon="6.91107815"><ele>647.104492</ele><time>2008-04-28T09:02:23Z</time></trkpt>
<trkpt lat="46.74438293" lon="6.91133053"><ele>649.0271</ele><time>2008-04-28T09:02:42Z</time></trkpt>
<trkpt lat="46.74401530" lon="6.91158274"><ele>650.949707</ele><time>2008-04-28T09:03:01Z</time></trkpt>
<trkpt lat="46.74368354" lon="6.91182154"><ele>653.833984</ele><time>2008-04-28T09:03:18Z</time></trkpt>
<trkpt lat="46.74345966" lon="6.91204618"><ele>657.198486</ele><time>2008-04-28T09:03:31Z</time></trkpt>
<trkpt lat="46.74334349" lon="6.91220434"><ele>661.043701</ele><time>2008-04-28T09:03:38Z</time></trkpt>
<trkpt lat="46.74332555" lon="6.91223075"><ele>661.043701</ele><time>2008-04-28T09:03:39Z</time></trkpt>
<trkpt lat="46.74310218" lon="6.91254691"><ele>663.92749</ele><time>2008-04-28T09:03:54Z</time></trkpt>
<trkpt lat="46.74286966" lon="6.91285017"><ele>665.850342</ele><time>2008-04-28T09:04:11Z</time></trkpt>
<trkpt lat="46.74261871" lon="6.91304890"><ele>667.772705</ele><time>2008-04-28T09:04:26Z</time></trkpt>
<trkpt lat="46.74219693" lon="6.91326239"><ele>669.215088</ele><time>2008-04-28T09:04:43Z</time></trkpt>
<trkpt lat="46.74169385" lon="6.91342433"><ele>669.215088</ele><time>2008-04-28T09:04:59Z</time></trkpt>
<trkpt lat="46.74128054" lon="6.91351997"><ele>672.098877</ele><time>2008-04-28T09:05:17Z</time></trkpt>
<trkpt lat="46.74088474" lon="6.91352382"><ele>674.021484</ele><time>2008-04-28T09:05:35Z</time></trkpt>
<trkpt lat="46.74058744" lon="6.91343506"><ele>676.905518</ele><time>2008-04-28T09:05:49Z</time></trkpt>
<trkpt lat="46.74024504" lon="6.91330757"><ele>677.866699</ele><time>2008-04-28T09:06:06Z</time></trkpt>
<trkpt lat="46.73992937" lon="6.91312744"><ele>679.789307</ele><time>2008-04-28T09:06:22Z</time></trkpt>
<trkpt lat="46.73961363" lon="6.91293424"><ele>681.231445</ele><time>2008-04-28T09:06:37Z</time></trkpt>
<trkpt lat="46.73929780" lon="6.91272796"><ele>684.115479</ele><time>2008-04-28T09:06:54Z</time></trkpt>
<trkpt lat="46.73902656" lon="6.91242965"><ele>686.038086</ele><time>2008-04-28T09:07:11Z</time></trkpt>
<trkpt lat="46.73870109" lon="6.91207954"><ele>688.922119</ele><time>2008-04-28T09:07:30Z</time></trkpt>
<trkpt lat="46.73840278" lon="6.91175533"><ele>691.805908</ele><time>2008-04-28T09:07:47Z</time></trkpt>
<trkpt lat="46.73818594" lon="6.91154812"><ele>694.209229</ele><time>2008-04-28T09:07:59Z</time></trkpt>
<trkpt lat="46.73792384" lon="6.91128896"><ele>696.131836</ele><time>2008-04-28T09:08:14Z</time></trkpt>
<trkpt lat="46.73788771" lon="6.91125006"><ele>696.131836</ele><time>2008-04-28T09:08:19Z</time></trkpt>
<trkpt lat="46.73782434" lon="6.91117220"><ele>695.17041</ele><time>2008-04-28T09:08:24Z</time></trkpt>
<trkpt lat="46.73752620" lon="6.91090037"><ele>697.093018</ele><time>2008-04-28T09:08:41Z</time></trkpt>
<trkpt lat="46.73718313" lon="6.91061589"><ele>698.054443</ele><time>2008-04-28T09:08:58Z</time></trkpt>
<trkpt lat="46.73682237" lon="6.91042311"><ele>699.015625</ele><time>2008-04-28T09:09:15Z</time></trkpt>
<trkpt lat="46.73646228" lon="6.91037432"><ele>699.977051</ele><time>2008-04-28T09:09:30Z</time></trkpt>
<trkpt lat="46.73598594" lon="6.91045747"><ele>701.899902</ele><time>2008-04-28T09:09:50Z</time></trkpt>
<trkpt lat="46.73563566" lon="6.91057867"><ele>704.783691</ele><time>2008-04-28T09:10:06Z</time></trkpt>
<trkpt lat="46.73535688" lon="6.91059443"><ele>707.187012</ele><time>2008-04-28T09:10:20Z</time></trkpt>
<trkpt lat="46.73517658" lon="6.91051774"><ele>710.070801</ele><time>2008-04-28T09:10:31Z</time></trkpt>
<trkpt lat="46.73504985" lon="6.91033577"><ele>711.993652</ele><time>2008-04-28T09:10:46Z</time></trkpt>
<trkpt lat="46.73485053" lon="6.91003678"><ele>711.032227</ele><time>2008-04-28T09:10:58Z</time></trkpt>
<trkpt lat="46.73466009" lon="6.90971157"><ele>712.954834</ele><time>2008-04-28T09:11:12Z</time></trkpt>
<trkpt lat="46.73446982" lon="6.90941250"><ele>713.916016</ele><time>2008-04-28T09:11:26Z</time></trkpt>
<trkpt lat="46.73428006" lon="6.90923120"><ele>715.838867</ele><time>2008-04-28T09:11:38Z</time></trkpt>
<trkpt lat="46.73422591" lon="6.90919247"><ele>716.800293</ele><time>2008-04-28T09:11:42Z</time></trkpt>
<trkpt lat="46.73418073" lon="6.90915367"><ele>717.761475</ele><time>2008-04-28T09:11:44Z</time></trkpt>
<trkpt lat="46.73398241" lon="6.90905099"><ele>720.164795</ele><time>2008-04-28T09:11:56Z</time></trkpt>
<trkpt lat="46.73385610" lon="6.90898678"><ele>722.087402</ele><time>2008-04-28T09:12:04Z</time></trkpt>
<trkpt lat="46.73377479" lon="6.90889601"><ele>723.048828</ele><time>2008-04-28T09:12:08Z</time></trkpt>
<trkpt lat="46.73363943" lon="6.90880573"><ele>724.971436</ele><time>2008-04-28T09:12:17Z</time></trkpt>
<trkpt lat="46.73335067" lon="6.90861236"><ele>727.855225</ele><time>2008-04-28T09:12:29Z</time></trkpt>
<trkpt lat="46.73299050" lon="6.90855050"><ele>729.777832</ele><time>2008-04-28T09:12:44Z</time></trkpt>
<trkpt lat="46.73277441" lon="6.90850030"><ele>732.181396</ele><time>2008-04-28T09:12:49Z</time></trkpt>
<trkpt lat="46.73248616" lon="6.90841153"><ele>735.06543</ele><time>2008-04-28T09:13:00Z</time></trkpt>
<trkpt lat="46.73227024" lon="6.90841363"><ele>736.987793</ele><time>2008-04-28T09:13:12Z</time></trkpt>
<trkpt lat="46.73203664" lon="6.90846828"><ele>736.987793</ele><time>2008-04-28T09:13:24Z</time></trkpt>
<trkpt lat="46.73157815" lon="6.90853818"><ele>737.949219</ele><time>2008-04-28T09:13:37Z</time></trkpt>
<trkpt lat="46.73130901" lon="6.90869786"><ele>737.949219</ele><time>2008-04-28T09:13:47Z</time></trkpt>
<trkpt lat="46.73095051" lon="6.90897605"><ele>738.910645</ele><time>2008-04-28T09:13:58Z</time></trkpt>
<trkpt lat="46.73057400" lon="6.90926758"><ele>739.871826</ele><time>2008-04-28T09:14:13Z</time></trkpt>
<trkpt lat="46.73045891" lon="6.90966119"><ele>744.197754</ele><time>2008-04-28T09:14:27Z</time></trkpt>
<trkpt lat="46.73042396" lon="6.90988398"><ele>747.081543</ele><time>2008-04-28T09:14:36Z</time></trkpt>
<trkpt lat="46.73040653" lon="6.91000183"><ele>748.043213</ele><time>2008-04-28T09:14:41Z</time></trkpt>
<trkpt lat="46.73029982" lon="6.91027768"><ele>749.96582</ele><time>2008-04-28T09:14:54Z</time></trkpt>
<trkpt lat="46.73016638" lon="6.91060600"><ele>750.927002</ele><time>2008-04-28T09:15:08Z</time></trkpt>
<trkpt lat="46.72996966" lon="6.91085653"><ele>749.004395</ele><time>2008-04-28T09:15:15Z</time></trkpt>
<trkpt lat="46.72988023" lon="6.91096206"><ele>747.081543</ele><time>2008-04-28T09:15:18Z</time></trkpt>
<trkpt lat="46.72971007" lon="6.91113381"><ele>744.197754</ele><time>2008-04-28T09:15:22Z</time></trkpt>
<trkpt lat="46.72956683" lon="6.91127907"><ele>740.833008</ele><time>2008-04-28T09:15:25Z</time></trkpt>
<trkpt lat="46.72920850" lon="6.91160965"><ele>739.871826</ele><time>2008-04-28T09:15:32Z</time></trkpt>
<trkpt lat="46.72874247" lon="6.91198046"><ele>740.833008</ele><time>2008-04-28T09:15:45Z</time></trkpt>
<trkpt lat="46.72839227" lon="6.91212782"><ele>741.794434</ele><time>2008-04-28T09:15:57Z</time></trkpt>
<trkpt lat="46.72803286" lon="6.91220979"><ele>741.794434</ele><time>2008-04-28T09:16:08Z</time></trkpt>
<trkpt lat="46.72766439" lon="6.91229193"><ele>739.871826</ele><time>2008-04-28T09:16:18Z</time></trkpt>
<trkpt lat="46.72761041" lon="6.91229244"><ele>739.871826</ele><time>2008-04-28T09:16:19Z</time></trkpt>
<trkpt lat="46.72740363" lon="6.91232060"><ele>737.949219</ele><time>2008-04-28T09:16:23Z</time></trkpt>
<trkpt lat="46.72696383" lon="6.91252110"><ele>738.910645</ele><time>2008-04-28T09:16:33Z</time></trkpt>
<trkpt lat="46.72679376" lon="6.91271899"><ele>738.910645</ele><time>2008-04-28T09:16:37Z</time></trkpt>
<trkpt lat="46.72643552" lon="6.91306265"><ele>740.833008</ele><time>2008-04-28T09:16:47Z</time></trkpt>
<trkpt lat="46.72621138" lon="6.91322182"><ele>745.158936</ele><time>2008-04-28T09:16:55Z</time></trkpt>
<trkpt lat="46.72605037" lon="6.91341955"><ele>746.120361</ele><time>2008-04-28T09:17:06Z</time></trkpt>
<trkpt lat="46.72575398" lon="6.91352709"><ele>748.043213</ele><time>2008-04-28T09:17:20Z</time></trkpt>
<trkpt lat="46.72563764" lon="6.91365911"><ele>750.927002</ele><time>2008-04-28T09:17:28Z</time></trkpt>
<trkpt lat="46.72563781" lon="6.91368526"><ele>750.927002</ele><time>2008-04-28T09:17:29Z</time></trkpt>
<trkpt lat="46.72560227" lon="6.91379020"><ele>751.888428</ele><time>2008-04-28T09:17:33Z</time></trkpt>
<trkpt lat="46.72554083" lon="6.91411785"><ele>754.772217</ele><time>2008-04-28T09:17:46Z</time></trkpt>
<trkpt lat="46.72554133" lon="6.91422254"><ele>754.772217</ele><time>2008-04-28T09:17:50Z</time></trkpt>
<trkpt lat="46.72539834" lon="6.91443318"><ele>759.098145</ele><time>2008-04-28T09:18:02Z</time></trkpt>
<trkpt lat="46.72531754" lon="6.91446017"><ele>759.098145</ele><time>2008-04-28T09:18:04Z</time></trkpt>
<trkpt lat="46.72512115" lon="6.91478907"><ele>760.059326</ele><time>2008-04-28T09:18:18Z</time></trkpt>
<trkpt lat="46.72486902" lon="6.91473920"><ele>762.943359</ele><time>2008-04-28T09:18:32Z</time></trkpt>
<trkpt lat="46.72469795" lon="6.91471472"><ele>762.943359</ele><time>2008-04-28T09:18:40Z</time></trkpt>
<trkpt lat="46.72459896" lon="6.91468949"><ele>763.904541</ele><time>2008-04-28T09:18:45Z</time></trkpt>
<trkpt lat="46.72435588" lon="6.91465261"><ele>765.827637</ele><time>2008-04-28T09:18:58Z</time></trkpt>
<trkpt lat="46.72404977" lon="6.91460324"><ele>769.192139</ele><time>2008-04-28T09:19:14Z</time></trkpt>
<trkpt lat="46.72377108" lon="6.91463216"><ele>772.075928</ele><time>2008-04-28T09:19:29Z</time></trkpt>
<trkpt lat="46.72354644" lon="6.91468664"><ele>773.037354</ele><time>2008-04-28T09:19:42Z</time></trkpt>
<trkpt lat="46.72330420" lon="6.91483291"><ele>773.037354</ele><time>2008-04-28T09:19:55Z</time></trkpt>
<trkpt lat="46.72323287" lon="6.91496442"><ele>774.959961</ele><time>2008-04-28T09:20:01Z</time></trkpt>
<trkpt lat="46.72319893" lon="6.91542258"><ele>777.84375</ele><time>2008-04-28T09:20:15Z</time></trkpt>
<trkpt lat="46.72317361" lon="6.91578903"><ele>781.20874</ele><time>2008-04-28T09:20:27Z</time></trkpt>
<trkpt lat="46.72312978" lon="6.91602490"><ele>783.131104</ele><time>2008-04-28T09:20:37Z</time></trkpt>
<trkpt lat="46.72310321" lon="6.91611676"><ele>784.092529</ele><time>2008-04-28T09:20:41Z</time></trkpt>
<trkpt lat="46.72285183" lon="6.91622389"><ele>785.053955</ele><time>2008-04-28T09:20:57Z</time></trkpt>
<trkpt lat="46.72255495" lon="6.91622674"><ele>784.092529</ele><time>2008-04-28T09:21:09Z</time></trkpt>
<trkpt lat="46.72244707" lon="6.91624082"><ele>784.092529</ele><time>2008-04-28T09:21:13Z</time></trkpt>
<trkpt lat="46.72243760" lon="6.91613629"><ele>785.053955</ele><time>2008-04-28T09:21:25Z</time></trkpt>
<trkpt lat="46.72231204" lon="6.91621601"><ele>786.015137</ele><time>2008-04-28T09:24:28Z</time></trkpt>
<trkpt lat="46.72223920" lon="6.91603353"><ele>786.015137</ele><time>2008-04-28T09:24:37Z</time></trkpt>
<trkpt lat="46.72216611" lon="6.91578576"><ele>786.015137</ele><time>2008-04-28T09:24:45Z</time></trkpt>
<trkpt lat="46.72207559" lon="6.91565584"><ele>786.015137</ele><time>2008-04-28T09:24:51Z</time></trkpt>
<trkpt lat="46.72184031" lon="6.91535720"><ele>786.976318</ele><time>2008-04-28T09:25:01Z</time></trkpt>
<trkpt lat="46.72159547" lon="6.91492796"><ele>787.937744</ele><time>2008-04-28T09:25:11Z</time></trkpt>
<trkpt lat="46.72149556" lon="6.91471967"><ele>786.976318</ele><time>2008-04-28T09:25:17Z</time></trkpt>
<trkpt lat="46.72120538" lon="6.91422539"><ele>787.937744</ele><time>2008-04-28T09:25:29Z</time></trkpt>
<trkpt lat="46.72087085" lon="6.91384929"><ele>787.937744</ele><time>2008-04-28T09:25:38Z</time></trkpt>
<trkpt lat="46.72061755" lon="6.91355090"><ele>787.937744</ele><time>2008-04-28T09:25:47Z</time></trkpt>
<trkpt lat="46.72054513" lon="6.91344696"><ele>787.937744</ele><time>2008-04-28T09:25:50Z</time></trkpt>
<trkpt lat="46.72031882" lon="6.91313524"><ele>789.860352</ele><time>2008-04-28T09:25:59Z</time></trkpt>
<trkpt lat="46.72021028" lon="6.91300557"><ele>790.821533</ele><time>2008-04-28T09:26:02Z</time></trkpt>
<trkpt lat="46.71991129" lon="6.91255060"><ele>793.224854</ele><time>2008-04-28T09:26:16Z</time></trkpt>
<trkpt lat="46.71986586" lon="6.91244641"><ele>793.224854</ele><time>2008-04-28T09:26:19Z</time></trkpt>
<trkpt lat="46.71958482" lon="6.91197828"><ele>796.109131</ele><time>2008-04-28T09:26:32Z</time></trkpt>
<trkpt lat="46.71946730" lon="6.91184862"><ele>796.109131</ele><time>2008-04-28T09:26:37Z</time></trkpt>
<trkpt lat="46.71939354" lon="6.91147009"><ele>798.031738</ele><time>2008-04-28T09:26:48Z</time></trkpt>
<trkpt lat="46.71926538" lon="6.91098738"><ele>798.031738</ele><time>2008-04-28T09:26:58Z</time></trkpt>
<trkpt lat="46.71923814" lon="6.91093532"><ele>798.031738</ele><time>2008-04-28T09:26:59Z</time></trkpt>
<trkpt lat="46.71905550" lon="6.91033543"><ele>795.147461</ele><time>2008-04-28T09:27:10Z</time></trkpt>
<trkpt lat="46.71905508" lon="6.91024382"><ele>795.147461</ele><time>2008-04-28T09:27:12Z</time></trkpt>
<trkpt lat="46.71899037" lon="6.90987828"><ele>790.821533</ele><time>2008-04-28T09:27:17Z</time></trkpt>
<trkpt lat="46.71894427" lon="6.90963018"><ele>789.860352</ele><time>2008-04-28T09:27:20Z</time></trkpt>
<trkpt lat="46.71888895" lon="6.90934293"><ele>788.89917</ele><time>2008-04-28T09:27:24Z</time></trkpt>
<trkpt lat="46.71883422" lon="6.90917345"><ele>789.860352</ele><time>2008-04-28T09:27:26Z</time></trkpt>
<trkpt lat="46.71857195" lon="6.90887522"><ele>787.937744</ele><time>2008-04-28T09:27:34Z</time></trkpt>
<trkpt lat="46.71835519" lon="6.90868109"><ele>787.937744</ele><time>2008-04-28T09:27:40Z</time></trkpt>
<trkpt lat="46.71810164" lon="6.90833048"><ele>788.89917</ele><time>2008-04-28T09:27:49Z</time></trkpt>
<trkpt lat="46.71773099" lon="6.90792865"><ele>789.860352</ele><time>2008-04-28T09:27:59Z</time></trkpt>
<trkpt lat="46.71751399" lon="6.90769538"><ele>790.821533</ele><time>2008-04-28T09:28:08Z</time></trkpt>
<trkpt lat="46.71722439" lon="6.90733194"><ele>793.224854</ele><time>2008-04-28T09:28:18Z</time></trkpt>
<trkpt lat="46.71709782" lon="6.90718937"><ele>793.224854</ele><time>2008-04-28T09:28:23Z</time></trkpt>
<trkpt lat="46.71696212" lon="6.90703372"><ele>794.186279</ele><time>2008-04-28T09:28:28Z</time></trkpt>
<trkpt lat="46.71681728" lon="6.90682584"><ele>795.147461</ele><time>2008-04-28T09:28:34Z</time></trkpt>
<trkpt lat="46.71671771" lon="6.90669609"><ele>796.109131</ele><time>2008-04-28T09:28:38Z</time></trkpt>
<trkpt lat="46.71629266" lon="6.90621631"><ele>797.070313</ele><time>2008-04-28T09:28:50Z</time></trkpt>
<trkpt lat="46.71625653" lon="6.90617742"><ele>797.070313</ele><time>2008-04-28T09:28:51Z</time></trkpt>
<trkpt lat="46.71592251" lon="6.90593225"><ele>798.031738</ele><time>2008-04-28T09:29:01Z</time></trkpt>
<trkpt lat="46.71567868" lon="6.90572538"><ele>798.99292</ele><time>2008-04-28T09:29:09Z</time></trkpt>
<trkpt lat="46.71526269" lon="6.90525868"><ele>799.954346</ele><time>2008-04-28T09:29:21Z</time></trkpt>
<trkpt lat="46.71499120" lon="6.90490823"><ele>800.915527</ele><time>2008-04-28T09:29:31Z</time></trkpt>
<trkpt lat="46.71461117" lon="6.90444111"><ele>801.876953</ele><time>2008-04-28T09:29:45Z</time></trkpt>
<trkpt lat="46.71441134" lon="6.90403769"><ele>802.838135</ele><time>2008-04-28T09:29:56Z</time></trkpt>
<trkpt lat="46.71412183" lon="6.90368741"><ele>803.799561</ele><time>2008-04-28T09:30:06Z</time></trkpt>
<trkpt lat="46.71380491" lon="6.90323277"><ele>806.202637</ele><time>2008-04-28T09:30:19Z</time></trkpt>
<trkpt lat="46.71356033" lon="6.90288207"><ele>806.202637</ele><time>2008-04-28T09:30:31Z</time></trkpt>
<trkpt lat="46.71351498" lon="6.90279096"><ele>807.164063</ele><time>2008-04-28T09:30:34Z</time></trkpt>
<trkpt lat="46.71353233" lon="6.90266004"><ele>806.202637</ele><time>2008-04-28T09:30:39Z</time></trkpt>
<trkpt lat="46.71374783" lon="6.90257940"><ele>807.164063</ele><time>2008-04-28T09:30:46Z</time></trkpt>
<trkpt lat="46.71372009" lon="6.90242275"><ele>806.202637</ele><time>2008-04-28T09:30:51Z</time></trkpt>
<trkpt lat="46.71356603" lon="6.90217582"><ele>804.760742</ele><time>2008-04-28T09:30:58Z</time></trkpt>
<trkpt lat="46.71329495" lon="6.90191690"><ele>802.838135</ele><time>2008-04-28T09:31:09Z</time></trkpt>
<trkpt lat="46.71310519" lon="6.90173568"><ele>802.838135</ele><time>2008-04-28T09:31:19Z</time></trkpt>
<trkpt lat="46.71298759" lon="6.90159302"><ele>801.876953</ele><time>2008-04-28T09:31:23Z</time></trkpt>
<trkpt lat="46.71270705" lon="6.90124266"><ele>798.031738</ele><time>2008-04-28T09:31:30Z</time></trkpt>
<trkpt lat="46.71251720" lon="6.90103529"><ele>798.031738</ele><time>2008-04-28T09:31:35Z</time></trkpt>
<trkpt lat="46.71200104" lon="6.90032115"><ele>796.109131</ele><time>2008-04-28T09:31:46Z</time></trkpt>
<trkpt lat="46.71169301" lon="6.89986652"><ele>795.147461</ele><time>2008-04-28T09:31:54Z</time></trkpt>
<trkpt lat="46.71140349" lon="6.89950325"><ele>795.147461</ele><time>2008-04-28T09:32:05Z</time></trkpt>
<trkpt lat="46.71117743" lon="6.89927006"><ele>794.186279</ele><time>2008-04-28T09:32:16Z</time></trkpt>
<trkpt lat="46.71097862" lon="6.89907585"><ele>795.147461</ele><time>2008-04-28T09:32:26Z</time></trkpt>
<trkpt lat="46.71076169" lon="6.89885574"><ele>795.147461</ele><time>2008-04-28T09:32:35Z</time></trkpt>
<trkpt lat="46.71031024" lon="6.89849406"><ele>793.224854</ele><time>2008-04-28T09:32:48Z</time></trkpt>
<trkpt lat="46.71008410" lon="6.89823473"><ele>793.224854</ele><time>2008-04-28T09:32:58Z</time></trkpt>
<trkpt lat="46.70974019" lon="6.89779359"><ele>789.860352</ele><time>2008-04-28T09:33:07Z</time></trkpt>
<trkpt lat="46.70962251" lon="6.89763785"><ele>786.976318</ele><time>2008-04-28T09:33:10Z</time></trkpt>
<trkpt lat="46.70948672" lon="6.89746921"><ele>785.053955</ele><time>2008-04-28T09:33:13Z</time></trkpt>
<trkpt lat="46.70934155" lon="6.89720904"><ele>783.131104</ele><time>2008-04-28T09:33:23Z</time></trkpt>
<trkpt lat="46.70906176" lon="6.89700267"><ele>783.131104</ele><time>2008-04-28T09:33:30Z</time></trkpt>
<trkpt lat="46.70897107" lon="6.89684660"><ele>781.20874</ele><time>2008-04-28T09:33:37Z</time></trkpt>
<trkpt lat="46.70894357" lon="6.89674225"><ele>781.20874</ele><time>2008-04-28T09:33:43Z</time></trkpt>
<trkpt lat="46.70887132" lon="6.89667762"><ele>782.169922</ele><time>2008-04-28T09:33:47Z</time></trkpt>
<trkpt lat="46.70873612" lon="6.89662666"><ele>783.131104</ele><time>2008-04-28T09:33:50Z</time></trkpt>
<trkpt lat="46.70873495" lon="6.89637822"><ele>779.766357</ele><time>2008-04-28T09:33:59Z</time></trkpt>
<trkpt lat="46.70878842" lon="6.89627303"><ele>776.882568</ele><time>2008-04-28T09:34:04Z</time></trkpt>
<trkpt lat="46.70881491" lon="6.89616817"><ele>774.959961</ele><time>2008-04-28T09:34:07Z</time></trkpt>
<trkpt lat="46.70894885" lon="6.89597069"><ele>771.114746</ele><time>2008-04-28T09:34:14Z</time></trkpt>
<trkpt lat="46.70900283" lon="6.89595703"><ele>769.192139</ele><time>2008-04-28T09:34:16Z</time></trkpt>
<trkpt lat="46.70924507" lon="6.89583692"><ele>764.866211</ele><time>2008-04-28T09:34:24Z</time></trkpt>
<trkpt lat="46.70938731" lon="6.89548236"><ele>761.982178</ele><time>2008-04-28T09:34:33Z</time></trkpt>
<trkpt lat="46.70941405" lon="6.89541673"><ele>761.020752</ele><time>2008-04-28T09:34:37Z</time></trkpt>
<trkpt lat="46.70935052" lon="6.89529964"><ele>759.098145</ele><time>2008-04-28T09:34:42Z</time></trkpt>
<trkpt lat="46.70898892" lon="6.89493712"><ele>756.214111</ele><time>2008-04-28T09:34:54Z</time></trkpt>
<trkpt lat="46.70844695" lon="6.89447184"><ele>756.214111</ele><time>2008-04-28T09:35:11Z</time></trkpt>
<trkpt lat="46.70785083" lon="6.89395476"><ele>754.772217</ele><time>2008-04-28T09:35:29Z</time></trkpt>
<trkpt lat="46.70748931" lon="6.89360532"><ele>754.772217</ele><time>2008-04-28T09:35:42Z</time></trkpt>
<trkpt lat="46.70704675" lon="6.89324364"><ele>754.772217</ele><time>2008-04-28T09:35:56Z</time></trkpt>
<trkpt lat="46.70650494" lon="6.89280443"><ele>757.175537</ele><time>2008-04-28T09:36:14Z</time></trkpt>
<trkpt lat="46.70643353" lon="6.89292287"><ele>760.059326</ele><time>2008-04-28T09:36:20Z</time></trkpt>
<trkpt lat="46.70632658" lon="6.89313317"><ele>762.943359</ele><time>2008-04-28T09:36:30Z</time></trkpt>
<trkpt lat="46.70631769" lon="6.89314633"><ele>762.943359</ele><time>2008-04-28T09:36:31Z</time></trkpt>
<trkpt lat="46.70605727" lon="6.89324054"><ele>765.827637</ele><time>2008-04-28T09:36:46Z</time></trkpt>
<trkpt lat="46.70583263" lon="6.89329511"><ele>768.230713</ele><time>2008-04-28T09:36:59Z</time></trkpt>
<trkpt lat="46.70559919" lon="6.89338898"><ele>769.192139</ele><time>2008-04-28T09:37:13Z</time></trkpt>
<trkpt lat="46.70535620" lon="6.89336526"><ele>770.15332</ele><time>2008-04-28T09:37:26Z</time></trkpt>
<trkpt lat="46.70506778" lon="6.89325051"><ele>772.075928</ele><time>2008-04-28T09:37:39Z</time></trkpt>
<trkpt lat="46.70473418" lon="6.89309696"><ele>772.075928</ele><time>2008-04-28T09:37:52Z</time></trkpt>
<trkpt lat="46.70446361" lon="6.89294281"><ele>772.075928</ele><time>2008-04-28T09:38:02Z</time></trkpt>
<trkpt lat="46.70419263" lon="6.89271013"><ele>772.075928</ele><time>2008-04-28T09:38:13Z</time></trkpt>
<trkpt lat="46.70387663" lon="6.89247795"><ele>773.037354</ele><time>2008-04-28T09:38:24Z</time></trkpt>
<trkpt lat="46.70366021" lon="6.89237553"><ele>773.037354</ele><time>2008-04-28T09:38:34Z</time></trkpt>
<trkpt lat="46.70350657" lon="6.89222021"><ele>773.998535</ele><time>2008-04-28T09:38:44Z</time></trkpt>
<trkpt lat="46.70329886" lon="6.89205232"><ele>773.998535</ele><time>2008-04-28T09:38:52Z</time></trkpt>
<trkpt lat="46.70319032" lon="6.89192265"><ele>774.959961</ele><time>2008-04-28T09:38:57Z</time></trkpt>
<trkpt lat="46.70311823" lon="6.89189726"><ele>775.921143</ele><time>2008-04-28T09:39:02Z</time></trkpt>
<trkpt lat="46.70295638" lon="6.89192500"><ele>777.84375</ele><time>2008-04-28T09:39:17Z</time></trkpt>
<trkpt lat="46.70281347" lon="6.89213572"><ele>778.805176</ele><time>2008-04-28T09:39:29Z</time></trkpt>
<trkpt lat="46.70261633" lon="6.89228148"><ele>782.169922</ele><time>2008-04-28T09:39:44Z</time></trkpt>
<trkpt lat="46.70252681" lon="6.89238701"><ele>785.053955</ele><time>2008-04-28T09:39:51Z</time></trkpt>
<trkpt lat="46.70240217" lon="6.89264978"><ele>786.015137</ele><time>2008-04-28T09:40:06Z</time></trkpt>
<trkpt lat="46.70231366" lon="6.89295145"><ele>788.89917</ele><time>2008-04-28T09:40:21Z</time></trkpt>
<trkpt lat="46.70211685" lon="6.89318882"><ele>791.782959</ele><time>2008-04-28T09:40:38Z</time></trkpt>
<trkpt lat="46.70194670" lon="6.89334741"><ele>795.147461</ele><time>2008-04-28T09:40:53Z</time></trkpt>
<trkpt lat="46.70176816" lon="6.89363692"><ele>795.147461</ele><time>2008-04-28T09:41:08Z</time></trkpt>
<trkpt lat="46.70159843" lon="6.89388704"><ele>791.782959</ele><time>2008-04-28T09:41:16Z</time></trkpt>
<trkpt lat="46.70148242" lon="6.89407127"><ele>789.860352</ele><time>2008-04-28T09:41:20Z</time></trkpt>
<trkpt lat="46.70129492" lon="6.89437394"><ele>788.89917</ele><time>2008-04-28T09:41:26Z</time></trkpt>
<trkpt lat="46.70106065" lon="6.89428476"><ele>787.937744</ele><time>2008-04-28T09:41:34Z</time></trkpt>
<trkpt lat="46.70103357" lon="6.89427193"><ele>786.976318</ele><time>2008-04-28T09:41:35Z</time></trkpt>
<trkpt lat="46.70088907" lon="6.89415576"><ele>786.976318</ele><time>2008-04-28T09:41:41Z</time></trkpt>
<trkpt lat="46.70062705" lon="6.89390992"><ele>787.937744</ele><time>2008-04-28T09:41:53Z</time></trkpt>
<trkpt lat="46.70036553" lon="6.89378184"><ele>789.860352</ele><time>2008-04-28T09:42:07Z</time></trkpt>
<trkpt lat="46.70022103" lon="6.89365251"><ele>790.821533</ele><time>2008-04-28T09:42:16Z</time></trkpt>
<trkpt lat="46.70007653" lon="6.89354941"><ele>790.821533</ele><time>2008-04-28T09:42:23Z</time></trkpt>
<trkpt lat="46.70001333" lon="6.89349770"><ele>790.821533</ele><time>2008-04-28T09:42:26Z</time></trkpt>
<trkpt lat="46.69997737" lon="6.89349803"><ele>791.782959</ele><time>2008-04-28T09:42:28Z</time></trkpt>
<trkpt lat="46.69970848" lon="6.89369693"><ele>793.224854</ele><time>2008-04-28T09:42:40Z</time></trkpt>
<trkpt lat="46.69968174" lon="6.89376256"><ele>793.224854</ele><time>2008-04-28T09:42:43Z</time></trkpt>
<trkpt lat="46.69962851" lon="6.89391998"><ele>794.186279</ele><time>2008-04-28T09:42:49Z</time></trkpt>
<trkpt lat="46.69955718" lon="6.89405149"><ele>794.186279</ele><time>2008-04-28T09:42:53Z</time></trkpt>
<trkpt lat="46.69943129" lon="6.89405275"><ele>795.147461</ele><time>2008-04-28T09:43:01Z</time></trkpt>
<trkpt lat="46.69931402" lon="6.89398854"><ele>795.147461</ele><time>2008-04-28T09:43:05Z</time></trkpt>
<trkpt lat="46.69890842" lon="6.89382266"><ele>796.109131</ele><time>2008-04-28T09:43:17Z</time></trkpt>
<trkpt lat="46.69864682" lon="6.89366844"><ele>797.070313</ele><time>2008-04-28T09:43:26Z</time></trkpt>
<trkpt lat="46.69817777" lon="6.89341161"><ele>798.031738</ele><time>2008-04-28T09:43:40Z</time></trkpt>
<trkpt lat="46.69780788" lon="6.89318002"><ele>798.99292</ele><time>2008-04-28T09:43:53Z</time></trkpt>
<trkpt lat="46.69756346" lon="6.89285564"><ele>799.954346</ele><time>2008-04-28T09:44:04Z</time></trkpt>
<trkpt lat="46.69700439" lon="6.89258675"><ele>801.876953</ele><time>2008-04-28T09:44:21Z</time></trkpt>
<trkpt lat="46.69648153" lon="6.89235667"><ele>802.838135</ele><time>2008-04-28T09:44:37Z</time></trkpt>
<trkpt lat="46.69607475" lon="6.89194243"><ele>803.799561</ele><time>2008-04-28T09:44:53Z</time></trkpt>
<trkpt lat="46.69567687" lon="6.89150188"><ele>807.164063</ele><time>2008-04-28T09:45:08Z</time></trkpt>
<trkpt lat="46.69518015" lon="6.89110165"><ele>807.164063</ele><time>2008-04-28T09:45:24Z</time></trkpt>
<trkpt lat="46.69490003" lon="6.89082990"><ele>808.125488</ele><time>2008-04-28T09:45:36Z</time></trkpt>
<trkpt lat="46.69466509" lon="6.89062312"><ele>808.125488</ele><time>2008-04-28T09:45:46Z</time></trkpt>
<trkpt lat="46.69454757" lon="6.89049362"><ele>806.202637</ele><time>2008-04-28T09:45:50Z</time></trkpt>
<trkpt lat="46.69418581" lon="6.89009196"><ele>803.799561</ele><time>2008-04-28T09:46:02Z</time></trkpt>
<trkpt lat="46.69385263" lon="6.89003002"><ele>801.876953</ele><time>2008-04-28T09:46:11Z</time></trkpt>
<trkpt lat="46.69363705" lon="6.89009758"><ele>799.954346</ele><time>2008-04-28T09:46:13Z</time></trkpt>
<trkpt lat="46.69338467" lon="6.88998241"><ele>795.147461</ele><time>2008-04-28T09:46:23Z</time></trkpt>
<trkpt lat="46.69333027" lon="6.88990454"><ele>793.224854</ele><time>2008-04-28T09:46:25Z</time></trkpt>
<trkpt lat="46.69308694" lon="6.88981553"><ele>790.821533</ele><time>2008-04-28T09:46:29Z</time></trkpt>
<trkpt lat="46.69286189" lon="6.88977856"><ele>786.976318</ele><time>2008-04-28T09:46:33Z</time></trkpt>
<trkpt lat="46.69269978" lon="6.88974101"><ele>783.131104</ele><time>2008-04-28T09:46:36Z</time></trkpt>
<trkpt lat="46.69246567" lon="6.88969105"><ele>779.766357</ele><time>2008-04-28T09:46:41Z</time></trkpt>
<trkpt lat="46.69235017" lon="6.88999297"><ele>775.921143</ele><time>2008-04-28T09:46:46Z</time></trkpt>
<trkpt lat="46.69231622" lon="6.89041165"><ele>773.998535</ele><time>2008-04-28T09:46:50Z</time></trkpt>
<trkpt lat="46.69238127" lon="6.89084239"><ele>773.998535</ele><time>2008-04-28T09:46:54Z</time></trkpt>
<trkpt lat="46.69246375" lon="6.89116845"><ele>773.037354</ele><time>2008-04-28T09:46:58Z</time></trkpt>
<trkpt lat="46.69234774" lon="6.89136568"><ele>768.230713</ele><time>2008-04-28T09:47:02Z</time></trkpt>
<trkpt lat="46.69211439" lon="6.89147263"><ele>761.020752</ele><time>2008-04-28T09:47:05Z</time></trkpt>
<trkpt lat="46.69192596" lon="6.89156609"><ele>758.136963</ele><time>2008-04-28T09:47:07Z</time></trkpt>
<trkpt lat="46.69173754" lon="6.89167254"><ele>751.888428</ele><time>2008-04-28T09:47:09Z</time></trkpt>
<trkpt lat="46.69163880" lon="6.89171277"><ele>751.888428</ele><time>2008-04-28T09:47:10Z</time></trkpt>
<trkpt lat="46.69122591" lon="6.89190002"><ele>750.927002</ele><time>2008-04-28T09:47:16Z</time></trkpt>
<trkpt lat="46.69103656" lon="6.89182349"><ele>750.927002</ele><time>2008-04-28T09:47:22Z</time></trkpt>
<trkpt lat="46.69101653" lon="6.89139225"><ele>750.927002</ele><time>2008-04-28T09:47:31Z</time></trkpt>
<trkpt lat="46.69056449" lon="6.89091314"><ele>749.96582</ele><time>2008-04-28T09:47:43Z</time></trkpt>
<trkpt lat="46.69020290" lon="6.89055079"><ele>749.96582</ele><time>2008-04-28T09:47:52Z</time></trkpt>
<trkpt lat="46.69009360" lon="6.89026429"><ele>751.888428</ele><time>2008-04-28T09:48:02Z</time></trkpt>
<trkpt lat="46.69011187" lon="6.89032942"><ele>749.004395</ele><time>2008-04-28T09:52:46Z</time></trkpt>
<trkpt lat="46.69006661" lon="6.89027762"><ele>748.043213</ele><time>2008-04-28T09:54:08Z</time></trkpt>
<trkpt lat="46.68977793" lon="6.89009749"><ele>749.004395</ele><time>2008-04-28T09:54:19Z</time></trkpt>
<trkpt lat="46.68915424" lon="6.88948947"><ele>749.004395</ele><time>2008-04-28T09:54:37Z</time></trkpt>
<trkpt lat="46.68847639" lon="6.88881657"><ele>748.043213</ele><time>2008-04-28T09:54:56Z</time></trkpt>
<trkpt lat="46.68844018" lon="6.88877768"><ele>749.004395</ele><time>2008-04-28T09:54:57Z</time></trkpt>
<trkpt lat="46.68830456" lon="6.88863527"><ele>749.004395</ele><time>2008-04-28T09:55:01Z</time></trkpt>
<trkpt lat="46.68786208" lon="6.88828683"><ele>749.004395</ele><time>2008-04-28T09:55:13Z</time></trkpt>
<trkpt lat="46.68713135" lon="6.88786288"><ele>749.96582</ele><time>2008-04-28T09:55:32Z</time></trkpt>
<trkpt lat="46.68637379" lon="6.88745233"><ele>751.888428</ele><time>2008-04-28T09:55:53Z</time></trkpt>
<trkpt lat="46.68568823" lon="6.88706718"><ele>751.888428</ele><time>2008-04-28T09:56:12Z</time></trkpt>
<trkpt lat="46.68504777" lon="6.88670768"><ele>752.849609</ele><time>2008-04-28T09:56:30Z</time></trkpt>
<trkpt lat="46.68441645" lon="6.88637434"><ele>756.214111</ele><time>2008-04-28T09:56:48Z</time></trkpt>
<trkpt lat="46.68381220" lon="6.88605373"><ele>758.136963</ele><time>2008-04-28T09:57:06Z</time></trkpt>
<trkpt lat="46.68377607" lon="6.88602791"><ele>759.098145</ele><time>2008-04-28T09:57:07Z</time></trkpt>
<trkpt lat="46.68318967" lon="6.88568098"><ele>760.059326</ele><time>2008-04-28T09:57:24Z</time></trkpt>
<trkpt lat="46.68281014" lon="6.88531889"><ele>761.982178</ele><time>2008-04-28T09:57:39Z</time></trkpt>
<trkpt lat="46.68278298" lon="6.88529307"><ele>761.982178</ele><time>2008-04-28T09:57:40Z</time></trkpt>
<trkpt lat="46.68267427" lon="6.88513733"><ele>762.943359</ele><time>2008-04-28T09:57:46Z</time></trkpt>
<trkpt lat="46.68255743" lon="6.88515158"><ele>761.982178</ele><time>2008-04-28T09:57:50Z</time></trkpt>
<trkpt lat="46.68248568" lon="6.88519148"><ele>761.982178</ele><time>2008-04-28T09:57:52Z</time></trkpt>
<trkpt lat="46.68237797" lon="6.88524487"><ele>761.020752</ele><time>2008-04-28T09:57:55Z</time></trkpt>
<trkpt lat="46.68191009" lon="6.88522358"><ele>765.827637</ele><time>2008-04-28T09:58:07Z</time></trkpt>
<trkpt lat="46.68186500" lon="6.88521093"><ele>764.866211</ele><time>2008-04-28T09:58:08Z</time></trkpt>
<trkpt lat="46.68175695" lon="6.88518595"><ele>761.982178</ele><time>2008-04-28T09:58:11Z</time></trkpt>
<trkpt lat="46.68154188" lon="6.88534495"><ele>764.866211</ele><time>2008-04-28T09:58:19Z</time></trkpt>
<trkpt lat="46.68140701" lon="6.88537245"><ele>765.827637</ele><time>2008-04-28T09:58:25Z</time></trkpt>
<trkpt lat="46.68122789" lon="6.88553120"><ele>769.192139</ele><time>2008-04-28T09:58:35Z</time></trkpt>
<trkpt lat="46.68098716" lon="6.88597804"><ele>773.037354</ele><time>2008-04-28T09:58:52Z</time></trkpt>
<trkpt lat="46.68078222" lon="6.88638532"><ele>774.959961</ele><time>2008-04-28T09:59:08Z</time></trkpt>
<trkpt lat="46.68047913" lon="6.88695042"><ele>774.959961</ele><time>2008-04-28T09:59:24Z</time></trkpt>
<trkpt lat="46.68012265" lon="6.88764688"><ele>777.84375</ele><time>2008-04-28T09:59:41Z</time></trkpt>
<trkpt lat="46.67981956" lon="6.88822506"><ele>777.84375</ele><time>2008-04-28T09:59:57Z</time></trkpt>
<trkpt lat="46.67948077" lon="6.88885588"><ele>775.921143</ele><time>2008-04-28T10:00:06Z</time></trkpt>
<trkpt lat="46.67942737" lon="6.88896099"><ele>777.84375</ele><time>2008-04-28T10:00:08Z</time></trkpt>
<trkpt lat="46.67925772" lon="6.88922410"><ele>776.882568</ele><time>2008-04-28T10:00:15Z</time></trkpt>
<trkpt lat="46.67913141" lon="6.88914699"><ele>776.882568</ele><time>2008-04-28T10:00:19Z</time></trkpt>
<trkpt lat="46.67855264" lon="6.88852547"><ele>776.882568</ele><time>2008-04-28T10:00:37Z</time></trkpt>
<trkpt lat="46.67803715" lon="6.88795567"><ele>778.805176</ele><time>2008-04-28T10:00:53Z</time></trkpt>
<trkpt lat="46.67790145" lon="6.88780018"><ele>779.766357</ele><time>2008-04-28T10:00:57Z</time></trkpt>
<trkpt lat="46.67721421" lon="6.88706224"><ele>778.805176</ele><time>2008-04-28T10:01:17Z</time></trkpt>
<trkpt lat="46.67694298" lon="6.88677742"><ele>777.84375</ele><time>2008-04-28T10:01:24Z</time></trkpt>
<trkpt lat="46.67663553" lon="6.88645388"><ele>779.766357</ele><time>2008-04-28T10:01:32Z</time></trkpt>
<trkpt lat="46.67653553" lon="6.88623268"><ele>778.805176</ele><time>2008-04-28T10:01:36Z</time></trkpt>
<trkpt lat="46.67635457" lon="6.88601241"><ele>779.766357</ele><time>2008-04-28T10:01:41Z</time></trkpt>
<trkpt lat="46.67583011" lon="6.88545576"><ele>779.766357</ele><time>2008-04-28T10:01:55Z</time></trkpt>
<trkpt lat="46.67532636" lon="6.88546088"><ele>776.882568</ele><time>2008-04-28T10:02:05Z</time></trkpt>
<trkpt lat="46.67516434" lon="6.88544948"><ele>778.805176</ele><time>2008-04-28T10:02:08Z</time></trkpt>
<trkpt lat="46.67495722" lon="6.88539935"><ele>778.805176</ele><time>2008-04-28T10:02:12Z</time></trkpt>
<trkpt lat="46.67478623" lon="6.88538804"><ele>779.766357</ele><time>2008-04-28T10:02:16Z</time></trkpt>
<trkpt lat="46.67474180" lon="6.88549306"><ele>781.20874</ele><time>2008-04-28T10:02:18Z</time></trkpt>
<trkpt lat="46.67466276" lon="6.88589900"><ele>777.84375</ele><time>2008-04-28T10:02:23Z</time></trkpt>
<trkpt lat="46.67450661" lon="6.88708990"><ele>775.921143</ele><time>2008-04-28T10:02:36Z</time></trkpt>
<trkpt lat="46.67449018" lon="6.88741679"><ele>775.921143</ele><time>2008-04-28T10:02:40Z</time></trkpt>
<trkpt lat="46.67423269" lon="6.88811207"><ele>776.882568</ele><time>2008-04-28T10:02:54Z</time></trkpt>
<trkpt lat="46.67409900" lon="6.88837476"><ele>776.882568</ele><time>2008-04-28T10:02:59Z</time></trkpt>
<trkpt lat="46.67395608" lon="6.88858540"><ele>777.84375</ele><time>2008-04-28T10:03:04Z</time></trkpt>
<trkpt lat="46.67351830" lon="6.88920407"><ele>777.84375</ele><time>2008-04-28T10:03:22Z</time></trkpt>
<trkpt lat="46.67325938" lon="6.88961185"><ele>779.766357</ele><time>2008-04-28T10:03:37Z</time></trkpt>
<trkpt lat="46.67293659" lon="6.88983724"><ele>782.169922</ele><time>2008-04-28T10:03:55Z</time></trkpt>
<trkpt lat="46.67264004" lon="6.88989256"><ele>785.053955</ele><time>2008-04-28T10:04:10Z</time></trkpt>
<trkpt lat="46.67235179" lon="6.88981703"><ele>785.053955</ele><time>2008-04-28T10:04:25Z</time></trkpt>
<trkpt lat="46.67230678" lon="6.88980446"><ele>786.015137</ele><time>2008-04-28T10:04:27Z</time></trkpt>
<trkpt lat="46.67226168" lon="6.88977881"><ele>786.976318</ele><time>2008-04-28T10:04:29Z</time></trkpt>
<trkpt lat="46.67208139" lon="6.88970220"><ele>786.976318</ele><time>2008-04-28T10:04:38Z</time></trkpt>
<trkpt lat="46.67190101" lon="6.88959952"><ele>786.976318</ele><time>2008-04-28T10:04:47Z</time></trkpt>
<trkpt lat="46.67166648" lon="6.88947120"><ele>788.89917</ele><time>2008-04-28T10:04:59Z</time></trkpt>
<trkpt lat="46.67156733" lon="6.88943298"><ele>789.860352</ele><time>2008-04-28T10:05:04Z</time></trkpt>
<trkpt lat="46.67122526" lon="6.88938419"><ele>790.821533</ele><time>2008-04-28T10:05:21Z</time></trkpt>
<trkpt lat="46.67098110" lon="6.88911228"><ele>789.860352</ele><time>2008-04-28T10:05:33Z</time></trkpt>
<trkpt lat="46.67079041" lon="6.88874826"><ele>790.821533</ele><time>2008-04-28T10:05:45Z</time></trkpt>
<trkpt lat="46.67080793" lon="6.88864357"><ele>788.89917</ele><time>2008-04-28T10:05:48Z</time></trkpt>
<trkpt lat="46.67081639" lon="6.88853896"><ele>787.937744</ele><time>2008-04-28T10:05:51Z</time></trkpt>
<trkpt lat="46.67079812" lon="6.88848683"><ele>787.937744</ele><time>2008-04-28T10:06:00Z</time></trkpt>
<trkpt lat="46.67074246" lon="6.88813454"><ele>786.015137</ele><time>2008-04-28T10:06:12Z</time></trkpt>
<trkpt lat="46.67065948" lon="6.88771720"><ele>786.015137</ele><time>2008-04-28T10:06:19Z</time></trkpt>
<trkpt lat="46.67055588" lon="6.88676426"><ele>783.131104</ele><time>2008-04-28T10:06:36Z</time></trkpt>
<trkpt lat="46.67051909" lon="6.88658170"><ele>781.20874</ele><time>2008-04-28T10:06:39Z</time></trkpt>
<trkpt lat="46.67043585" lon="6.88612523"><ele>784.092529</ele><time>2008-04-28T10:06:48Z</time></trkpt>
<trkpt lat="46.67038774" lon="6.88547228"><ele>786.015137</ele><time>2008-04-28T10:07:05Z</time></trkpt>
<trkpt lat="46.67038757" lon="6.88544612"><ele>786.015137</ele><time>2008-04-28T10:07:06Z</time></trkpt>
<trkpt lat="46.67037626" lon="6.88496274"><ele>787.937744</ele><time>2008-04-28T10:07:21Z</time></trkpt>
<trkpt lat="46.67041020" lon="6.88454423"><ele>789.860352</ele><time>2008-04-28T10:07:35Z</time></trkpt>
<trkpt lat="46.67060609" lon="6.88412405"><ele>790.821533</ele><time>2008-04-28T10:07:51Z</time></trkpt>
<trkpt lat="46.67061313" lon="6.88373186"><ele>790.821533</ele><time>2008-04-28T10:08:02Z</time></trkpt>
<trkpt lat="46.67046737" lon="6.88335442"><ele>791.782959</ele><time>2008-04-28T10:08:12Z</time></trkpt>
<trkpt lat="46.67012287" lon="6.88279602"><ele>791.782959</ele><time>2008-04-28T10:08:28Z</time></trkpt>
<trkpt lat="46.66993311" lon="6.88262813"><ele>793.224854</ele><time>2008-04-28T10:08:36Z</time></trkpt>
<trkpt lat="46.66983437" lon="6.88266836"><ele>793.224854</ele><time>2008-04-28T10:08:40Z</time></trkpt>
<trkpt lat="46.66956682" lon="6.88315460"><ele>795.147461</ele><time>2008-04-28T10:08:54Z</time></trkpt>
<trkpt lat="46.66941536" lon="6.88344360"><ele>794.186279</ele><time>2008-04-28T10:09:01Z</time></trkpt>
<trkpt lat="46.66913968" lon="6.88409991"><ele>790.821533</ele><time>2008-04-28T10:09:10Z</time></trkpt>
<trkpt lat="46.66867750" lon="6.88525460"><ele>787.937744</ele><time>2008-04-28T10:09:23Z</time></trkpt>
<trkpt lat="46.66820509" lon="6.88616110"><ele>786.015137</ele><time>2008-04-28T10:09:34Z</time></trkpt>
<trkpt lat="46.66782112" lon="6.88675303"><ele>783.131104</ele><time>2008-04-28T10:09:41Z</time></trkpt>
<trkpt lat="46.66753546" lon="6.88720029"><ele>779.766357</ele><time>2008-04-28T10:09:46Z</time></trkpt>
<trkpt lat="46.66748199" lon="6.88730531"><ele>779.766357</ele><time>2008-04-28T10:09:47Z</time></trkpt>
<trkpt lat="46.66724092" lon="6.88767370"><ele>774.959961</ele><time>2008-04-28T10:09:51Z</time></trkpt>
<trkpt lat="46.66717839" lon="6.88776582"><ele>774.959961</ele><time>2008-04-28T10:09:52Z</time></trkpt>
<trkpt lat="46.66683004" lon="6.88827896"><ele>773.998535</ele><time>2008-04-28T10:09:58Z</time></trkpt>
<trkpt lat="46.66653508" lon="6.88868707"><ele>775.921143</ele><time>2008-04-28T10:10:06Z</time></trkpt>
<trkpt lat="46.66649854" lon="6.88856981"><ele>773.037354</ele><time>2008-04-28T10:10:08Z</time></trkpt>
<trkpt lat="46.66647130" lon="6.88850476"><ele>773.037354</ele><time>2008-04-28T10:10:09Z</time></trkpt>
<trkpt lat="46.66636216" lon="6.88825758"><ele>771.114746</ele><time>2008-04-28T10:10:12Z</time></trkpt>
<trkpt lat="46.66626242" lon="6.88810185"><ele>768.230713</ele><time>2008-04-28T10:10:14Z</time></trkpt>
<trkpt lat="46.66612680" lon="6.88795944"><ele>764.866211</ele><time>2008-04-28T10:10:16Z</time></trkpt>
<trkpt lat="46.66588331" lon="6.88783128"><ele>762.943359</ele><time>2008-04-28T10:10:19Z</time></trkpt>
<trkpt lat="46.66542364" lon="6.88765300"><ele>760.059326</ele><time>2008-04-28T10:10:24Z</time></trkpt>
<trkpt lat="46.66475024" lon="6.88790814"><ele>759.098145</ele><time>2008-04-28T10:10:32Z</time></trkpt>
<trkpt lat="46.66468771" lon="6.88801333"><ele>759.098145</ele><time>2008-04-28T10:10:33Z</time></trkpt>
<trkpt lat="46.66437515" lon="6.88847383"><ele>758.136963</ele><time>2008-04-28T10:10:38Z</time></trkpt>
<trkpt lat="46.66425965" lon="6.88878858"><ele>759.098145</ele><time>2008-04-28T10:10:41Z</time></trkpt>
<trkpt lat="46.66432452" lon="6.88917993"><ele>761.020752</ele><time>2008-04-28T10:10:45Z</time></trkpt>
<trkpt lat="46.66442435" lon="6.88936190"><ele>761.982178</ele><time>2008-04-28T10:10:48Z</time></trkpt>
<trkpt lat="46.66455117" lon="6.88954353"><ele>763.904541</ele><time>2008-04-28T10:10:52Z</time></trkpt>
<trkpt lat="46.66472350" lon="6.88984226"><ele>765.827637</ele><time>2008-04-28T10:11:03Z</time></trkpt>
<trkpt lat="46.66470649" lon="6.89003848"><ele>766.788818</ele><time>2008-04-28T10:11:11Z</time></trkpt>
<trkpt lat="46.66447305" lon="6.89013228"><ele>761.982178</ele><time>2008-04-28T10:11:16Z</time></trkpt>
<trkpt lat="46.66440088" lon="6.89009381"><ele>761.020752</ele><time>2008-04-28T10:11:17Z</time></trkpt>
<trkpt lat="46.66402177" lon="6.88982332"><ele>756.214111</ele><time>2008-04-28T10:11:22Z</time></trkpt>
<trkpt lat="46.66383225" lon="6.88969458"><ele>754.772217</ele><time>2008-04-28T10:11:25Z</time></trkpt>
<trkpt lat="46.66362656" lon="6.88994494"><ele>753.811035</ele><time>2008-04-28T10:11:31Z</time></trkpt>
<trkpt lat="46.66364500" lon="6.89003622"><ele>752.849609</ele><time>2008-04-28T10:11:32Z</time></trkpt>
<trkpt lat="46.66382723" lon="6.89051776"><ele>752.849609</ele><time>2008-04-28T10:11:37Z</time></trkpt>
<trkpt lat="46.66401708" lon="6.89071189"><ele>749.96582</ele><time>2008-04-28T10:11:40Z</time></trkpt>
<trkpt lat="46.66406225" lon="6.89075061"><ele>750.927002</ele><time>2008-04-28T10:11:41Z</time></trkpt>
<trkpt lat="46.66403652" lon="6.89102529"><ele>749.004395</ele><time>2008-04-28T10:11:47Z</time></trkpt>
<trkpt lat="46.66393711" lon="6.89092177"><ele>748.043213</ele><time>2008-04-28T10:11:49Z</time></trkpt>
<trkpt lat="46.66371105" lon="6.89067576"><ele>745.158936</ele><time>2008-04-28T10:11:53Z</time></trkpt>
<trkpt lat="46.66342154" lon="6.89033898"><ele>743.236328</ele><time>2008-04-28T10:11:58Z</time></trkpt>
<trkpt lat="46.66330570" lon="6.89057535"><ele>743.236328</ele><time>2008-04-28T10:12:04Z</time></trkpt>
<trkpt lat="46.66334200" lon="6.89064031"><ele>741.794434</ele><time>2008-04-28T10:12:05Z</time></trkpt>
<trkpt lat="46.66365950" lon="6.89118588"><ele>738.910645</ele><time>2008-04-28T10:12:12Z</time></trkpt>
<trkpt lat="46.66372287" lon="6.89126367"><ele>738.910645</ele><time>2008-04-28T10:12:13Z</time></trkpt>
<trkpt lat="46.66445528" lon="6.89205333"><ele>736.026611</ele><time>2008-04-28T10:12:24Z</time></trkpt>
<trkpt lat="46.66484370" lon="6.89238911"><ele>732.181396</ele><time>2008-04-28T10:12:29Z</time></trkpt>
<trkpt lat="46.66510580" lon="6.89263470"><ele>725.932617</ele><time>2008-04-28T10:12:32Z</time></trkpt>
<trkpt lat="46.66527746" lon="6.89278976"><ele>725.932617</ele><time>2008-04-28T10:12:34Z</time></trkpt>
<trkpt lat="46.66572925" lon="6.89321640"><ele>728.81665</ele><time>2008-04-28T10:12:40Z</time></trkpt>
<trkpt lat="46.66650608" lon="6.89387505"><ele>729.777832</ele><time>2008-04-28T10:12:52Z</time></trkpt>
<trkpt lat="46.66694823" lon="6.89417110"><ele>731.219971</ele><time>2008-04-28T10:12:59Z</time></trkpt>
<trkpt lat="46.66705661" lon="6.89426146"><ele>732.181396</ele><time>2008-04-28T10:13:01Z</time></trkpt>
<trkpt lat="46.66714730" lon="6.89440428"><ele>731.219971</ele><time>2008-04-28T10:13:03Z</time></trkpt>
<trkpt lat="46.66726506" lon="6.89457301"><ele>725.932617</ele><time>2008-04-28T10:13:05Z</time></trkpt>
<trkpt lat="46.66740068" lon="6.89472841"><ele>724.971436</ele><time>2008-04-28T10:13:07Z</time></trkpt>
<trkpt lat="46.66787937" lon="6.89512873"><ele>726.894043</ele><time>2008-04-28T10:13:14Z</time></trkpt>
<trkpt lat="46.66878219" lon="6.89579920"><ele>725.932617</ele><time>2008-04-28T10:13:28Z</time></trkpt>
<trkpt lat="46.66965852" lon="6.89660059"><ele>724.971436</ele><time>2008-04-28T10:13:42Z</time></trkpt>
<trkpt lat="46.66992900" lon="6.89671542"><ele>724.971436</ele><time>2008-04-28T10:13:46Z</time></trkpt>
<trkpt lat="46.67027006" lon="6.89655525"><ele>727.855225</ele><time>2008-04-28T10:13:52Z</time></trkpt>
<trkpt lat="46.67060265" lon="6.89649959"><ele>728.81665</ele><time>2008-04-28T10:13:59Z</time></trkpt>
<trkpt lat="46.67094531" lon="6.89667913"><ele>727.855225</ele><time>2008-04-28T10:14:05Z</time></trkpt>
<trkpt lat="46.67114588" lon="6.89723904"><ele>727.855225</ele><time>2008-04-28T10:14:13Z</time></trkpt>
<trkpt lat="46.67088998" lon="6.89828712"><ele>727.855225</ele><time>2008-04-28T10:14:26Z</time></trkpt>
<trkpt lat="46.67080189" lon="6.89867998"><ele>723.048828</ele><time>2008-04-28T10:14:30Z</time></trkpt>
<trkpt lat="46.67077540" lon="6.89878483"><ele>723.048828</ele><time>2008-04-28T10:14:31Z</time></trkpt>
<trkpt lat="46.67060743" lon="6.89941381"><ele>723.048828</ele><time>2008-04-28T10:14:37Z</time></trkpt>
<trkpt lat="46.67028406" lon="6.89950844"><ele>720.164795</ele><time>2008-04-28T10:14:43Z</time></trkpt>
<trkpt lat="46.66987779" lon="6.89919890"><ele>720.164795</ele><time>2008-04-28T10:14:50Z</time></trkpt>
<trkpt lat="46.66950932" lon="6.89928096"><ele>722.087402</ele><time>2008-04-28T10:14:57Z</time></trkpt>
<trkpt lat="46.66902929" lon="6.90048804"><ele>722.087402</ele><time>2008-04-28T10:15:14Z</time></trkpt>
<trkpt lat="46.66859334" lon="6.90151163"><ele>724.01001</ele><time>2008-04-28T10:15:32Z</time></trkpt>
<trkpt lat="46.66813879" lon="6.90241780"><ele>724.01001</ele><time>2008-04-28T10:15:49Z</time></trkpt>
<trkpt lat="46.66788029" lon="6.90291694"><ele>725.932617</ele><time>2008-04-28T10:15:59Z</time></trkpt>
<trkpt lat="46.66770989" lon="6.90303622"><ele>724.01001</ele><time>2008-04-28T10:16:04Z</time></trkpt>
<trkpt lat="46.66767376" lon="6.90301049"><ele>724.01001</ele><time>2008-04-28T10:16:05Z</time></trkpt>
<trkpt lat="46.66740261" lon="6.90272567"><ele>725.932617</ele><time>2008-04-28T10:16:13Z</time></trkpt>
<trkpt lat="46.66705920" lon="6.90240238"><ele>725.932617</ele><time>2008-04-28T10:16:24Z</time></trkpt>
<trkpt lat="46.66680615" lon="6.90214355"><ele>726.894043</ele><time>2008-04-28T10:16:32Z</time></trkpt>
<trkpt lat="46.66647130" lon="6.90171565"><ele>726.894043</ele><time>2008-04-28T10:16:43Z</time></trkpt>
<trkpt lat="46.66632646" lon="6.90152111"><ele>728.81665</ele><time>2008-04-28T10:16:48Z</time></trkpt>
<trkpt lat="46.66604533" lon="6.90105348"><ele>724.971436</ele><time>2008-04-28T10:16:59Z</time></trkpt>
<trkpt lat="46.66585531" lon="6.90080713"><ele>726.894043</ele><time>2008-04-28T10:17:06Z</time></trkpt>
<trkpt lat="46.66572028" lon="6.90079540"><ele>728.81665</ele><time>2008-04-28T10:17:10Z</time></trkpt>
<trkpt lat="46.66564886" lon="6.90091367"><ele>729.777832</ele><time>2008-04-28T10:17:13Z</time></trkpt>
<trkpt lat="46.66558701" lon="6.90113646"><ele>731.219971</ele><time>2008-04-28T10:17:17Z</time></trkpt>
<trkpt lat="46.66554317" lon="6.90138515"><ele>731.219971</ele><time>2008-04-28T10:17:21Z</time></trkpt>
<trkpt lat="46.66553588" lon="6.90175110"><ele>729.777832</ele><time>2008-04-28T10:17:26Z</time></trkpt>
<trkpt lat="46.66573687" lon="6.90240246"><ele>726.894043</ele><time>2008-04-28T10:17:33Z</time></trkpt>
<trkpt lat="46.66597283" lon="6.90284436"><ele>724.01001</ele><time>2008-04-28T10:17:37Z</time></trkpt>
<trkpt lat="46.66603644" lon="6.90297444"><ele>723.048828</ele><time>2008-04-28T10:17:38Z</time></trkpt>
<trkpt lat="46.66634473" lon="6.90349404"><ele>719.203613</ele><time>2008-04-28T10:17:42Z</time></trkpt>
<trkpt lat="46.66654472" lon="6.90393635"><ele>715.838867</ele><time>2008-04-28T10:17:45Z</time></trkpt>
<trkpt lat="46.66666400" lon="6.90444480"><ele>710.070801</ele><time>2008-04-28T10:17:48Z</time></trkpt>
<trkpt lat="46.66666576" lon="6.90482374"><ele>707.187012</ele><time>2008-04-28T10:17:50Z</time></trkpt>
<trkpt lat="46.66660457" lon="6.90519020"><ele>701.899902</ele><time>2008-04-28T10:17:52Z</time></trkpt>
<trkpt lat="46.66655143" lon="6.90537368"><ele>700.938477</ele><time>2008-04-28T10:17:53Z</time></trkpt>
<trkpt lat="46.66623283" lon="6.90650063"><ele>700.938477</ele><time>2008-04-28T10:18:00Z</time></trkpt>
<trkpt lat="46.66615312" lon="6.90676273"><ele>702.861084</ele><time>2008-04-28T10:18:03Z</time></trkpt>
<trkpt lat="46.66629905" lon="6.90719255"><ele>704.783691</ele><time>2008-04-28T10:18:11Z</time></trkpt>
<trkpt lat="46.66720857" lon="6.90740570"><ele>703.82251</ele><time>2008-04-28T10:18:25Z</time></trkpt>
<trkpt lat="46.66792832" lon="6.90741174"><ele>702.861084</ele><time>2008-04-28T10:18:35Z</time></trkpt>
<trkpt lat="46.66918779" lon="6.90742549"><ele>703.82251</ele><time>2008-04-28T10:18:52Z</time></trkpt>
<trkpt lat="46.66964661" lon="6.90743404"><ele>703.82251</ele><time>2008-04-28T10:18:59Z</time></trkpt>
<trkpt lat="46.66969238" lon="6.90761651"><ele>701.899902</ele><time>2008-04-28T10:19:05Z</time></trkpt>
<trkpt lat="46.66961183" lon="6.90769572"><ele>702.861084</ele><time>2008-04-28T10:19:07Z</time></trkpt>
<trkpt lat="46.66954025" lon="6.90778792"><ele>700.938477</ele><time>2008-04-28T10:19:09Z</time></trkpt>
<trkpt lat="46.66920011" lon="6.90814407"><ele>702.861084</ele><time>2008-04-28T10:19:17Z</time></trkpt>
<trkpt lat="46.66907480" lon="6.90828907"><ele>700.938477</ele><time>2008-04-28T10:19:20Z</time></trkpt>
<trkpt lat="46.66903004" lon="6.90832864"><ele>701.899902</ele><time>2008-04-28T10:19:21Z</time></trkpt>
<trkpt lat="46.66892292" lon="6.90851270"><ele>702.861084</ele><time>2008-04-28T10:19:24Z</time></trkpt>
<trkpt lat="46.66857767" lon="6.90970520"><ele>703.82251</ele><time>2008-04-28T10:19:40Z</time></trkpt>
<trkpt lat="46.66844767" lon="6.91077808"><ele>704.783691</ele><time>2008-04-28T10:19:55Z</time></trkpt>
<trkpt lat="46.66843928" lon="6.91090884"><ele>706.225586</ele><time>2008-04-28T10:19:57Z</time></trkpt>
<trkpt lat="46.66828942" lon="6.91156363"><ele>707.187012</ele><time>2008-04-28T10:20:12Z</time></trkpt>
<trkpt lat="46.66848807" lon="6.91173160"><ele>707.187012</ele><time>2008-04-28T10:20:15Z</time></trkpt>
<trkpt lat="46.66865051" lon="6.91184761"><ele>707.187012</ele><time>2008-04-28T10:20:24Z</time></trkpt>
<trkpt lat="46.66926406" lon="6.91223368"><ele>706.225586</ele><time>2008-04-28T10:20:42Z</time></trkpt>
<trkpt lat="46.67027425" lon="6.91282494"><ele>704.783691</ele><time>2008-04-28T10:20:58Z</time></trkpt>
<trkpt lat="46.67155526" lon="6.91360965"><ele>702.861084</ele><time>2008-04-28T10:21:18Z</time></trkpt>
<trkpt lat="46.67267382" lon="6.91427836"><ele>700.938477</ele><time>2008-04-28T10:21:35Z</time></trkpt>
<trkpt lat="46.67344068" lon="6.91475445"><ele>701.899902</ele><time>2008-04-28T10:21:49Z</time></trkpt>
<trkpt lat="46.67350397" lon="6.91481916"><ele>701.899902</ele><time>2008-04-28T10:21:52Z</time></trkpt>
<trkpt lat="46.67330858" lon="6.91538301"><ele>701.899902</ele><time>2008-04-28T10:22:04Z</time></trkpt>
<trkpt lat="46.67295277" lon="6.91624903"><ele>703.82251</ele><time>2008-04-28T10:22:22Z</time></trkpt>
<trkpt lat="46.67261473" lon="6.91708865"><ele>704.783691</ele><time>2008-04-28T10:22:39Z</time></trkpt>
<trkpt lat="46.67236562" lon="6.91769223"><ele>707.187012</ele><time>2008-04-28T10:22:52Z</time></trkpt>
<trkpt lat="46.67210779" lon="6.91834811"><ele>710.070801</ele><time>2008-04-28T10:23:06Z</time></trkpt>
<trkpt lat="46.67186748" lon="6.91891238"><ele>711.032227</ele><time>2008-04-28T10:23:20Z</time></trkpt>
<trkpt lat="46.67175232" lon="6.91931865"><ele>713.916016</ele><time>2008-04-28T10:23:30Z</time></trkpt>
<trkpt lat="46.67177972" lon="6.91939677"><ele>713.916016</ele><time>2008-04-28T10:23:32Z</time></trkpt>
<trkpt lat="46.67222212" lon="6.91975845"><ele>716.800293</ele><time>2008-04-28T10:23:48Z</time></trkpt>
<trkpt lat="46.67264633" lon="6.92006799"><ele>720.164795</ele><time>2008-04-28T10:24:03Z</time></trkpt>
<trkpt lat="46.67288094" lon="6.92022256"><ele>723.048828</ele><time>2008-04-28T10:24:12Z</time></trkpt>
<trkpt lat="46.67313365" lon="6.92040310"><ele>725.932617</ele><time>2008-04-28T10:24:22Z</time></trkpt>
<trkpt lat="46.67353976" lon="6.92068675"><ele>727.855225</ele><time>2008-04-28T10:24:38Z</time></trkpt>
<trkpt lat="46.67392792" lon="6.92098363"><ele>731.219971</ele><time>2008-04-28T10:24:54Z</time></trkpt>
<trkpt lat="46.67420805" lon="6.92126845"><ele>733.142578</ele><time>2008-04-28T10:25:06Z</time></trkpt>
<trkpt lat="46.67460526" lon="6.92157833"><ele>736.026611</ele><time>2008-04-28T10:25:22Z</time></trkpt>
<trkpt lat="46.67474071" lon="6.92169467"><ele>737.949219</ele><time>2008-04-28T10:25:28Z</time></trkpt>
<trkpt lat="46.67508412" lon="6.92203112"><ele>739.871826</ele><time>2008-04-28T10:25:43Z</time></trkpt>
<trkpt lat="46.67540096" lon="6.92247251"><ele>744.197754</ele><time>2008-04-28T10:25:58Z</time></trkpt>
<trkpt lat="46.67570019" lon="6.92300543"><ele>747.081543</ele><time>2008-04-28T10:26:15Z</time></trkpt>
<trkpt lat="46.67592701" lon="6.92342151"><ele>749.96582</ele><time>2008-04-28T10:26:28Z</time></trkpt>
<trkpt lat="46.67618081" lon="6.92385041"><ele>752.849609</ele><time>2008-04-28T10:26:42Z</time></trkpt>
<trkpt lat="46.67647082" lon="6.92433120"><ele>756.214111</ele><time>2008-04-28T10:26:57Z</time></trkpt>
<trkpt lat="46.67678749" lon="6.92473336"><ele>760.059326</ele><time>2008-04-28T10:27:12Z</time></trkpt>
<trkpt lat="46.67711321" lon="6.92514843"><ele>761.982178</ele><time>2008-04-28T10:27:27Z</time></trkpt>
<trkpt lat="46.67738445" lon="6.92545957"><ele>763.904541</ele><time>2008-04-28T10:27:41Z</time></trkpt>
<trkpt lat="46.67745687" lon="6.92555035"><ele>764.866211</ele><time>2008-04-28T10:27:44Z</time></trkpt>
<trkpt lat="46.67759283" lon="6.92577129"><ele>765.827637</ele><time>2008-04-28T10:27:56Z</time></trkpt>
<trkpt lat="46.67763792" lon="6.92581002"><ele>765.827637</ele><time>2008-04-28T10:27:59Z</time></trkpt>
<trkpt lat="46.67791620" lon="6.92567666"><ele>764.866211</ele><time>2008-04-28T10:28:10Z</time></trkpt>
<trkpt lat="46.67833060" lon="6.92580348"><ele>768.230713</ele><time>2008-04-28T10:28:23Z</time></trkpt>
<trkpt lat="46.67857384" lon="6.92587959"><ele>769.192139</ele><time>2008-04-28T10:28:31Z</time></trkpt>
<trkpt lat="46.67906938" lon="6.92605787"><ele>771.114746</ele><time>2008-04-28T10:28:48Z</time></trkpt>
<trkpt lat="46.67951957" lon="6.92615812"><ele>773.037354</ele><time>2008-04-28T10:29:03Z</time></trkpt>
<trkpt lat="46.68001587" lon="6.92649323"><ele>772.075928</ele><time>2008-04-28T10:29:17Z</time></trkpt>
<trkpt lat="46.68052188" lon="6.92698516"><ele>773.998535</ele><time>2008-04-28T10:29:33Z</time></trkpt>
<trkpt lat="46.68100124" lon="6.92756879"><ele>776.882568</ele><time>2008-04-28T10:29:50Z</time></trkpt>
<trkpt lat="46.68129176" lon="6.92815418"><ele>779.766357</ele><time>2008-04-28T10:30:04Z</time></trkpt>
<trkpt lat="46.68130995" lon="6.92820632"><ele>779.766357</ele><time>2008-04-28T10:30:05Z</time></trkpt>
<trkpt lat="46.68139402" lon="6.92889833"><ele>783.131104</ele><time>2008-04-28T10:30:20Z</time></trkpt>
<trkpt lat="46.68135077" lon="6.92929085"><ele>785.053955</ele><time>2008-04-28T10:30:33Z</time></trkpt>
<trkpt lat="46.68122672" lon="6.92971028"><ele>787.937744</ele><time>2008-04-28T10:30:48Z</time></trkpt>
<trkpt lat="46.68107584" lon="6.93016911"><ele>790.821533</ele><time>2008-04-28T10:31:04Z</time></trkpt>
<trkpt lat="46.68092480" lon="6.93060187"><ele>794.186279</ele><time>2008-04-28T10:31:19Z</time></trkpt>
<trkpt lat="46.68078323" lon="6.93112607"><ele>797.070313</ele><time>2008-04-28T10:31:37Z</time></trkpt>
<trkpt lat="46.68068642" lon="6.93159747"><ele>798.031738</ele><time>2008-04-28T10:31:52Z</time></trkpt>
<trkpt lat="46.68065272" lon="6.93212067"><ele>800.915527</ele><time>2008-04-28T10:32:08Z</time></trkpt>
<trkpt lat="46.68062825" lon="6.93269600"><ele>804.760742</ele><time>2008-04-28T10:32:26Z</time></trkpt>
<trkpt lat="46.68063956" lon="6.93321870"><ele>806.202637</ele><time>2008-04-28T10:32:42Z</time></trkpt>
<trkpt lat="46.68078599" lon="6.93377936"><ele>808.125488</ele><time>2008-04-28T10:33:01Z</time></trkpt>
<trkpt lat="46.68086009" lon="6.93424917"><ele>811.009277</ele><time>2008-04-28T10:33:17Z</time></trkpt>
<trkpt lat="46.68093410" lon="6.93471906"><ele>812.932129</ele><time>2008-04-28T10:33:32Z</time></trkpt>
<trkpt lat="46.68118757" lon="6.93508266"><ele>813.893311</ele><time>2008-04-28T10:33:48Z</time></trkpt>
<trkpt lat="46.68135144" lon="6.93551249"><ele>815.816162</ele><time>2008-04-28T10:34:03Z</time></trkpt>
<trkpt lat="46.68143425" lon="6.93592999"><ele>816.777344</ele><time>2008-04-28T10:34:16Z</time></trkpt>
<trkpt lat="46.68160809" lon="6.93659493"><ele>818.219238</ele><time>2008-04-28T10:34:31Z</time></trkpt>
<trkpt lat="46.68180071" lon="6.93744276"><ele>819.180664</ele><time>2008-04-28T10:34:50Z</time></trkpt>
<trkpt lat="46.68181001" lon="6.93752113"><ele>820.141846</ele><time>2008-04-28T10:34:52Z</time></trkpt>
<trkpt lat="46.68165939" lon="6.93803226"><ele>822.064453</ele><time>2008-04-28T10:35:05Z</time></trkpt>
<trkpt lat="46.68148161" lon="6.93853064"><ele>824.948486</ele><time>2008-04-28T10:35:18Z</time></trkpt>
<trkpt lat="46.68144791" lon="6.93904068"><ele>825.909668</ele><time>2008-04-28T10:35:32Z</time></trkpt>
<trkpt lat="46.68150365" lon="6.93944536"><ele>830.23584</ele><time>2008-04-28T10:35:46Z</time></trkpt>
<trkpt lat="46.68157716" lon="6.93981064"><ele>833.119629</ele><time>2008-04-28T10:36:00Z</time></trkpt>
<trkpt lat="46.68159560" lon="6.93990201"><ele>834.081055</ele><time>2008-04-28T10:36:04Z</time></trkpt>
<trkpt lat="46.68168688" lon="6.94021482"><ele>836.964844</ele><time>2008-04-28T10:36:17Z</time></trkpt>
<trkpt lat="46.68183231" lon="6.94055337"><ele>838.887695</ele><time>2008-04-28T10:36:32Z</time></trkpt>
<trkpt lat="46.68197757" lon="6.94085260"><ele>840.810059</ele><time>2008-04-28T10:36:45Z</time></trkpt>
<trkpt lat="46.68206876" lon="6.94113934"><ele>843.213379</ele><time>2008-04-28T10:36:58Z</time></trkpt>
<trkpt lat="46.68209701" lon="6.94142668"><ele>846.097656</ele><time>2008-04-28T10:37:09Z</time></trkpt>
<trkpt lat="46.68218846" lon="6.94177872"><ele>848.020264</ele><time>2008-04-28T10:37:22Z</time></trkpt>
<trkpt lat="46.68222525" lon="6.94196136"><ele>848.981445</ele><time>2008-04-28T10:37:29Z</time></trkpt>
<trkpt lat="46.68235291" lon="6.94235237"><ele>851.865479</ele><time>2008-04-28T10:37:45Z</time></trkpt>
<trkpt lat="46.68252482" lon="6.94258606"><ele>853.788086</ele><time>2008-04-28T10:37:58Z</time></trkpt>
<trkpt lat="46.68268735" lon="6.94271523"><ele>852.82666</ele><time>2008-04-28T10:39:45Z</time></trkpt>
<trkpt lat="46.68280469" lon="6.94281874"><ele>851.865479</ele><time>2008-04-28T10:39:59Z</time></trkpt>
<trkpt lat="46.68291299" lon="6.94288312"><ele>851.865479</ele><time>2008-04-28T10:40:10Z</time></trkpt>
<trkpt lat="46.68298474" lon="6.94284322"><ele>851.865479</ele><time>2008-04-28T10:40:15Z</time></trkpt>
<trkpt lat="46.68315615" lon="6.94294623"><ele>848.020264</ele><time>2008-04-28T10:40:34Z</time></trkpt>
<trkpt lat="46.68317408" lon="6.94293299"><ele>853.788086</ele><time>2008-04-28T10:40:35Z</time></trkpt>
<trkpt lat="46.68319202" lon="6.94293282"><ele>850.904053</ele><time>2008-04-28T10:40:38Z</time></trkpt>
<trkpt lat="46.68326427" lon="6.94299753"><ele>851.865479</ele><time>2008-04-28T10:40:47Z</time></trkpt>
<trkpt lat="46.68339050" lon="6.94306173"><ele>851.865479</ele><time>2008-04-28T10:40:59Z</time></trkpt>
<trkpt lat="46.68344440" lon="6.94303508"><ele>851.865479</ele><time>2008-04-28T10:41:18Z</time></trkpt>
<trkpt lat="46.68346250" lon="6.94306106"><ele>851.865479</ele><time>2008-04-28T10:41:30Z</time></trkpt>
<trkpt lat="46.68348966" lon="6.94310004"><ele>851.865479</ele><time>2008-04-28T10:41:34Z</time></trkpt>
<trkpt lat="46.68356200" lon="6.94319090"><ele>852.82666</ele><time>2008-04-28T10:41:58Z</time></trkpt>
<trkpt lat="46.68359930" lon="6.94349114"><ele>853.788086</ele><time>2008-04-28T10:42:19Z</time></trkpt>
<trkpt lat="46.68359175" lon="6.94383111"><ele>856.191162</ele><time>2008-04-28T10:42:30Z</time></trkpt>
<trkpt lat="46.68356552" lon="6.94400126"><ele>857.152588</ele><time>2008-04-28T10:42:35Z</time></trkpt>
<trkpt lat="46.68349452" lon="6.94423721"><ele>858.114014</ele><time>2008-04-28T10:42:41Z</time></trkpt>
<trkpt lat="46.68345907" lon="6.94434207"><ele>858.114014</ele><time>2008-04-28T10:42:43Z</time></trkpt>
<trkpt lat="46.68349620" lon="6.94461624"><ele>860.036621</ele><time>2008-04-28T10:42:50Z</time></trkpt>
<trkpt lat="46.68347910" lon="6.94482554"><ele>860.998047</ele><time>2008-04-28T10:42:55Z</time></trkpt>
<trkpt lat="46.68346150" lon="6.94490408"><ele>861.959473</ele><time>2008-04-28T10:42:58Z</time></trkpt>
<trkpt lat="46.68342629" lon="6.94508747"><ele>860.998047</ele><time>2008-04-28T10:43:06Z</time></trkpt>
<trkpt lat="46.68348086" lon="6.94523072"><ele>860.998047</ele><time>2008-04-28T10:43:14Z</time></trkpt>
<trkpt lat="46.68340978" lon="6.94544052"><ele>859.075195</ele><time>2008-04-28T10:43:21Z</time></trkpt>
<trkpt lat="46.68326704" lon="6.94571628"><ele>856.191162</ele><time>2008-04-28T10:43:30Z</time></trkpt>
<trkpt lat="46.68309730" lon="6.94597931"><ele>852.82666</ele><time>2008-04-28T10:43:39Z</time></trkpt>
<trkpt lat="46.68303469" lon="6.94605826"><ele>848.981445</ele><time>2008-04-28T10:43:42Z</time></trkpt>
<trkpt lat="46.68299966" lon="6.94629388"><ele>848.981445</ele><time>2008-04-28T10:43:43Z</time></trkpt>
<trkpt lat="46.68299178" lon="6.94654232"><ele>846.097656</ele><time>2008-04-28T10:43:52Z</time></trkpt>
<trkpt lat="46.68279480" lon="6.94676628"><ele>844.175049</ele><time>2008-04-28T10:43:56Z</time></trkpt>
<trkpt lat="46.68270587" lon="6.94698933"><ele>843.213379</ele><time>2008-04-28T10:44:00Z</time></trkpt>
<trkpt lat="46.68258961" lon="6.94714724"><ele>841.771484</ele><time>2008-04-28T10:44:03Z</time></trkpt>
<trkpt lat="46.68253681" lon="6.94743524"><ele>837.92627</ele><time>2008-04-28T10:44:09Z</time></trkpt>
<trkpt lat="46.68241242" lon="6.94778929"><ele>836.003662</ele><time>2008-04-28T10:44:18Z</time></trkpt>
<trkpt lat="46.68246682" lon="6.94789340"><ele>834.081055</ele><time>2008-04-28T10:44:22Z</time></trkpt>
<trkpt lat="46.68258467" lon="6.94808836"><ele>830.23584</ele><time>2008-04-28T10:44:27Z</time></trkpt>
<trkpt lat="46.68280184" lon="6.94840008"><ele>825.909668</ele><time>2008-04-28T10:44:35Z</time></trkpt>
<trkpt lat="46.68285616" lon="6.94847804"><ele>824.948486</ele><time>2008-04-28T10:44:37Z</time></trkpt>
<trkpt lat="46.68296479" lon="6.94863394"><ele>822.064453</ele><time>2008-04-28T10:44:41Z</time></trkpt>
<trkpt lat="46.68299194" lon="6.94867291"><ele>822.064453</ele><time>2008-04-28T10:44:42Z</time></trkpt>
<trkpt lat="46.68316402" lon="6.94894583"><ele>820.141846</ele><time>2008-04-28T10:44:49Z</time></trkpt>
<trkpt lat="46.68326352" lon="6.94907567"><ele>818.219238</ele><time>2008-04-28T10:44:53Z</time></trkpt>
<trkpt lat="46.68326419" lon="6.94921941"><ele>814.854736</ele><time>2008-04-28T10:44:56Z</time></trkpt>
<trkpt lat="46.68324642" lon="6.94928496"><ele>813.893311</ele><time>2008-04-28T10:44:57Z</time></trkpt>
<trkpt lat="46.68326586" lon="6.94961152"><ele>811.009277</ele><time>2008-04-28T10:45:03Z</time></trkpt>
<trkpt lat="46.68330199" lon="6.94965041"><ele>811.009277</ele><time>2008-04-28T10:45:18Z</time></trkpt>
<trkpt lat="46.68328405" lon="6.94966366"><ele>808.125488</ele><time>2008-04-28T10:51:03Z</time></trkpt>
<trkpt lat="46.68328405" lon="6.94966366"><ele>811.970703</ele><time>2008-04-28T10:51:04Z</time></trkpt>
<trkpt lat="46.68328405" lon="6.94966366"><ele>810.047852</ele><time>2008-04-28T10:51:06Z</time></trkpt>
<trkpt lat="46.68333854" lon="6.94978083"><ele>808.125488</ele><time>2008-04-28T10:51:10Z</time></trkpt>
<trkpt lat="46.68346535" lon="6.94998879"><ele>804.760742</ele><time>2008-04-28T10:51:14Z</time></trkpt>
<trkpt lat="46.68354674" lon="6.95009264"><ele>800.915527</ele><time>2008-04-28T10:51:16Z</time></trkpt>
<trkpt lat="46.68364649" lon="6.95026162"><ele>799.954346</ele><time>2008-04-28T10:51:18Z</time></trkpt>
<trkpt lat="46.68378244" lon="6.95050880"><ele>798.031738</ele><time>2008-04-28T10:51:20Z</time></trkpt>
<trkpt lat="46.68397238" lon="6.95074232"><ele>796.109131</ele><time>2008-04-28T10:51:23Z</time></trkpt>
<trkpt lat="46.68408067" lon="6.95081977"><ele>794.186279</ele><time>2008-04-28T10:51:25Z</time></trkpt>
<trkpt lat="46.68412576" lon="6.95085858"><ele>794.186279</ele><time>2008-04-28T10:51:26Z</time></trkpt>
<trkpt lat="46.68427027" lon="6.95098800"><ele>791.782959</ele><time>2008-04-28T10:51:30Z</time></trkpt>
<trkpt lat="46.68434344" lon="6.95126183"><ele>786.976318</ele><time>2008-04-28T10:51:35Z</time></trkpt>
<trkpt lat="46.68429852" lon="6.95127533"><ele>786.015137</ele><time>2008-04-28T10:51:37Z</time></trkpt>
<trkpt lat="46.68419961" lon="6.95130232"><ele>783.131104</ele><time>2008-04-28T10:51:40Z</time></trkpt>
<trkpt lat="46.68390356" lon="6.95147499"><ele>779.766357</ele><time>2008-04-28T10:51:47Z</time></trkpt>
<trkpt lat="46.68398528" lon="6.95165721"><ele>775.921143</ele><time>2008-04-28T10:51:50Z</time></trkpt>
<trkpt lat="46.68403943" lon="6.95170901"><ele>775.921143</ele><time>2008-04-28T10:51:51Z</time></trkpt>
<trkpt lat="46.68433732" lon="6.95195468"><ele>772.075928</ele><time>2008-04-28T10:51:55Z</time></trkpt>
<trkpt lat="46.68456322" lon="6.95218795"><ele>771.114746</ele><time>2008-04-28T10:51:59Z</time></trkpt>
<trkpt lat="46.68474452" lon="6.95251308"><ele>765.827637</ele><time>2008-04-28T10:52:05Z</time></trkpt>
<trkpt lat="46.68474494" lon="6.95260461"><ele>762.943359</ele><time>2008-04-28T10:52:06Z</time></trkpt>
<trkpt lat="46.68473689" lon="6.95282690"><ele>761.020752</ele><time>2008-04-28T10:52:08Z</time></trkpt>
<trkpt lat="46.68469297" lon="6.95307559"><ele>758.136963</ele><time>2008-04-28T10:52:10Z</time></trkpt>
<trkpt lat="46.68459565" lon="6.95345555"><ele>757.175537</ele><time>2008-04-28T10:52:13Z</time></trkpt>
<trkpt lat="46.68455173" lon="6.95370432"><ele>754.772217</ele><time>2008-04-28T10:52:15Z</time></trkpt>
<trkpt lat="46.68432877" lon="6.95416382"><ele>753.811035</ele><time>2008-04-28T10:52:20Z</time></trkpt>
<trkpt lat="46.68419441" lon="6.95429575"><ele>752.849609</ele><time>2008-04-28T10:52:22Z</time></trkpt>
<trkpt lat="46.68404236" lon="6.95450622"><ele>753.811035</ele><time>2008-04-28T10:52:25Z</time></trkpt>
<trkpt lat="46.68395301" lon="6.95465080"><ele>753.811035</ele><time>2008-04-28T10:52:28Z</time></trkpt>
<trkpt lat="46.68399869" lon="6.95482037"><ele>753.811035</ele><time>2008-04-28T10:52:32Z</time></trkpt>
<trkpt lat="46.68440463" lon="6.95507811"><ele>749.96582</ele><time>2008-04-28T10:52:41Z</time></trkpt>
<trkpt lat="46.68486463" lon="6.95536159"><ele>749.004395</ele><time>2008-04-28T10:52:49Z</time></trkpt>
<trkpt lat="46.68484770" lon="6.95562319"><ele>753.811035</ele><time>2008-04-28T10:52:58Z</time></trkpt>
<trkpt lat="46.68477620" lon="6.95572838"><ele>745.158936</ele><time>2008-04-28T10:53:17Z</time></trkpt>
<trkpt lat="46.68472331" lon="6.95599032"><ele>745.158936</ele><time>2008-04-28T10:53:20Z</time></trkpt>
<trkpt lat="46.68470629" lon="6.95621269"><ele>743.236328</ele><time>2008-04-28T10:53:23Z</time></trkpt>
<trkpt lat="46.68458040" lon="6.95622685"><ele>740.833008</ele><time>2008-04-28T10:53:26Z</time></trkpt>
<trkpt lat="46.68419332" lon="6.95616500"><ele>738.910645</ele><time>2008-04-28T10:53:32Z</time></trkpt>
<trkpt lat="46.68400473" lon="6.95623205"><ele>737.949219</ele><time>2008-04-28T10:53:35Z</time></trkpt>
<trkpt lat="46.68382636" lon="6.95659960"><ele>738.910645</ele><time>2008-04-28T10:53:41Z</time></trkpt>
<trkpt lat="46.68372092" lon="6.95720184"><ele>740.833008</ele><time>2008-04-28T10:53:53Z</time></trkpt>
<trkpt lat="46.68371363" lon="6.95760710"><ele>741.794434</ele><time>2008-04-28T10:54:05Z</time></trkpt>
<trkpt lat="46.68372452" lon="6.95805143"><ele>744.197754</ele><time>2008-04-28T10:54:19Z</time></trkpt>
<trkpt lat="46.68370826" lon="6.95845678"><ele>748.043213</ele><time>2008-04-28T10:54:34Z</time></trkpt>
<trkpt lat="46.68367323" lon="6.95869239"><ele>750.927002</ele><time>2008-04-28T10:54:47Z</time></trkpt>
<trkpt lat="46.68365596" lon="6.95886246"><ele>750.927002</ele><time>2008-04-28T10:54:57Z</time></trkpt>
<trkpt lat="46.68363861" lon="6.95901945"><ele>753.811035</ele><time>2008-04-28T10:55:06Z</time></trkpt>
<trkpt lat="46.68362101" lon="6.95911115"><ele>754.772217</ele><time>2008-04-28T10:55:11Z</time></trkpt>
<trkpt lat="46.68363048" lon="6.95921559"><ele>756.214111</ele><time>2008-04-28T10:55:15Z</time></trkpt>
<trkpt lat="46.68367675" lon="6.95951583"><ele>760.059326</ele><time>2008-04-28T10:55:31Z</time></trkpt>
<trkpt lat="46.68365940" lon="6.95968590"><ele>760.059326</ele><time>2008-04-28T10:55:42Z</time></trkpt>
<trkpt lat="46.68365051" lon="6.95971213"><ele>761.020752</ele><time>2008-04-28T10:55:47Z</time></trkpt>
<trkpt lat="46.68363308" lon="6.95982990"><ele>762.943359</ele><time>2008-04-28T10:56:01Z</time></trkpt>
<trkpt lat="46.68363341" lon="6.95992143"><ele>765.827637</ele><time>2008-04-28T10:56:15Z</time></trkpt>
<trkpt lat="46.68360684" lon="6.96001313"><ele>768.230713</ele><time>2008-04-28T10:56:27Z</time></trkpt>
<trkpt lat="46.68360768" lon="6.96020918"><ele>769.192139</ele><time>2008-04-28T10:56:39Z</time></trkpt>
<trkpt lat="46.68358153" lon="6.96041856"><ele>771.114746</ele><time>2008-04-28T10:56:55Z</time></trkpt>
<trkpt lat="46.68351011" lon="6.96054990"><ele>772.075928</ele><time>2008-04-28T10:57:10Z</time></trkpt>
<trkpt lat="46.68340249" lon="6.96062928"><ele>774.959961</ele><time>2008-04-28T10:57:26Z</time></trkpt>
<trkpt lat="46.68330350" lon="6.96060405"><ele>775.921143</ele><time>2008-04-28T10:57:41Z</time></trkpt>
<trkpt lat="46.68315925" lon="6.96053993"><ele>778.805176</ele><time>2008-04-28T10:58:02Z</time></trkpt>
<trkpt lat="46.68308716" lon="6.96050137"><ele>781.20874</ele><time>2008-04-28T10:58:13Z</time></trkpt>
<trkpt lat="46.68297895" lon="6.96043700"><ele>783.131104</ele><time>2008-04-28T10:58:26Z</time></trkpt>
<trkpt lat="46.68293377" lon="6.96039819"><ele>783.131104</ele><time>2008-04-28T10:58:33Z</time></trkpt>
<trkpt lat="46.68279841" lon="6.96029484"><ele>785.053955</ele><time>2008-04-28T10:58:52Z</time></trkpt>
<trkpt lat="46.68277133" lon="6.96028202"><ele>786.015137</ele><time>2008-04-28T10:58:55Z</time></trkpt>
<trkpt lat="46.68265407" lon="6.96020457"><ele>786.976318</ele><time>2008-04-28T10:59:16Z</time></trkpt>
<trkpt lat="46.68239272" lon="6.96007624"><ele>787.937744</ele><time>2008-04-28T10:59:30Z</time></trkpt>
<trkpt lat="46.68214956" lon="6.96002604"><ele>788.89917</ele><time>2008-04-28T10:59:42Z</time></trkpt>
<trkpt lat="46.68192518" lon="6.96014573"><ele>790.821533</ele><time>2008-04-28T10:59:54Z</time></trkpt>
<trkpt lat="46.68189869" lon="6.96026358"><ele>788.89917</ele><time>2008-04-28T10:59:57Z</time></trkpt>
<trkpt lat="46.68189961" lon="6.96047271"><ele>788.89917</ele><time>2008-04-28T11:00:02Z</time></trkpt>
<trkpt lat="46.68184748" lon="6.96091753"><ele>788.89917</ele><time>2008-04-28T11:00:14Z</time></trkpt>
<trkpt lat="46.68184756" lon="6.96093061"><ele>788.89917</ele><time>2008-04-28T11:00:15Z</time></trkpt>
<trkpt lat="46.68183918" lon="6.96108752"><ele>787.937744</ele><time>2008-04-28T11:00:27Z</time></trkpt>
<trkpt lat="46.68193993" lon="6.96150494"><ele>787.937744</ele><time>2008-04-28T11:00:38Z</time></trkpt>
<trkpt lat="46.68205812" lon="6.96180451"><ele>787.937744</ele><time>2008-04-28T11:00:44Z</time></trkpt>
<trkpt lat="46.68210397" lon="6.96201322"><ele>787.937744</ele><time>2008-04-28T11:00:48Z</time></trkpt>
<trkpt lat="46.68192744" lon="6.96283825"><ele>788.89917</ele><time>2008-04-28T11:01:03Z</time></trkpt>
<trkpt lat="46.68172318" lon="6.96346748"><ele>788.89917</ele><time>2008-04-28T11:01:15Z</time></trkpt>
<trkpt lat="46.68159728" lon="6.96346857"><ele>786.015137</ele><time>2008-04-28T11:01:19Z</time></trkpt>
<trkpt lat="46.68070461" lon="6.96296666"><ele>787.937744</ele><time>2008-04-28T11:01:41Z</time></trkpt>
<trkpt lat="46.67995627" lon="6.96256810"><ele>788.89917</ele><time>2008-04-28T11:01:57Z</time></trkpt>
<trkpt lat="46.67924431" lon="6.96224757"><ele>789.860352</ele><time>2008-04-28T11:02:13Z</time></trkpt>
<trkpt lat="46.67920819" lon="6.96222176"><ele>790.821533</ele><time>2008-04-28T11:02:14Z</time></trkpt>
<trkpt lat="46.67873033" lon="6.96196460"><ele>791.782959</ele><time>2008-04-28T11:02:26Z</time></trkpt>
<trkpt lat="46.67857745" lon="6.96197902"><ele>795.147461</ele><time>2008-04-28T11:02:30Z</time></trkpt>
<trkpt lat="46.67855121" lon="6.96214917"><ele>797.070313</ele><time>2008-04-28T11:02:33Z</time></trkpt>
<trkpt lat="46.67859731" lon="6.96242326"><ele>797.070313</ele><time>2008-04-28T11:02:37Z</time></trkpt>
<trkpt lat="46.67864517" lon="6.96311552"><ele>798.031738</ele><time>2008-04-28T11:02:49Z</time></trkpt>
<trkpt lat="46.67866562" lon="6.96369044"><ele>801.876953</ele><time>2008-04-28T11:03:03Z</time></trkpt>
<trkpt lat="46.67849623" lon="6.96407097"><ele>804.760742</ele><time>2008-04-28T11:03:18Z</time></trkpt>
<trkpt lat="46.67828148" lon="6.96434733"><ele>808.125488</ele><time>2008-04-28T11:03:32Z</time></trkpt>
<trkpt lat="46.67801259" lon="6.96457188"><ele>811.970703</ele><time>2008-04-28T11:03:48Z</time></trkpt>
<trkpt lat="46.67775267" lon="6.96480942"><ele>813.893311</ele><time>2008-04-28T11:04:04Z</time></trkpt>
<trkpt lat="46.67743918" lon="6.96513891"><ele>816.777344</ele><time>2008-04-28T11:04:24Z</time></trkpt>
<trkpt lat="46.67726073" lon="6.96549330"><ele>820.141846</ele><time>2008-04-28T11:04:40Z</time></trkpt>
<trkpt lat="46.67713668" lon="6.96593880"><ele>822.064453</ele><time>2008-04-28T11:04:56Z</time></trkpt>
<trkpt lat="46.67708488" lon="6.96646200"><ele>823.987061</ele><time>2008-04-28T11:05:14Z</time></trkpt>
<trkpt lat="46.67707751" lon="6.96686726"><ele>827.832275</ele><time>2008-04-28T11:05:28Z</time></trkpt>
<trkpt lat="46.67702554" lon="6.96733824"><ele>831.197266</ele><time>2008-04-28T11:05:44Z</time></trkpt>
<trkpt lat="46.67696435" lon="6.96778307"><ele>834.081055</ele><time>2008-04-28T11:06:00Z</time></trkpt>
<trkpt lat="46.67692110" lon="6.96820174"><ele>836.964844</ele><time>2008-04-28T11:06:16Z</time></trkpt>
<trkpt lat="46.67694951" lon="6.96854129"><ele>839.848877</ele><time>2008-04-28T11:06:29Z</time></trkpt>
<trkpt lat="46.67695119" lon="6.96894639"><ele>841.771484</ele><time>2008-04-28T11:06:44Z</time></trkpt>
<trkpt lat="46.67697902" lon="6.96914219"><ele>845.13623</ele><time>2008-04-28T11:06:51Z</time></trkpt>
<trkpt lat="46.67698111" lon="6.96966497"><ele>848.020264</ele><time>2008-04-28T11:07:10Z</time></trkpt>
<trkpt lat="46.67697357" lon="6.97001793"><ele>849.942871</ele><time>2008-04-28T11:07:23Z</time></trkpt>
<trkpt lat="46.67697374" lon="6.97004409"><ele>849.942871</ele><time>2008-04-28T11:07:24Z</time></trkpt>
<trkpt lat="46.67703819" lon="6.97042253"><ele>852.82666</ele><time>2008-04-28T11:07:38Z</time></trkpt>
<trkpt lat="46.67714791" lon="6.97085286"><ele>853.788086</ele><time>2008-04-28T11:07:54Z</time></trkpt>
<trkpt lat="46.67716744" lon="6.97121864"><ele>857.152588</ele><time>2008-04-28T11:08:08Z</time></trkpt>
<trkpt lat="46.67738370" lon="6.97130824"><ele>860.036621</ele><time>2008-04-28T11:08:20Z</time></trkpt>
<trkpt lat="46.67770707" lon="6.97120096"><ele>860.036621</ele><time>2008-04-28T11:08:34Z</time></trkpt>
<trkpt lat="46.67821066" lon="6.97114429"><ele>860.036621</ele><time>2008-04-28T11:08:48Z</time></trkpt>
<trkpt lat="46.67844426" lon="6.97107690"><ele>860.036621</ele><time>2008-04-28T11:08:53Z</time></trkpt>
<trkpt lat="46.67866856" lon="6.97094430"><ele>856.191162</ele><time>2008-04-28T11:08:57Z</time></trkpt>
<trkpt lat="46.67889286" lon="6.97078547"><ele>855.22998</ele><time>2008-04-28T11:09:01Z</time></trkpt>
<trkpt lat="46.67933375" lon="6.97082084"><ele>853.788086</ele><time>2008-04-28T11:09:08Z</time></trkpt>
<trkpt lat="46.67955067" lon="6.97106735"><ele>853.788086</ele><time>2008-04-28T11:09:12Z</time></trkpt>
<trkpt lat="46.67996415" lon="6.97099837"><ele>852.82666</ele><time>2008-04-28T11:09:19Z</time></trkpt>
<trkpt lat="46.68031401" lon="6.97076007"><ele>853.788086</ele><time>2008-04-28T11:09:26Z</time></trkpt>
<trkpt lat="46.68063780" lon="6.97074423"><ele>856.191162</ele><time>2008-04-28T11:09:37Z</time></trkpt>
<trkpt lat="46.68079932" lon="6.97065135"><ele>859.075195</ele><time>2008-04-28T11:09:46Z</time></trkpt>
<trkpt lat="46.68104164" lon="6.97050543"><ele>860.998047</ele><time>2008-04-28T11:09:57Z</time></trkpt>
<trkpt lat="46.68129302" lon="6.97038565"><ele>862.920654</ele><time>2008-04-28T11:10:10Z</time></trkpt>
<trkpt lat="46.68149955" lon="6.97029236"><ele>865.804688</ele><time>2008-04-28T11:10:23Z</time></trkpt>
<trkpt lat="46.68168831" lon="6.97025154"><ele>870.130371</ele><time>2008-04-28T11:10:34Z</time></trkpt>
<trkpt lat="46.68187749" lon="6.97032832"><ele>873.014404</ele><time>2008-04-28T11:10:47Z</time></trkpt>
<trkpt lat="46.68195871" lon="6.97039294"><ele>873.975586</ele><time>2008-04-28T11:10:53Z</time></trkpt>
<trkpt lat="46.68209433" lon="6.97056167"><ele>874.937012</ele><time>2008-04-28T11:11:05Z</time></trkpt>
<trkpt lat="46.68214847" lon="6.97060039"><ele>875.898193</ele><time>2008-04-28T11:11:09Z</time></trkpt>
<trkpt lat="46.68236498" lon="6.97074230"><ele>877.821045</ele><time>2008-04-28T11:11:25Z</time></trkpt>
<trkpt lat="46.68263521" lon="6.97083148"><ele>878.782471</ele><time>2008-04-28T11:11:40Z</time></trkpt>
<trkpt lat="46.68296864" lon="6.97097238"><ele>880.224365</ele><time>2008-04-28T11:11:58Z</time></trkpt>
<trkpt lat="46.68336519" lon="6.97116500"><ele>880.224365</ele><time>2008-04-28T11:12:17Z</time></trkpt>
<trkpt lat="46.68339218" lon="6.97116483"><ele>880.224365</ele><time>2008-04-28T11:12:18Z</time></trkpt>
<trkpt lat="46.68356250" lon="6.97101957"><ele>880.224365</ele><time>2008-04-28T11:12:24Z</time></trkpt>
<trkpt lat="46.68388663" lon="6.97108210"><ele>880.224365</ele><time>2008-04-28T11:12:34Z</time></trkpt>
<trkpt lat="46.68448124" lon="6.97129911"><ele>880.224365</ele><time>2008-04-28T11:12:51Z</time></trkpt>
<trkpt lat="46.68473312" lon="6.97129693"><ele>881.185791</ele><time>2008-04-28T11:13:01Z</time></trkpt>
<trkpt lat="46.68474217" lon="6.97130992"><ele>883.108154</ele><time>2008-04-28T11:13:28Z</time></trkpt>
<trkpt lat="46.68473320" lon="6.97131000"><ele>885.992188</ele><time>2008-04-28T11:14:12Z</time></trkpt>
<trkpt lat="46.68473320" lon="6.97131000"><ele>889.837402</ele><time>2008-04-28T11:15:18Z</time></trkpt>
<trkpt lat="46.68474209" lon="6.97129693"><ele>893.202148</ele><time>2008-04-28T11:17:31Z</time></trkpt>
<trkpt lat="46.68474217" lon="6.97130992"><ele>896.086182</ele><time>2008-04-28T11:19:36Z</time></trkpt>
<trkpt lat="46.68474217" lon="6.97130992"><ele>898.969971</ele><time>2008-04-28T11:21:37Z</time></trkpt>
<trkpt lat="46.68475114" lon="6.97129685"><ele>896.086182</ele><time>2008-04-28T11:26:25Z</time></trkpt>
<trkpt lat="46.68475114" lon="6.97129685"><ele>886.953369</ele><time>2008-04-28T11:27:43Z</time></trkpt>
<trkpt lat="46.68475114" lon="6.97129685"><ele>895.124756</ele><time>2008-04-28T11:27:44Z</time></trkpt>
<trkpt lat="46.68492230" lon="6.97136072"><ele>895.124756</ele><time>2008-04-28T11:27:56Z</time></trkpt>
<trkpt lat="46.68530032" lon="6.97142274"><ele>894.163574</ele><time>2008-04-28T11:28:07Z</time></trkpt>
<trkpt lat="46.68558857" lon="6.97151176"><ele>894.163574</ele><time>2008-04-28T11:28:15Z</time></trkpt>
<trkpt lat="46.68582343" lon="6.97174503"><ele>894.163574</ele><time>2008-04-28T11:28:20Z</time></trkpt>
<trkpt lat="46.68603131" lon="6.97199162"><ele>893.202148</ele><time>2008-04-28T11:28:29Z</time></trkpt>
<trkpt lat="46.68627530" lon="6.97226403"><ele>893.202148</ele><time>2008-04-28T11:28:38Z</time></trkpt>
<trkpt lat="46.68650153" lon="6.97257576"><ele>893.202148</ele><time>2008-04-28T11:28:39Z</time></trkpt>
<trkpt lat="46.68681761" lon="6.97288681"><ele>891.76001</ele><time>2008-04-28T11:28:46Z</time></trkpt>
<trkpt lat="46.68728700" lon="6.97327489"><ele>890.798584</ele><time>2008-04-28T11:28:55Z</time></trkpt>
<trkpt lat="46.68741331" lon="6.97337841"><ele>890.798584</ele><time>2008-04-28T11:28:58Z</time></trkpt>
<trkpt lat="46.68765798" lon="6.97380764"><ele>888.876221</ele><time>2008-04-28T11:29:09Z</time></trkpt>
<trkpt lat="46.68786703" lon="6.97432875"><ele>887.914795</ele><time>2008-04-28T11:29:18Z</time></trkpt>
<trkpt lat="46.68796669" lon="6.97451089"><ele>887.914795</ele><time>2008-04-28T11:29:21Z</time></trkpt>
<trkpt lat="46.68819241" lon="6.97471817"><ele>886.953369</ele><time>2008-04-28T11:29:26Z</time></trkpt>
<trkpt lat="46.68838168" lon="6.97479495"><ele>886.953369</ele><time>2008-04-28T11:29:30Z</time></trkpt>
<trkpt lat="46.68918483" lon="6.97542862"><ele>885.031006</ele><time>2008-04-28T11:29:45Z</time></trkpt>
<trkpt lat="46.68973468" lon="6.97571151"><ele>884.06958</ele><time>2008-04-28T11:29:54Z</time></trkpt>
<trkpt lat="46.69012151" lon="6.97569508"><ele>883.108154</ele><time>2008-04-28T11:30:00Z</time></trkpt>
<trkpt lat="46.69032946" lon="6.97596783"><ele>883.108154</ele><time>2008-04-28T11:30:09Z</time></trkpt>
<trkpt lat="46.69030272" lon="6.97602038"><ele>873.014404</ele><time>2008-04-28T11:30:10Z</time></trkpt>
<trkpt lat="46.69018647" lon="6.97620437"><ele>835.04248</ele><time>2008-04-28T11:30:11Z</time></trkpt>
<trkpt lat="46.69003450" lon="6.97644099"><ele>833.119629</ele><time>2008-04-28T11:30:12Z</time></trkpt>
<trkpt lat="46.68983744" lon="6.97663880"><ele>830.23584</ele><time>2008-04-28T11:30:14Z</time></trkpt>
<trkpt lat="46.68965841" lon="6.97684944"><ele>825.909668</ele><time>2008-04-28T11:30:19Z</time></trkpt>
<trkpt lat="46.68938030" lon="6.97704792"><ele>826.871094</ele><time>2008-04-28T11:30:24Z</time></trkpt>
<trkpt lat="46.68925541" lon="6.97731044"><ele>826.871094</ele><time>2008-04-28T11:30:32Z</time></trkpt>
<trkpt lat="46.68919313" lon="6.97748093"><ele>826.871094</ele><time>2008-04-28T11:30:37Z</time></trkpt>
<trkpt lat="46.68907729" lon="6.97775644"><ele>825.909668</ele><time>2008-04-28T11:30:41Z</time></trkpt>
<trkpt lat="46.68879943" lon="6.97799415"><ele>823.025879</ele><time>2008-04-28T11:30:47Z</time></trkpt>
<trkpt lat="46.68866431" lon="6.97794294"><ele>820.141846</ele><time>2008-04-28T11:30:50Z</time></trkpt>
<trkpt lat="46.68851964" lon="6.97776122"><ele>818.219238</ele><time>2008-04-28T11:30:53Z</time></trkpt>
<trkpt lat="46.68834790" lon="6.97756659"><ele>815.816162</ele><time>2008-04-28T11:30:56Z</time></trkpt>
<trkpt lat="46.68825762" lon="6.97748889"><ele>818.219238</ele><time>2008-04-28T11:30:58Z</time></trkpt>
<trkpt lat="46.68815989" lon="6.97779039"><ele>815.816162</ele><time>2008-04-28T11:31:04Z</time></trkpt>
<trkpt lat="46.68821454" lon="6.97795987"><ele>813.893311</ele><time>2008-04-28T11:31:06Z</time></trkpt>
<trkpt lat="46.68839651" lon="6.97845507"><ele>811.009277</ele><time>2008-04-28T11:31:11Z</time></trkpt>
<trkpt lat="46.68852367" lon="6.97876772"><ele>809.08667</ele><time>2008-04-28T11:31:14Z</time></trkpt>
<trkpt lat="46.68873229" lon="6.97919738"><ele>810.047852</ele><time>2008-04-28T11:31:18Z</time></trkpt>
<trkpt lat="46.68881586" lon="6.97985024"><ele>809.08667</ele><time>2008-04-28T11:31:24Z</time></trkpt>
<trkpt lat="46.68877210" lon="6.98013824"><ele>808.125488</ele><time>2008-04-28T11:31:27Z</time></trkpt>
<trkpt lat="46.68877319" lon="6.98041275"><ele>810.047852</ele><time>2008-04-28T11:31:30Z</time></trkpt>
<trkpt lat="46.68912649" lon="6.98103720"><ele>808.125488</ele><time>2008-04-28T11:31:38Z</time></trkpt>
<trkpt lat="46.68959630" lon="6.98152998"><ele>808.125488</ele><time>2008-04-28T11:31:46Z</time></trkpt>
<trkpt lat="46.68981465" lon="6.98215568"><ele>811.009277</ele><time>2008-04-28T11:31:55Z</time></trkpt>
<trkpt lat="46.68985245" lon="6.98259984"><ele>813.893311</ele><time>2008-04-28T11:32:06Z</time></trkpt>
<trkpt lat="46.68988162" lon="6.98314860"><ele>816.777344</ele><time>2008-04-28T11:32:20Z</time></trkpt>
<trkpt lat="46.69010717" lon="6.98331666"><ele>819.180664</ele><time>2008-04-28T11:32:32Z</time></trkpt>
<trkpt lat="46.69035117" lon="6.98360223"><ele>822.064453</ele><time>2008-04-28T11:32:48Z</time></trkpt>
<trkpt lat="46.69055946" lon="6.98395343"><ele>822.064453</ele><time>2008-04-28T11:33:03Z</time></trkpt>
<trkpt lat="46.69075887" lon="6.98431780"><ele>822.064453</ele><time>2008-04-28T11:33:14Z</time></trkpt>
<trkpt lat="46.69094025" lon="6.98468233"><ele>823.987061</ele><time>2008-04-28T11:33:28Z</time></trkpt>
<trkpt lat="46.69095961" lon="6.98503512"><ele>826.871094</ele><time>2008-04-28T11:33:41Z</time></trkpt>
<trkpt lat="46.69095249" lon="6.98550576"><ele>830.23584</ele><time>2008-04-28T11:33:59Z</time></trkpt>
<trkpt lat="46.69092734" lon="6.98597666"><ele>833.119629</ele><time>2008-04-28T11:34:16Z</time></trkpt>
<trkpt lat="46.69089306" lon="6.98640833"><ele>835.04248</ele><time>2008-04-28T11:34:31Z</time></trkpt>
<trkpt lat="46.69074185" lon="6.98684100"><ele>836.003662</ele><time>2008-04-28T11:34:49Z</time></trkpt>
<trkpt lat="46.69062585" lon="6.98707729"><ele>838.887695</ele><time>2008-04-28T11:35:01Z</time></trkpt>
<trkpt lat="46.69050104" lon="6.98736596"><ele>843.213379</ele><time>2008-04-28T11:35:16Z</time></trkpt>
<trkpt lat="46.69048335" lon="6.98743142"><ele>844.175049</ele><time>2008-04-28T11:35:19Z</time></trkpt>
<trkpt lat="46.69040356" lon="6.98771976"><ele>846.097656</ele><time>2008-04-28T11:35:33Z</time></trkpt>
<trkpt lat="46.69034178" lon="6.98802092"><ele>848.020264</ele><time>2008-04-28T11:35:49Z</time></trkpt>
<trkpt lat="46.69030624" lon="6.98815193"><ele>850.904053</ele><time>2008-04-28T11:35:56Z</time></trkpt>
<trkpt lat="46.69022620" lon="6.98837481"><ele>852.82666</ele><time>2008-04-28T11:36:07Z</time></trkpt>
<trkpt lat="46.69021731" lon="6.98840104"><ele>853.788086</ele><time>2008-04-28T11:36:09Z</time></trkpt>
<trkpt lat="46.69015520" lon="6.98862383"><ele>857.152588</ele><time>2008-04-28T11:36:20Z</time></trkpt>
<trkpt lat="46.69015529" lon="6.98863691"><ele>857.152588</ele><time>2008-04-28T11:36:21Z</time></trkpt>
<trkpt lat="46.69012880" lon="6.98876783"><ele>860.036621</ele><time>2008-04-28T11:36:29Z</time></trkpt>
<trkpt lat="46.69011145" lon="6.98893790"><ele>861.959473</ele><time>2008-04-28T11:36:39Z</time></trkpt>
<trkpt lat="46.69008572" lon="6.98925189"><ele>864.843262</ele><time>2008-04-28T11:36:54Z</time></trkpt>
<trkpt lat="46.69005102" lon="6.98957903"><ele>868.207764</ele><time>2008-04-28T11:37:12Z</time></trkpt>
<trkpt lat="46.69006040" lon="6.98967040"><ele>868.207764</ele><time>2008-04-28T11:37:16Z</time></trkpt>
<trkpt lat="46.69006091" lon="6.98980115"><ele>869.169189</ele><time>2008-04-28T11:37:22Z</time></trkpt>
<trkpt lat="46.69008873" lon="6.99001011"><ele>872.052979</ele><time>2008-04-28T11:37:33Z</time></trkpt>
<trkpt lat="46.69012536" lon="6.99017976"><ele>874.937012</ele><time>2008-04-28T11:37:42Z</time></trkpt>
<trkpt lat="46.69013433" lon="6.99017968"><ele>873.975586</ele><time>2008-04-28T11:37:43Z</time></trkpt>
<trkpt lat="46.69018035" lon="6.99044069"><ele>875.898193</ele><time>2008-04-28T11:37:55Z</time></trkpt>
<trkpt lat="46.69019896" lon="6.99059743"><ele>877.821045</ele><time>2008-04-28T11:38:03Z</time></trkpt>
<trkpt lat="46.69020834" lon="6.99070196"><ele>880.224365</ele><time>2008-04-28T11:38:07Z</time></trkpt>
<trkpt lat="46.69020851" lon="6.99072811"><ele>880.224365</ele><time>2008-04-28T11:38:08Z</time></trkpt>
<trkpt lat="46.69023609" lon="6.99088477"><ele>882.146973</ele><time>2008-04-28T11:38:17Z</time></trkpt>
<trkpt lat="46.69023651" lon="6.99100236"><ele>884.06958</ele><time>2008-04-28T11:38:23Z</time></trkpt>
<trkpt lat="46.69027355" lon="6.99126354"><ele>885.992188</ele><time>2008-04-28T11:38:35Z</time></trkpt>
<trkpt lat="46.69030122" lon="6.99143328"><ele>886.953369</ele><time>2008-04-28T11:38:44Z</time></trkpt>
<trkpt lat="46.69029233" lon="6.99147259"><ele>886.953369</ele><time>2008-04-28T11:38:46Z</time></trkpt>
<trkpt lat="46.69028353" lon="6.99152489"><ele>886.953369</ele><time>2008-04-28T11:38:49Z</time></trkpt>
<trkpt lat="46.69028370" lon="6.99156412"><ele>887.914795</ele><time>2008-04-28T11:38:52Z</time></trkpt>
<trkpt lat="46.69025729" lon="6.99170812"><ele>888.876221</ele><time>2008-04-28T11:38:58Z</time></trkpt>
<trkpt lat="46.69021287" lon="6.99185229"><ele>890.798584</ele><time>2008-04-28T11:39:04Z</time></trkpt>
<trkpt lat="46.69018613" lon="6.99190484"><ele>891.76001</ele><time>2008-04-28T11:39:07Z</time></trkpt>
<trkpt lat="46.69009686" lon="6.99208857"><ele>894.163574</ele><time>2008-04-28T11:39:20Z</time></trkpt>
<trkpt lat="46.68998061" lon="6.99225948"><ele>895.124756</ele><time>2008-04-28T11:39:30Z</time></trkpt>
<trkpt lat="46.68986435" lon="6.99244346"><ele>898.008789</ele><time>2008-04-28T11:39:41Z</time></trkpt>
<trkpt lat="46.68984641" lon="6.99245671"><ele>898.008789</ele><time>2008-04-28T11:39:42Z</time></trkpt>
<trkpt lat="46.68973049" lon="6.99270607"><ele>900.892578</ele><time>2008-04-28T11:39:55Z</time></trkpt>
<trkpt lat="46.68971264" lon="6.99275846"><ele>901.854004</ele><time>2008-04-28T11:39:59Z</time></trkpt>
<trkpt lat="46.68965925" lon="6.99290271"><ele>905.218506</ele><time>2008-04-28T11:40:10Z</time></trkpt>
<trkpt lat="46.68957886" lon="6.99304721"><ele>905.218506</ele><time>2008-04-28T11:40:16Z</time></trkpt>
<trkpt lat="46.68954332" lon="6.99315207"><ele>906.179688</ele><time>2008-04-28T11:40:21Z</time></trkpt>
<trkpt lat="46.68950812" lon="6.99336153"><ele>907.141113</ele><time>2008-04-28T11:40:33Z</time></trkpt>
<trkpt lat="46.68940092" lon="6.99354543"><ele>908.102783</ele><time>2008-04-28T11:40:46Z</time></trkpt>
<trkpt lat="46.68932053" lon="6.99368985"><ele>909.063965</ele><time>2008-04-28T11:40:55Z</time></trkpt>
<trkpt lat="46.68920386" lon="6.99376923"><ele>910.025146</ele><time>2008-04-28T11:41:02Z</time></trkpt>
<trkpt lat="46.68894385" lon="6.99399361"><ele>910.025146</ele><time>2008-04-28T11:41:16Z</time></trkpt>
<trkpt lat="46.68860237" lon="6.99407492"><ele>910.025146</ele><time>2008-04-28T11:41:27Z</time></trkpt>
<trkpt lat="46.68838670" lon="6.99414206"><ele>910.986572</ele><time>2008-04-28T11:41:35Z</time></trkpt>
<trkpt lat="46.68813550" lon="6.99431405"><ele>912.90918</ele><time>2008-04-28T11:41:49Z</time></trkpt>
<trkpt lat="46.68782109" lon="6.99443425"><ele>912.90918</ele><time>2008-04-28T11:42:03Z</time></trkpt>
<trkpt lat="46.68751524" lon="6.99442369"><ele>913.870361</ele><time>2008-04-28T11:42:19Z</time></trkpt>
<trkpt lat="46.68722707" lon="6.99433459"><ele>917.235107</ele><time>2008-04-28T11:42:33Z</time></trkpt>
<trkpt lat="46.68686681" lon="6.99423300"><ele>915.793213</ele><time>2008-04-28T11:42:49Z</time></trkpt>
<trkpt lat="46.68653405" lon="6.99426183"><ele>920.118896</ele><time>2008-04-28T11:43:03Z</time></trkpt>
<trkpt lat="46.68632844" lon="6.99459032"><ele>921.080322</ele><time>2008-04-28T11:43:16Z</time></trkpt>
<trkpt lat="46.68620288" lon="6.99468286"><ele>923.00293</ele><time>2008-04-28T11:43:24Z</time></trkpt>
<trkpt lat="46.68615804" lon="6.99470934"><ele>923.00293</ele><time>2008-04-28T11:43:27Z</time></trkpt>
<trkpt lat="46.68585260" lon="6.99481647"><ele>921.080322</ele><time>2008-04-28T11:43:40Z</time></trkpt>
<trkpt lat="46.68549302" lon="6.99488478"><ele>918.196289</ele><time>2008-04-28T11:43:50Z</time></trkpt>
<trkpt lat="46.68527727" lon="6.99492577"><ele>917.235107</ele><time>2008-04-28T11:43:56Z</time></trkpt>
<trkpt lat="46.68478291" lon="6.99503439"><ele>919.157715</ele><time>2008-04-28T11:44:10Z</time></trkpt>
<trkpt lat="46.68467562" lon="6.99519214"><ele>921.080322</ele><time>2008-04-28T11:44:18Z</time></trkpt>
<trkpt lat="46.68453329" lon="6.99561157"><ele>923.964111</ele><time>2008-04-28T11:44:35Z</time></trkpt>
<trkpt lat="46.68431922" lon="6.99607082"><ele>925.886963</ele><time>2008-04-28T11:44:53Z</time></trkpt>
<trkpt lat="46.68416801" lon="6.99651648"><ele>927.80957</ele><time>2008-04-28T11:45:09Z</time></trkpt>
<trkpt lat="46.68410657" lon="6.99692225"><ele>928.770996</ele><time>2008-04-28T11:45:22Z</time></trkpt>
<trkpt lat="46.68408151" lon="6.99740605"><ele>930.212891</ele><time>2008-04-28T11:45:37Z</time></trkpt>
<trkpt lat="46.68412861" lon="6.99796773"><ele>933.09668</ele><time>2008-04-28T11:45:55Z</time></trkpt>
<trkpt lat="46.68429173" lon="6.99826704"><ele>933.09668</ele><time>2008-04-28T11:46:07Z</time></trkpt>
<trkpt lat="46.68446381" lon="6.99857935"><ele>935.019531</ele><time>2008-04-28T11:46:21Z</time></trkpt>
<trkpt lat="46.68446389" lon="6.99860550"><ele>935.980713</ele><time>2008-04-28T11:46:22Z</time></trkpt>
<trkpt lat="46.68464385" lon="6.99860408"><ele>935.019531</ele><time>2008-04-28T11:46:29Z</time></trkpt>
<trkpt lat="46.68476086" lon="6.99861615"><ele>933.09668</ele><time>2008-04-28T11:46:31Z</time></trkpt>
<trkpt lat="46.68482381" lon="6.99862872"><ele>932.135498</ele><time>2008-04-28T11:46:32Z</time></trkpt>
<trkpt lat="46.68523871" lon="6.99889988"><ele>925.886963</ele><time>2008-04-28T11:46:38Z</time></trkpt>
<trkpt lat="46.68535648" lon="6.99910808"><ele>922.041504</ele><time>2008-04-28T11:46:40Z</time></trkpt>
<trkpt lat="46.68546536" lon="6.99936859"><ele>919.157715</ele><time>2008-04-28T11:46:42Z</time></trkpt>
<trkpt lat="46.68552873" lon="6.99947261"><ele>918.196289</ele><time>2008-04-28T11:46:43Z</time></trkpt>
<trkpt lat="46.68569150" lon="6.99968048"><ele>922.041504</ele><time>2008-04-28T11:46:46Z</time></trkpt>
<trkpt lat="46.68570139" lon="6.99992876"><ele>921.080322</ele><time>2008-04-28T11:46:52Z</time></trkpt>
<trkpt lat="46.68546829" lon="7.00012674"><ele>923.964111</ele><time>2008-04-28T11:47:06Z</time></trkpt>
<trkpt lat="46.68531616" lon="7.00032405"><ele>926.848389</ele><time>2008-04-28T11:47:17Z</time></trkpt>
<trkpt lat="46.68520041" lon="7.00063870"><ele>928.770996</ele><time>2008-04-28T11:47:31Z</time></trkpt>
<trkpt lat="46.68503956" lon="7.00091447"><ele>932.135498</ele><time>2008-04-28T11:47:45Z</time></trkpt>
<trkpt lat="46.68489631" lon="7.00109862"><ele>935.019531</ele><time>2008-04-28T11:47:57Z</time></trkpt>
<trkpt lat="46.68478936" lon="7.00134790"><ele>937.90332</ele><time>2008-04-28T11:48:10Z</time></trkpt>
<trkpt lat="46.68474535" lon="7.00160966"><ele>940.787354</ele><time>2008-04-28T11:48:22Z</time></trkpt>
<trkpt lat="46.68494384" lon="7.00175182"><ele>942.229492</ele><time>2008-04-28T11:48:28Z</time></trkpt>
<trkpt lat="46.68512430" lon="7.00189414"><ele>945.113281</ele><time>2008-04-28T11:48:43Z</time></trkpt>
<trkpt lat="46.68525958" lon="7.00199766"><ele>946.074707</ele><time>2008-04-28T11:48:58Z</time></trkpt>
<trkpt lat="46.68539478" lon="7.00207503"><ele>948.958496</ele><time>2008-04-28T11:49:11Z</time></trkpt>
<trkpt lat="46.68558413" lon="7.00219112"><ele>950.881104</ele><time>2008-04-28T11:49:25Z</time></trkpt>
<trkpt lat="46.68571958" lon="7.00232070"><ele>953.765137</ele><time>2008-04-28T11:50:16Z</time></trkpt>
<trkpt lat="46.68585503" lon="7.00245037"><ele>955.207031</ele><time>2008-04-28T11:50:19Z</time></trkpt>
<trkpt lat="46.68597247" lon="7.00258012"><ele>956.168457</ele><time>2008-04-28T11:50:23Z</time></trkpt>
<trkpt lat="46.68612594" lon="7.00272270"><ele>957.129883</ele><time>2008-04-28T11:50:33Z</time></trkpt>
<trkpt lat="46.68625259" lon="7.00291774"><ele>960.013672</ele><time>2008-04-28T11:50:57Z</time></trkpt>
<trkpt lat="46.68643305" lon="7.00306007"><ele>963.858887</ele><time>2008-04-28T11:51:35Z</time></trkpt>
<trkpt lat="46.68655945" lon="7.00317666"><ele>964.820313</ele><time>2008-04-28T11:51:52Z</time></trkpt>
<trkpt lat="46.68671301" lon="7.00334539"><ele>965.781738</ele><time>2008-04-28T11:52:12Z</time></trkpt>
<trkpt lat="46.68684837" lon="7.00344890"><ele>967.223633</ele><time>2008-04-28T11:52:31Z</time></trkpt>
<trkpt lat="46.68701065" lon="7.00355217"><ele>967.223633</ele><time>2008-04-28T11:52:46Z</time></trkpt>
<trkpt lat="46.68719086" lon="7.00362911"><ele>968.184814</ele><time>2008-04-28T11:53:02Z</time></trkpt>
<trkpt lat="46.68734450" lon="7.00379784"><ele>971.068848</ele><time>2008-04-28T11:53:26Z</time></trkpt>
<trkpt lat="46.68747987" lon="7.00392743"><ele>972.991699</ele><time>2008-04-28T11:53:55Z</time></trkpt>
<trkpt lat="46.68768732" lon="7.00406958"><ele>973.952881</ele><time>2008-04-28T11:54:21Z</time></trkpt>
<trkpt lat="46.68782269" lon="7.00418618"><ele>974.914307</ele><time>2008-04-28T11:54:43Z</time></trkpt>
<trkpt lat="46.68795805" lon="7.00430268"><ele>977.798096</ele><time>2008-04-28T11:55:23Z</time></trkpt>
<trkpt lat="46.68817439" lon="7.00440553"><ele>982.124023</ele><time>2008-04-28T11:55:49Z</time></trkpt>
<trkpt lat="46.68831856" lon="7.00446974"><ele>985.008057</ele><time>2008-04-28T11:56:11Z</time></trkpt>
<trkpt lat="46.68848058" lon="7.00449455"><ele>987.891846</ele><time>2008-04-28T11:56:31Z</time></trkpt>
<trkpt lat="46.68861578" lon="7.00455884"><ele>990.775879</ele><time>2008-04-28T11:56:51Z</time></trkpt>
<trkpt lat="46.68864369" lon="7.00480702"><ele>992.218018</ele><time>2008-04-28T11:57:08Z</time></trkpt>
<trkpt lat="46.68859022" lon="7.00493820"><ele>995.101807</ele><time>2008-04-28T11:57:48Z</time></trkpt>
<trkpt lat="46.68850078" lon="7.00506963"><ele>997.024414</ele><time>2008-04-28T11:57:59Z</time></trkpt>
<trkpt lat="46.68838402" lon="7.00512285"><ele>998.947021</ele><time>2008-04-28T11:58:18Z</time></trkpt>
<trkpt lat="46.68825838" lon="7.00521539"><ele>999.908447</ele><time>2008-04-28T11:58:45Z</time></trkpt>
<trkpt lat="46.68806065" lon="7.00525613"><ele>1001.831055</ele><time>2008-04-28T11:59:12Z</time></trkpt>
<trkpt lat="46.68790801" lon="7.00532276"><ele>1005.195801</ele><time>2008-04-28T11:59:27Z</time></trkpt>
<trkpt lat="46.68776418" lon="7.00535000"><ele>1007.118408</ele><time>2008-04-28T11:59:49Z</time></trkpt>
<trkpt lat="46.68761129" lon="7.00536434"><ele>1006.156982</ele><time>2008-04-28T12:00:07Z</time></trkpt>
<trkpt lat="46.68746746" lon="7.00537859"><ele>1005.195801</ele><time>2008-04-28T12:00:26Z</time></trkpt>
<trkpt lat="46.68735053" lon="7.00539258"><ele>1004.234619</ele><time>2008-04-28T12:00:43Z</time></trkpt>
<trkpt lat="46.68721550" lon="7.00536752"><ele>1006.156982</ele><time>2008-04-28T12:00:58Z</time></trkpt>
<trkpt lat="46.68702666" lon="7.00538211"><ele>1002.792236</ele><time>2008-04-28T12:01:11Z</time></trkpt>
<trkpt lat="46.68683781" lon="7.00539669"><ele>1004.234619</ele><time>2008-04-28T12:01:33Z</time></trkpt>
<trkpt lat="46.68670278" lon="7.00537163"><ele>1004.234619</ele><time>2008-04-28T12:01:43Z</time></trkpt>
<trkpt lat="46.68657688" lon="7.00538571"><ele>1002.792236</ele><time>2008-04-28T12:01:51Z</time></trkpt>
<trkpt lat="46.68643288" lon="7.00536073"><ele>1002.792236</ele><time>2008-04-28T12:02:02Z</time></trkpt>
<trkpt lat="46.68628830" lon="7.00519192"><ele>1002.792236</ele><time>2008-04-28T12:02:18Z</time></trkpt>
<trkpt lat="46.68613457" lon="7.00498405"><ele>1004.234619</ele><time>2008-04-28T12:02:21Z</time></trkpt>
<trkpt lat="46.68589057" lon="7.00469839"><ele>1004.234619</ele><time>2008-04-28T12:02:23Z</time></trkpt>
<trkpt lat="46.68563761" lon="7.00441291"><ele>1004.234619</ele><time>2008-04-28T12:02:28Z</time></trkpt>
<trkpt lat="46.68534868" lon="7.00412759"><ele>1005.195801</ele><time>2008-04-28T12:02:39Z</time></trkpt>
<trkpt lat="46.68509614" lon="7.00394662"><ele>1006.156982</ele><time>2008-04-28T12:02:53Z</time></trkpt>
<trkpt lat="46.68496261" lon="7.00432682"><ele>1007.118408</ele><time>2008-04-28T12:03:16Z</time></trkpt>
<trkpt lat="46.68494610" lon="7.00471910"><ele>1007.118408</ele><time>2008-04-28T12:04:44Z</time></trkpt>
<trkpt lat="46.68487544" lon="7.00504641"><ele>1009.041016</ele><time>2008-04-28T12:04:57Z</time></trkpt>
<trkpt lat="46.68479523" lon="7.00525621"><ele>1011.925049</ele><time>2008-04-28T12:05:10Z</time></trkpt>
<trkpt lat="46.68468886" lon="7.00566231"><ele>1012.88623</ele><time>2008-04-28T12:05:23Z</time></trkpt>
<trkpt lat="46.68455517" lon="7.00600320"><ele>1014.808838</ele><time>2008-04-28T12:05:36Z</time></trkpt>
<trkpt lat="46.68439466" lon="7.00635742"><ele>1017.212158</ele><time>2008-04-28T12:05:49Z</time></trkpt>
<trkpt lat="46.68420673" lon="7.00663344"><ele>1020.096191</ele><time>2008-04-28T12:06:02Z</time></trkpt>
<trkpt lat="46.68401043" lon="7.00705329"><ele>1022.980225</ele><time>2008-04-28T12:06:15Z</time></trkpt>
<trkpt lat="46.68379577" lon="7.00738178"><ele>1023.941406</ele><time>2008-04-28T12:06:26Z</time></trkpt>
<trkpt lat="46.68352679" lon="7.00760616"><ele>1026.825439</ele><time>2008-04-28T12:06:42Z</time></trkpt>
<trkpt lat="46.68329327" lon="7.00769953"><ele>1027.786621</ele><time>2008-04-28T12:06:53Z</time></trkpt>
<trkpt lat="46.68309563" lon="7.00776642"><ele>1030.189941</ele><time>2008-04-28T12:07:03Z</time></trkpt>
<trkpt lat="46.68287108" lon="7.00785971"><ele>1031.151367</ele><time>2008-04-28T12:07:17Z</time></trkpt>
<trkpt lat="46.68263705" lon="7.00783540"><ele>1033.07373</ele><time>2008-04-28T12:07:32Z</time></trkpt>
<trkpt lat="46.68233966" lon="7.00768093"><ele>1034.996582</ele><time>2008-04-28T12:07:46Z</time></trkpt>
<trkpt lat="46.68223137" lon="7.00759032"><ele>1034.996582</ele><time>2008-04-28T12:07:52Z</time></trkpt>
<trkpt lat="46.68213146" lon="7.00735588"><ele>1037.880615</ele><time>2008-04-28T12:08:01Z</time></trkpt>
<trkpt lat="46.68203138" lon="7.00704298"><ele>1038.842041</ele><time>2008-04-28T12:08:14Z</time></trkpt>
<trkpt lat="46.68183264" lon="7.00683544"><ele>1040.764404</ele><time>2008-04-28T12:08:27Z</time></trkpt>
<trkpt lat="46.68166148" lon="7.00677141"><ele>1042.206543</ele><time>2008-04-28T12:08:40Z</time></trkpt>
<trkpt lat="46.68145462" lon="7.00677308"><ele>1042.206543</ele><time>2008-04-28T12:08:42Z</time></trkpt>
<trkpt lat="46.68119386" lon="7.00680133"><ele>1043.167725</ele><time>2008-04-28T12:08:54Z</time></trkpt>
<trkpt lat="46.68090602" lon="7.00680359"><ele>1044.12915</ele><time>2008-04-28T12:09:07Z</time></trkpt>
<trkpt lat="46.68084299" lon="7.00680410"><ele>1045.090332</ele><time>2008-04-28T12:09:11Z</time></trkpt>
<trkpt lat="46.68079823" lon="7.00684366"><ele>1046.051758</ele><time>2008-04-28T12:09:14Z</time></trkpt>
<trkpt lat="46.68077133" lon="7.00687006"><ele>1047.012939</ele><time>2008-04-28T12:09:16Z</time></trkpt>
<trkpt lat="46.68061878" lon="7.00697584"><ele>1047.974365</ele><time>2008-04-28T12:09:21Z</time></trkpt>
<trkpt lat="46.68052917" lon="7.00705497"><ele>1049.896973</ele><time>2008-04-28T12:09:30Z</time></trkpt>
<trkpt lat="46.68052926" lon="7.00709419"><ele>1050.858154</ele><time>2008-04-28T12:09:34Z</time></trkpt>
<trkpt lat="46.68049439" lon="7.00738203"><ele>1052.781006</ele><time>2008-04-28T12:09:49Z</time></trkpt>
<trkpt lat="46.68047737" lon="7.00764354"><ele>1056.145508</ele><time>2008-04-28T12:10:02Z</time></trkpt>
<trkpt lat="46.68045960" lon="7.00769593"><ele>1056.145508</ele><time>2008-04-28T12:10:06Z</time></trkpt>
<trkpt lat="46.68037964" lon="7.00795803"><ele>1059.990723</ele><time>2008-04-28T12:10:21Z</time></trkpt>
<trkpt lat="46.68030873" lon="7.00824612"><ele>1061.913574</ele><time>2008-04-28T12:10:36Z</time></trkpt>
<trkpt lat="46.68029984" lon="7.00827235"><ele>1061.913574</ele><time>2008-04-28T12:10:38Z</time></trkpt>
<trkpt lat="46.68029113" lon="7.00833773"><ele>1062.874756</ele><time>2008-04-28T12:10:41Z</time></trkpt>
<trkpt lat="46.68026447" lon="7.00844251"><ele>1062.874756</ele><time>2008-04-28T12:10:47Z</time></trkpt>
<trkpt lat="46.68026464" lon="7.00848173"><ele>1062.874756</ele><time>2008-04-28T12:10:49Z</time></trkpt>
<trkpt lat="46.68021183" lon="7.00878281"><ele>1064.797363</ele><time>2008-04-28T12:11:04Z</time></trkpt>
<trkpt lat="46.68021267" lon="7.00901801"><ele>1067.200684</ele><time>2008-04-28T12:11:17Z</time></trkpt>
<trkpt lat="46.68022189" lon="7.00907023"><ele>1068.162109</ele><time>2008-04-28T12:11:20Z</time></trkpt>
<trkpt lat="46.68020412" lon="7.00913577"><ele>1069.123535</ele><time>2008-04-28T12:11:24Z</time></trkpt>
<trkpt lat="46.68020505" lon="7.00937097"><ele>1071.046143</ele><time>2008-04-28T12:11:36Z</time></trkpt>
<trkpt lat="46.68018761" lon="7.00951489"><ele>1072.007324</ele><time>2008-04-28T12:11:44Z</time></trkpt>
<trkpt lat="46.68018803" lon="7.00963257"><ele>1072.96875</ele><time>2008-04-28T12:11:50Z</time></trkpt>
<trkpt lat="46.68018904" lon="7.00990699"><ele>1074.891357</ele><time>2008-04-28T12:12:06Z</time></trkpt>
<trkpt lat="46.68021686" lon="7.01011595"><ele>1076.813965</ele><time>2008-04-28T12:12:17Z</time></trkpt>
<trkpt lat="46.68022675" lon="7.01036414"><ele>1079.217041</ele><time>2008-04-28T12:12:28Z</time></trkpt>
<trkpt lat="46.68017378" lon="7.01063907"><ele>1080.178467</ele><time>2008-04-28T12:12:42Z</time></trkpt>
<trkpt lat="46.68013866" lon="7.01084845"><ele>1082.101074</ele><time>2008-04-28T12:12:54Z</time></trkpt>
<trkpt lat="46.68010329" lon="7.01103176"><ele>1084.985352</ele><time>2008-04-28T12:13:07Z</time></trkpt>
<trkpt lat="46.68004126" lon="7.01126754"><ele>1087.869141</ele><time>2008-04-28T12:13:22Z</time></trkpt>
<trkpt lat="46.68002366" lon="7.01137223"><ele>1088.830566</ele><time>2008-04-28T12:13:26Z</time></trkpt>
<trkpt lat="46.67993523" lon="7.01177808"><ele>1089.791748</ele><time>2008-04-28T12:13:43Z</time></trkpt>
<trkpt lat="46.67983708" lon="7.01200104"><ele>1091.233643</ele><time>2008-04-28T12:13:56Z</time></trkpt>
<trkpt lat="46.67976625" lon="7.01230220"><ele>1086.907715</ele><time>2008-04-28T12:14:03Z</time></trkpt>
<trkpt lat="46.67971336" lon="7.01259021"><ele>1087.869141</ele><time>2008-04-28T12:14:13Z</time></trkpt>
<trkpt lat="46.67958830" lon="7.01282641"><ele>1087.869141</ele><time>2008-04-28T12:14:24Z</time></trkpt>
<trkpt lat="46.67953474" lon="7.01294451"><ele>1091.233643</ele><time>2008-04-28T12:14:34Z</time></trkpt>
<trkpt lat="46.67955302" lon="7.01300972"><ele>1093.15625</ele><time>2008-04-28T12:14:54Z</time></trkpt>
<trkpt lat="46.67945478" lon="7.01320653"><ele>1097.001465</ele><time>2008-04-28T12:15:20Z</time></trkpt>
<trkpt lat="46.67944632" lon="7.01335036"><ele>1098.924072</ele><time>2008-04-28T12:15:46Z</time></trkpt>
<trkpt lat="46.67934774" lon="7.01344265"><ele>1102.769531</ele><time>2008-04-28T12:16:32Z</time></trkpt>
<trkpt lat="46.67934816" lon="7.01356024"><ele>1105.172852</ele><time>2008-04-28T12:16:41Z</time></trkpt>
<trkpt lat="46.67929494" lon="7.01376979"><ele>1106.134033</ele><time>2008-04-28T12:17:04Z</time></trkpt>
<trkpt lat="46.67927734" lon="7.01387448"><ele>1109.018066</ele><time>2008-04-28T12:17:22Z</time></trkpt>
<trkpt lat="46.67923266" lon="7.01395327"><ele>1111.9021</ele><time>2008-04-28T12:17:39Z</time></trkpt>
<trkpt lat="46.67926032" lon="7.01412301"><ele>1114.785889</ele><time>2008-04-28T12:18:03Z</time></trkpt>
<trkpt lat="46.67918933" lon="7.01438494"><ele>1117.189453</ele><time>2008-04-28T12:19:24Z</time></trkpt>
<trkpt lat="46.67920827" lon="7.01464620"><ele>1117.189453</ele><time>2008-04-28T12:19:29Z</time></trkpt>
<trkpt lat="46.67912789" lon="7.01480370"><ele>1118.150635</ele><time>2008-04-28T12:19:34Z</time></trkpt>
<trkpt lat="46.67924557" lon="7.01499883"><ele>1121.034668</ele><time>2008-04-28T12:19:47Z</time></trkpt>
<trkpt lat="46.67926434" lon="7.01522087"><ele>1121.034668</ele><time>2008-04-28T12:19:59Z</time></trkpt>
<trkpt lat="46.67924792" lon="7.01562613"><ele>1121.034668</ele><time>2008-04-28T12:20:15Z</time></trkpt>
<trkpt lat="46.67925814" lon="7.01596585"><ele>1120.073242</ele><time>2008-04-28T12:20:30Z</time></trkpt>
<trkpt lat="46.67927692" lon="7.01618797"><ele>1116.228027</ele><time>2008-04-28T12:20:39Z</time></trkpt>
<trkpt lat="46.67928622" lon="7.01625318"><ele>1114.785889</ele><time>2008-04-28T12:20:41Z</time></trkpt>
<trkpt lat="46.67943173" lon="7.01668343"><ele>1113.824463</ele><time>2008-04-28T12:20:54Z</time></trkpt>
<trkpt lat="46.67956819" lon="7.01710059"><ele>1112.863281</ele><time>2008-04-28T12:21:09Z</time></trkpt>
<trkpt lat="46.67965008" lon="7.01736135"><ele>1109.018066</ele><time>2008-04-28T12:21:18Z</time></trkpt>
<trkpt lat="46.67973180" lon="7.01755674"><ele>1107.095459</ele><time>2008-04-28T12:21:25Z</time></trkpt>
<trkpt lat="46.67978612" lon="7.01764785"><ele>1105.172852</ele><time>2008-04-28T12:21:28Z</time></trkpt>
<trkpt lat="46.67987740" lon="7.01801305"><ele>1101.80835</ele><time>2008-04-28T12:21:37Z</time></trkpt>
<trkpt lat="46.67993238" lon="7.01828714"><ele>1099.885498</ele><time>2008-04-28T12:21:43Z</time></trkpt>
<trkpt lat="46.67991579" lon="7.01866625"><ele>1098.924072</ele><time>2008-04-28T12:21:50Z</time></trkpt>
<trkpt lat="46.67988058" lon="7.01886264"><ele>1098.924072</ele><time>2008-04-28T12:21:53Z</time></trkpt>
<trkpt lat="46.67981034" lon="7.01934678"><ele>1098.924072</ele><time>2008-04-28T12:22:05Z</time></trkpt>
<trkpt lat="46.67978377" lon="7.01946463"><ele>1098.924072</ele><time>2008-04-28T12:22:10Z</time></trkpt>
<trkpt lat="46.67985619" lon="7.01958164"><ele>1098.924072</ele><time>2008-04-28T12:22:16Z</time></trkpt>
<trkpt lat="46.68010958" lon="7.01998489"><ele>1098.924072</ele><time>2008-04-28T12:22:31Z</time></trkpt>
<trkpt lat="46.68047125" lon="7.02050490"><ele>1099.885498</ele><time>2008-04-28T12:22:47Z</time></trkpt>
<trkpt lat="46.68081500" lon="7.02101201"><ele>1098.924072</ele><time>2008-04-28T12:23:01Z</time></trkpt>
<trkpt lat="46.68085179" lon="7.02124695"><ele>1098.924072</ele><time>2008-04-28T12:23:05Z</time></trkpt>
<trkpt lat="46.68084358" lon="7.02144309"><ele>1098.924072</ele><time>2008-04-28T12:23:08Z</time></trkpt>
<trkpt lat="46.68082715" lon="7.02187459"><ele>1096.040283</ele><time>2008-04-28T12:23:13Z</time></trkpt>
<trkpt lat="46.68081039" lon="7.02221448"><ele>1092.195068</ele><time>2008-04-28T12:23:16Z</time></trkpt>
<trkpt lat="46.68078415" lon="7.02242386"><ele>1092.195068</ele><time>2008-04-28T12:23:18Z</time></trkpt>
<trkpt lat="46.68056932" lon="7.02271303"><ele>1089.791748</ele><time>2008-04-28T12:23:23Z</time></trkpt>
<trkpt lat="46.68036254" lon="7.02274078"><ele>1086.907715</ele><time>2008-04-28T12:23:26Z</time></trkpt>
<trkpt lat="46.68011083" lon="7.02279501"><ele>1084.985352</ele><time>2008-04-28T12:23:30Z</time></trkpt>
<trkpt lat="46.67980632" lon="7.02316331"><ele>1084.023926</ele><time>2008-04-28T12:23:40Z</time></trkpt>
<trkpt lat="46.67981612" lon="7.02338543"><ele>1083.062256</ele><time>2008-04-28T12:23:47Z</time></trkpt>
<trkpt lat="46.67972652" lon="7.02347763"><ele>1084.985352</ele><time>2008-04-28T12:23:56Z</time></trkpt>
<trkpt lat="46.67967271" lon="7.02353035"><ele>1087.869141</ele><time>2008-04-28T12:24:07Z</time></trkpt>
<trkpt lat="46.67957372" lon="7.02351803"><ele>1091.233643</ele><time>2008-04-28T12:24:20Z</time></trkpt>
<trkpt lat="46.67936685" lon="7.02351962"><ele>1094.117676</ele><time>2008-04-28T12:24:37Z</time></trkpt>
<trkpt lat="46.67919645" lon="7.02366471"><ele>1097.001465</ele><time>2008-04-28T12:24:51Z</time></trkpt>
<trkpt lat="46.67909796" lon="7.02378307"><ele>1098.924072</ele><time>2008-04-28T12:24:59Z</time></trkpt>
<trkpt lat="46.67895522" lon="7.02412396"><ele>1100.846924</ele><time>2008-04-28T12:25:23Z</time></trkpt>
<trkpt lat="46.67884768" lon="7.02422940"><ele>1101.80835</ele><time>2008-04-28T12:25:31Z</time></trkpt>
<trkpt lat="46.67881172" lon="7.02424273"><ele>1101.80835</ele><time>2008-04-28T12:25:35Z</time></trkpt>
<trkpt lat="46.67865029" lon="7.02437466"><ele>1102.769531</ele><time>2008-04-28T12:25:52Z</time></trkpt>
<trkpt lat="46.67864140" lon="7.02438782"><ele>1102.769531</ele><time>2008-04-28T12:25:53Z</time></trkpt>
<trkpt lat="46.67863235" lon="7.02438782"><ele>1104.21167</ele><time>2008-04-28T12:25:55Z</time></trkpt>
<trkpt lat="46.67860536" lon="7.02438807"><ele>1104.21167</ele><time>2008-04-28T12:25:58Z</time></trkpt>
<trkpt lat="46.67858742" lon="7.02438824"><ele>1104.21167</ele><time>2008-04-28T12:26:00Z</time></trkpt>
<trkpt lat="46.67851559" lon="7.02442797"><ele>1105.172852</ele><time>2008-04-28T12:26:05Z</time></trkpt>
<trkpt lat="46.67846186" lon="7.02450676"><ele>1105.172852</ele><time>2008-04-28T12:26:11Z</time></trkpt>
<trkpt lat="46.67838148" lon="7.02466425"><ele>1106.134033</ele><time>2008-04-28T12:26:21Z</time></trkpt>
<trkpt lat="46.67838181" lon="7.02475570"><ele>1106.134033</ele><time>2008-04-28T12:26:25Z</time></trkpt>
<trkpt lat="46.67840017" lon="7.02486014"><ele>1106.134033</ele><time>2008-04-28T12:26:29Z</time></trkpt>
<trkpt lat="46.67846370" lon="7.02500347"><ele>1106.134033</ele><time>2008-04-28T12:26:37Z</time></trkpt>
<trkpt lat="46.67859949" lon="7.02523766"><ele>1106.134033</ele><time>2008-04-28T12:26:49Z</time></trkpt>
<trkpt lat="46.67869002" lon="7.02540689"><ele>1109.018066</ele><time>2008-04-28T12:26:59Z</time></trkpt>
<trkpt lat="46.67887031" lon="7.02549700"><ele>1110.940674</ele><time>2008-04-28T12:27:10Z</time></trkpt>
<trkpt lat="46.67887928" lon="7.02549691"><ele>1110.940674</ele><time>2008-04-28T12:27:11Z</time></trkpt>
<trkpt lat="46.67899705" lon="7.02571820"><ele>1111.9021</ele><time>2008-04-28T12:27:24Z</time></trkpt>
<trkpt lat="46.67902412" lon="7.02574418"><ele>1111.9021</ele><time>2008-04-28T12:27:26Z</time></trkpt>
<trkpt lat="46.67905119" lon="7.02578316"><ele>1112.863281</ele><time>2008-04-28T12:27:30Z</time></trkpt>
<trkpt lat="46.67909654" lon="7.02588734"><ele>1113.824463</ele><time>2008-04-28T12:27:35Z</time></trkpt>
<trkpt lat="46.67925043" lon="7.02613452"><ele>1114.785889</ele><time>2008-04-28T12:27:49Z</time></trkpt>
<trkpt lat="46.67941296" lon="7.02631624"><ele>1117.189453</ele><time>2008-04-28T12:28:02Z</time></trkpt>
<trkpt lat="46.67950356" lon="7.02648547"><ele>1118.150635</ele><time>2008-04-28T12:28:11Z</time></trkpt>
<trkpt lat="46.67956693" lon="7.02658958"><ele>1118.150635</ele><time>2008-04-28T12:28:27Z</time></trkpt>
<trkpt lat="46.67958504" lon="7.02664171"><ele>1118.150635</ele><time>2008-04-28T12:34:22Z</time></trkpt>
<trkpt lat="46.67963985" lon="7.02687657"><ele>1121.034668</ele><time>2008-04-28T12:34:36Z</time></trkpt>
<trkpt lat="46.67972183" lon="7.02713734"><ele>1122.957275</ele><time>2008-04-28T12:34:52Z</time></trkpt>
<trkpt lat="46.67983959" lon="7.02738477"><ele>1125.841064</ele><time>2008-04-28T12:35:08Z</time></trkpt>
<trkpt lat="46.67993054" lon="7.02765852"><ele>1126.80249</ele><time>2008-04-28T12:35:23Z</time></trkpt>
<trkpt lat="46.68003062" lon="7.02797150"><ele>1130.166992</ele><time>2008-04-28T12:35:40Z</time></trkpt>
<trkpt lat="46.68010371" lon="7.02827149"><ele>1132.089844</ele><time>2008-04-28T12:35:57Z</time></trkpt>
<trkpt lat="46.68016758" lon="7.02853242"><ele>1134.012451</ele><time>2008-04-28T12:36:12Z</time></trkpt>
<trkpt lat="46.68028543" lon="7.02877994"><ele>1136.89624</ele><time>2008-04-28T12:36:28Z</time></trkpt>
<trkpt lat="46.68035835" lon="7.02904078"><ele>1137.857666</ele><time>2008-04-28T12:36:43Z</time></trkpt>
<trkpt lat="46.68045793" lon="7.02920993"><ele>1141.222168</ele><time>2008-04-28T12:36:56Z</time></trkpt>
<trkpt lat="46.68056672" lon="7.02945745"><ele>1142.183594</ele><time>2008-04-28T12:37:11Z</time></trkpt>
<trkpt lat="46.68058483" lon="7.02949651"><ele>1142.183594</ele><time>2008-04-28T12:37:13Z</time></trkpt>
<trkpt lat="46.68063009" lon="7.02956155"><ele>1142.183594</ele><time>2008-04-28T12:37:18Z</time></trkpt>
<trkpt lat="46.68071148" lon="7.02969164"><ele>1144.106201</ele><time>2008-04-28T12:37:27Z</time></trkpt>
<trkpt lat="46.68085632" lon="7.02992574"><ele>1146.98999</ele><time>2008-04-28T12:37:43Z</time></trkpt>
<trkpt lat="46.68093779" lon="7.03008198"><ele>1148.912842</ele><time>2008-04-28T12:37:54Z</time></trkpt>
<trkpt lat="46.68101055" lon="7.03029061"><ele>1148.912842</ele><time>2008-04-28T12:38:03Z</time></trkpt>
<trkpt lat="46.68115589" lon="7.03069470"><ele>1149.874268</ele><time>2008-04-28T12:38:20Z</time></trkpt>
<trkpt lat="46.68127407" lon="7.03103358"><ele>1150.835449</ele><time>2008-04-28T12:38:35Z</time></trkpt>
<trkpt lat="46.68139243" lon="7.03143792"><ele>1149.874268</ele><time>2008-04-28T12:38:48Z</time></trkpt>
<trkpt lat="46.68148362" lon="7.03179013"><ele>1150.835449</ele><time>2008-04-28T12:39:03Z</time></trkpt>
<trkpt lat="46.68161991" lon="7.03215508"><ele>1150.835449</ele><time>2008-04-28T12:39:18Z</time></trkpt>
<trkpt lat="46.68175586" lon="7.03245465"><ele>1150.835449</ele><time>2008-04-28T12:39:31Z</time></trkpt>
<trkpt lat="46.68182870" lon="7.03268942"><ele>1154.200195</ele><time>2008-04-28T12:39:42Z</time></trkpt>
<trkpt lat="46.68192870" lon="7.03298924"><ele>1157.083984</ele><time>2008-04-28T12:39:57Z</time></trkpt>
<trkpt lat="46.68200154" lon="7.03323710"><ele>1158.04541</ele><time>2008-04-28T12:40:10Z</time></trkpt>
<trkpt lat="46.68205602" lon="7.03338043"><ele>1159.967773</ele><time>2008-04-28T12:40:19Z</time></trkpt>
<trkpt lat="46.68217379" lon="7.03360179"><ele>1162.851807</ele><time>2008-04-28T12:40:31Z</time></trkpt>
<trkpt lat="46.68221000" lon="7.03366684"><ele>1163.812988</ele><time>2008-04-28T12:40:36Z</time></trkpt>
<trkpt lat="46.68225517" lon="7.03373188"><ele>1164.774658</ele><time>2008-04-28T12:40:40Z</time></trkpt>
<trkpt lat="46.68232751" lon="7.03383590"><ele>1168.13916</ele><time>2008-04-28T12:40:58Z</time></trkpt>
<trkpt lat="46.68239968" lon="7.03390069"><ele>1171.023193</ele><time>2008-04-28T12:41:23Z</time></trkpt>
<trkpt lat="46.68252633" lon="7.03409582"><ele>1171.984375</ele><time>2008-04-28T12:41:47Z</time></trkpt>
<trkpt lat="46.68258090" lon="7.03425223"><ele>1174.868408</ele><time>2008-04-28T12:42:02Z</time></trkpt>
<trkpt lat="46.68266237" lon="7.03439548"><ele>1176.791016</ele><time>2008-04-28T12:42:17Z</time></trkpt>
<trkpt lat="46.68276169" lon="7.03451232"><ele>1180.155762</ele><time>2008-04-28T12:42:34Z</time></trkpt>
<trkpt lat="46.68284333" lon="7.03469471"><ele>1181.117188</ele><time>2008-04-28T12:42:56Z</time></trkpt>
<trkpt lat="46.68294350" lon="7.03504692"><ele>1180.155762</ele><time>2008-04-28T12:43:09Z</time></trkpt>
<trkpt lat="46.68302597" lon="7.03546450"><ele>1180.155762</ele><time>2008-04-28T12:43:22Z</time></trkpt>
<trkpt lat="46.68313527" lon="7.03584278"><ele>1182.078369</ele><time>2008-04-28T12:43:37Z</time></trkpt>
<trkpt lat="46.68315430" lon="7.03614327"><ele>1184.000977</ele><time>2008-04-28T12:43:51Z</time></trkpt>
<trkpt lat="46.68318205" lon="7.03636531"><ele>1186.884766</ele><time>2008-04-28T12:44:02Z</time></trkpt>
<trkpt lat="46.68318246" lon="7.03648291"><ele>1189.768799</ele><time>2008-04-28T12:44:07Z</time></trkpt>
<trkpt lat="46.68322798" lon="7.03662632"><ele>1192.172119</ele><time>2008-04-28T12:44:15Z</time></trkpt>
<trkpt lat="46.68324667" lon="7.03682229"><ele>1194.094727</ele><time>2008-04-28T12:44:26Z</time></trkpt>
<trkpt lat="46.68327383" lon="7.03687434"><ele>1196.017578</ele><time>2008-04-28T12:44:43Z</time></trkpt>
<trkpt lat="46.68331959" lon="7.03709621"><ele>1198.901367</ele><time>2008-04-28T12:45:44Z</time></trkpt>
<trkpt lat="46.68333803" lon="7.03723988"><ele>1201.7854</ele><time>2008-04-28T12:45:57Z</time></trkpt>
<trkpt lat="46.68337449" lon="7.03735722"><ele>1206.111084</ele><time>2008-04-28T12:46:10Z</time></trkpt>
<trkpt lat="46.68342009" lon="7.03753995"><ele>1208.033936</ele><time>2008-04-28T12:46:31Z</time></trkpt>
<trkpt lat="46.68347457" lon="7.03769635"><ele>1208.995117</ele><time>2008-04-28T12:46:45Z</time></trkpt>
<trkpt lat="46.68347474" lon="7.03773558"><ele>1208.995117</ele><time>2008-04-28T12:47:05Z</time></trkpt>
<trkpt lat="46.68351145" lon="7.03794446"><ele>1210.917725</ele><time>2008-04-28T12:47:29Z</time></trkpt>
<trkpt lat="46.68362050" lon="7.03825735"><ele>1210.917725</ele><time>2008-04-28T12:47:44Z</time></trkpt>
<trkpt lat="46.68374757" lon="7.03857008"><ele>1211.87915</ele><time>2008-04-28T12:47:59Z</time></trkpt>
<trkpt lat="46.68388369" lon="7.03892204"><ele>1212.840576</ele><time>2008-04-28T12:48:13Z</time></trkpt>
<trkpt lat="46.68397497" lon="7.03930040"><ele>1212.840576</ele><time>2008-04-28T12:48:25Z</time></trkpt>
<trkpt lat="46.68409366" lon="7.03978320"><ele>1212.840576</ele><time>2008-04-28T12:48:38Z</time></trkpt>
<trkpt lat="46.68417622" lon="7.04024009"><ele>1212.840576</ele><time>2008-04-28T12:48:50Z</time></trkpt>
<trkpt lat="46.68432106" lon="7.04050044"><ele>1213.801758</ele><time>2008-04-28T12:49:00Z</time></trkpt>
<trkpt lat="46.68436658" lon="7.04067000"><ele>1212.840576</ele><time>2008-04-28T12:49:05Z</time></trkpt>
<trkpt lat="46.68425862" lon="7.04067084"><ele>1212.840576</ele><time>2008-04-28T12:49:13Z</time></trkpt>
<trkpt lat="46.68424957" lon="7.04065776"><ele>1212.840576</ele><time>2008-04-28T12:49:23Z</time></trkpt>
<trkpt lat="46.68424957" lon="7.04065776"><ele>1206.111084</ele><time>2008-04-28T13:05:13Z</time></trkpt>
<trkpt lat="46.68421336" lon="7.04057964"><ele>1216.205078</ele><time>2008-04-28T13:05:17Z</time></trkpt>
<trkpt lat="46.68423146" lon="7.04061870"><ele>1212.840576</ele><time>2008-04-28T13:05:23Z</time></trkpt>
<trkpt lat="46.68423129" lon="7.04056640"><ele>1212.840576</ele><time>2008-04-28T13:05:26Z</time></trkpt>
<trkpt lat="46.68424948" lon="7.04063170"><ele>1211.87915</ele><time>2008-04-28T13:05:30Z</time></trkpt>
<trkpt lat="46.68424990" lon="7.04073622"><ele>1208.995117</ele><time>2008-04-28T13:05:34Z</time></trkpt>
<trkpt lat="46.68424990" lon="7.04073622"><ele>1208.033936</ele><time>2008-04-28T13:05:39Z</time></trkpt>
<trkpt lat="46.68431293" lon="7.04076187"><ele>1206.111084</ele><time>2008-04-28T13:05:43Z</time></trkpt>
<trkpt lat="46.68433095" lon="7.04077486"><ele>1206.111084</ele><time>2008-04-28T13:05:44Z</time></trkpt>
<trkpt lat="46.68440321" lon="7.04085273"><ele>1205.149902</ele><time>2008-04-28T13:05:47Z</time></trkpt>
<trkpt lat="46.68454813" lon="7.04112615"><ele>1199.862793</ele><time>2008-04-28T13:05:52Z</time></trkpt>
<trkpt lat="46.68463865" lon="7.04130854"><ele>1196.017578</ele><time>2008-04-28T13:05:55Z</time></trkpt>
<trkpt lat="46.68472926" lon="7.04149084"><ele>1193.133301</ele><time>2008-04-28T13:05:58Z</time></trkpt>
<trkpt lat="46.68482012" lon="7.04175160"><ele>1191.210693</ele><time>2008-04-28T13:06:02Z</time></trkpt>
<trkpt lat="46.68491961" lon="7.04190776"><ele>1188.807617</ele><time>2008-04-28T13:06:05Z</time></trkpt>
<trkpt lat="46.68500989" lon="7.04199853"><ele>1191.210693</ele><time>2008-04-28T13:06:08Z</time></trkpt>
<trkpt lat="46.68528993" lon="7.04233641"><ele>1193.133301</ele><time>2008-04-28T13:06:21Z</time></trkpt>
<trkpt lat="46.68551607" lon="7.04270069"><ele>1193.133301</ele><time>2008-04-28T13:06:33Z</time></trkpt>
<trkpt lat="46.68576040" lon="7.04310411"><ele>1191.210693</ele><time>2008-04-28T13:06:46Z</time></trkpt>
<trkpt lat="46.68583291" lon="7.04327350"><ele>1191.210693</ele><time>2008-04-28T13:06:52Z</time></trkpt>
<trkpt lat="46.68591455" lon="7.04346905"><ele>1191.210693</ele><time>2008-04-28T13:06:59Z</time></trkpt>
<trkpt lat="46.68607741" lon="7.04372923"><ele>1191.210693</ele><time>2008-04-28T13:07:11Z</time></trkpt>
<trkpt lat="46.68614966" lon="7.04380718"><ele>1191.210693</ele><time>2008-04-28T13:07:17Z</time></trkpt>
<trkpt lat="46.68631269" lon="7.04413273"><ele>1191.210693</ele><time>2008-04-28T13:07:31Z</time></trkpt>
<trkpt lat="46.68646658" lon="7.04440615"><ele>1193.133301</ele><time>2008-04-28T13:07:45Z</time></trkpt>
<trkpt lat="46.68650279" lon="7.04447128"><ele>1192.172119</ele><time>2008-04-28T13:07:50Z</time></trkpt>
<trkpt lat="46.68652995" lon="7.04453641"><ele>1192.172119</ele><time>2008-04-28T13:07:54Z</time></trkpt>
<trkpt lat="46.68658434" lon="7.04464059"><ele>1189.768799</ele><time>2008-04-28T13:07:59Z</time></trkpt>
<trkpt lat="46.68672910" lon="7.04490094"><ele>1186.884766</ele><time>2008-04-28T13:08:08Z</time></trkpt>
<trkpt lat="46.68684661" lon="7.04505701"><ele>1184.962402</ele><time>2008-04-28T13:08:15Z</time></trkpt>
<trkpt lat="46.68694611" lon="7.04521316"><ele>1182.078369</ele><time>2008-04-28T13:08:25Z</time></trkpt>
<trkpt lat="46.68696413" lon="7.04522607"><ele>1182.078369</ele><time>2008-04-28T13:08:26Z</time></trkpt>
<trkpt lat="46.68704543" lon="7.04531701"><ele>1178.23291</ele><time>2008-04-28T13:08:43Z</time></trkpt>
<trkpt lat="46.68713596" lon="7.04548624"><ele>1174.868408</ele><time>2008-04-28T13:08:58Z</time></trkpt>
<trkpt lat="46.68720838" lon="7.04561641"><ele>1171.984375</ele><time>2008-04-28T13:09:10Z</time></trkpt>
<trkpt lat="46.68732589" lon="7.04578556"><ele>1170.061768</ele><time>2008-04-28T13:09:26Z</time></trkpt>
<trkpt lat="46.68734400" lon="7.04581155"><ele>1170.061768</ele><time>2008-04-28T13:09:28Z</time></trkpt>
<trkpt lat="46.68741625" lon="7.04588941"><ele>1169.100586</ele><time>2008-04-28T13:09:32Z</time></trkpt>
<trkpt lat="46.68765999" lon="7.04614908"><ele>1169.100586</ele><time>2008-04-28T13:09:46Z</time></trkpt>
<trkpt lat="46.68776837" lon="7.04626601"><ele>1171.984375</ele><time>2008-04-28T13:09:57Z</time></trkpt>
<trkpt lat="46.68785881" lon="7.04642217"><ele>1173.906982</ele><time>2008-04-28T13:10:10Z</time></trkpt>
<trkpt lat="46.68791304" lon="7.04650020"><ele>1172.945801</ele><time>2008-04-28T13:10:20Z</time></trkpt>
<trkpt lat="46.68794028" lon="7.04656541"><ele>1172.945801</ele><time>2008-04-28T13:10:24Z</time></trkpt>
<trkpt lat="46.68808437" lon="7.04661663"><ele>1169.100586</ele><time>2008-04-28T13:10:44Z</time></trkpt>
<trkpt lat="46.68808437" lon="7.04661663"><ele>1169.100586</ele><time>2008-04-28T13:10:45Z</time></trkpt>
<trkpt lat="46.68810247" lon="7.04664261"><ele>1167.177979</ele><time>2008-04-28T13:10:49Z</time></trkpt>
<trkpt lat="46.68813852" lon="7.04666851"><ele>1164.774658</ele><time>2008-04-28T13:10:57Z</time></trkpt>
<trkpt lat="46.68821965" lon="7.04670715"><ele>1163.812988</ele><time>2008-04-28T13:11:00Z</time></trkpt>
<trkpt lat="46.68854445" lon="7.04699239"><ele>1163.812988</ele><time>2008-04-28T13:11:11Z</time></trkpt>
<trkpt lat="46.68865266" lon="7.04705693"><ele>1163.812988</ele><time>2008-04-28T13:11:16Z</time></trkpt>
<trkpt lat="46.68869784" lon="7.04712197"><ele>1163.812988</ele><time>2008-04-28T13:11:20Z</time></trkpt>
<trkpt lat="46.68899506" lon="7.04722440"><ele>1163.812988</ele><time>2008-04-28T13:11:32Z</time></trkpt>
<trkpt lat="46.68918424" lon="7.04730151"><ele>1162.851807</ele><time>2008-04-28T13:11:40Z</time></trkpt>
<trkpt lat="46.68937359" lon="7.04743084"><ele>1160.929199</ele><time>2008-04-28T13:11:47Z</time></trkpt>
<trkpt lat="46.68953578" lon="7.04750813"><ele>1159.006592</ele><time>2008-04-28T13:11:53Z</time></trkpt>
<trkpt lat="46.68983292" lon="7.04761055"><ele>1157.083984</ele><time>2008-04-28T13:12:03Z</time></trkpt>
<trkpt lat="46.68991406" lon="7.04766227"><ele>1155.161377</ele><time>2008-04-28T13:12:05Z</time></trkpt>
<trkpt lat="46.68999519" lon="7.04770091"><ele>1155.161377</ele><time>2008-04-28T13:12:07Z</time></trkpt>
<trkpt lat="46.69018437" lon="7.04779102"><ele>1156.122559</ele><time>2008-04-28T13:12:12Z</time></trkpt>
<trkpt lat="46.69046382" lon="7.04795890"><ele>1157.083984</ele><time>2008-04-28T13:12:24Z</time></trkpt>
<trkpt lat="46.69063515" lon="7.04807533"><ele>1159.967773</ele><time>2008-04-28T13:12:35Z</time></trkpt>
<trkpt lat="46.69083313" lon="7.04810006"><ele>1161.890625</ele><time>2008-04-28T13:12:49Z</time></trkpt>
<trkpt lat="46.69106715" lon="7.04812453"><ele>1164.774658</ele><time>2008-04-28T13:13:05Z</time></trkpt>
<trkpt lat="46.69126513" lon="7.04814926"><ele>1164.774658</ele><time>2008-04-28T13:13:20Z</time></trkpt>
<trkpt lat="46.69146303" lon="7.04816091"><ele>1169.100586</ele><time>2008-04-28T13:13:34Z</time></trkpt>
<trkpt lat="46.69169680" lon="7.04813300"><ele>1169.100586</ele><time>2008-04-28T13:13:49Z</time></trkpt>
<trkpt lat="46.69200232" lon="7.04802621"><ele>1166.216553</ele><time>2008-04-28T13:13:59Z</time></trkpt>
<trkpt lat="46.69228102" lon="7.04798497"><ele>1161.890625</ele><time>2008-04-28T13:14:09Z</time></trkpt>
<trkpt lat="46.69233500" lon="7.04798464"><ele>1161.890625</ele><time>2008-04-28T13:14:10Z</time></trkpt>
<trkpt lat="46.69261387" lon="7.04798263"><ele>1163.812988</ele><time>2008-04-28T13:14:20Z</time></trkpt>
<trkpt lat="46.69297362" lon="7.04795388"><ele>1163.812988</ele><time>2008-04-28T13:14:36Z</time></trkpt>
<trkpt lat="46.69329758" lon="7.04799076"><ele>1164.774658</ele><time>2008-04-28T13:14:52Z</time></trkpt>
<trkpt lat="46.69352230" lon="7.04793678"><ele>1169.100586</ele><time>2008-04-28T13:15:05Z</time></trkpt>
<trkpt lat="46.69358474" lon="7.04777945"><ele>1164.774658</ele><time>2008-04-28T13:15:11Z</time></trkpt>
<trkpt lat="46.69360251" lon="7.04771399"><ele>1163.812988</ele><time>2008-04-28T13:15:13Z</time></trkpt>
<trkpt lat="46.69375422" lon="7.04735985"><ele>1160.929199</ele><time>2008-04-28T13:15:23Z</time></trkpt>
<trkpt lat="46.69382555" lon="7.04717637"><ele>1158.04541</ele><time>2008-04-28T13:15:30Z</time></trkpt>
<trkpt lat="46.69386101" lon="7.04704536"><ele>1156.122559</ele><time>2008-04-28T13:15:35Z</time></trkpt>
<trkpt lat="46.69371701" lon="7.04700714"><ele>1155.161377</ele><time>2008-04-28T13:15:45Z</time></trkpt>
<trkpt lat="46.69368113" lon="7.04704662"><ele>1158.04541</ele><time>2008-04-28T13:15:47Z</time></trkpt>
<trkpt lat="46.69364526" lon="7.04708610"><ele>1156.122559</ele><time>2008-04-28T13:15:49Z</time></trkpt>
<trkpt lat="46.69328609" lon="7.04725868"><ele>1153.23877</ele><time>2008-04-28T13:16:02Z</time></trkpt>
<trkpt lat="46.69324108" lon="7.04725902"><ele>1153.23877</ele><time>2008-04-28T13:16:03Z</time></trkpt>
<trkpt lat="46.69306112" lon="7.04724728"><ele>1151.796875</ele><time>2008-04-28T13:16:07Z</time></trkpt>
<trkpt lat="46.69286281" lon="7.04711795"><ele>1150.835449</ele><time>2008-04-28T13:16:12Z</time></trkpt>
<trkpt lat="46.69268226" lon="7.04694930"><ele>1149.874268</ele><time>2008-04-28T13:16:17Z</time></trkpt>
<trkpt lat="46.69222327" lon="7.04688728"><ele>1146.98999</ele><time>2008-04-28T13:16:28Z</time></trkpt>
<trkpt lat="46.69216937" lon="7.04688770"><ele>1146.028809</ele><time>2008-04-28T13:16:29Z</time></trkpt>
<trkpt lat="46.69201640" lon="7.04687571"><ele>1146.028809</ele><time>2008-04-28T13:16:32Z</time></trkpt>
<trkpt lat="46.69162028" lon="7.04680011"><ele>1144.106201</ele><time>2008-04-28T13:16:40Z</time></trkpt>
<trkpt lat="46.69147627" lon="7.04676197"><ele>1141.222168</ele><time>2008-04-28T13:16:43Z</time></trkpt>
<trkpt lat="46.69116992" lon="7.04662040"><ele>1139.780273</ele><time>2008-04-28T13:16:50Z</time></trkpt>
<trkpt lat="46.69104360" lon="7.04651671"><ele>1138.819092</ele><time>2008-04-28T13:16:53Z</time></trkpt>
<trkpt lat="46.69084478" lon="7.04624363"><ele>1134.973877</ele><time>2008-04-28T13:16:58Z</time></trkpt>
<trkpt lat="46.69069106" lon="7.04600944"><ele>1131.128418</ele><time>2008-04-28T13:17:02Z</time></trkpt>
<trkpt lat="46.69058260" lon="7.04586645"><ele>1130.166992</ele><time>2008-04-28T13:17:05Z</time></trkpt>
<trkpt lat="46.69052786" lon="7.04565765"><ele>1126.80249</ele><time>2008-04-28T13:17:09Z</time></trkpt>
<trkpt lat="46.69050045" lon="7.04551407"><ele>1124.879883</ele><time>2008-04-28T13:17:12Z</time></trkpt>
<trkpt lat="46.69050867" lon="7.04530486"><ele>1121.034668</ele><time>2008-04-28T13:17:16Z</time></trkpt>
<trkpt lat="46.69056172" lon="7.04502993"><ele>1118.150635</ele><time>2008-04-28T13:17:22Z</time></trkpt>
<trkpt lat="46.69062400" lon="7.04482030"><ele>1114.785889</ele><time>2008-04-28T13:17:26Z</time></trkpt>
<trkpt lat="46.69064169" lon="7.04474168"><ele>1114.785889</ele><time>2008-04-28T13:17:27Z</time></trkpt>
<trkpt lat="46.69067656" lon="7.04442769"><ele>1110.940674</ele><time>2008-04-28T13:17:31Z</time></trkpt>
<trkpt lat="46.69067639" lon="7.04436231"><ele>1110.940674</ele><time>2008-04-28T13:17:32Z</time></trkpt>
<trkpt lat="46.69066717" lon="7.04431009"><ele>1110.940674</ele><time>2008-04-28T13:17:33Z</time></trkpt>
<trkpt lat="46.69046919" lon="7.04428545"><ele>1110.940674</ele><time>2008-04-28T13:17:40Z</time></trkpt>
<trkpt lat="46.69035251" lon="7.04435167"><ele>1109.018066</ele><time>2008-04-28T13:17:43Z</time></trkpt>
<trkpt lat="46.69025369" lon="7.04440464"><ele>1108.056885</ele><time>2008-04-28T13:17:45Z</time></trkpt>
<trkpt lat="46.69011874" lon="7.04440565"><ele>1106.134033</ele><time>2008-04-28T13:17:47Z</time></trkpt>
<trkpt lat="46.68983971" lon="7.04434228"><ele>1100.846924</ele><time>2008-04-28T13:17:51Z</time></trkpt>
<trkpt lat="46.68978564" lon="7.04431655"><ele>1101.80835</ele><time>2008-04-28T13:17:52Z</time></trkpt>
<trkpt lat="46.68941592" lon="7.04407088"><ele>1097.962891</ele><time>2008-04-28T13:17:58Z</time></trkpt>
<trkpt lat="46.68936169" lon="7.04397976"><ele>1097.001465</ele><time>2008-04-28T13:17:59Z</time></trkpt>
<trkpt lat="46.68906371" lon="7.04365513"><ele>1093.15625</ele><time>2008-04-28T13:18:04Z</time></trkpt>
<trkpt lat="46.68868485" lon="7.04335724"><ele>1089.791748</ele><time>2008-04-28T13:18:10Z</time></trkpt>
<trkpt lat="46.68861209" lon="7.04312246"><ele>1087.869141</ele><time>2008-04-28T13:18:13Z</time></trkpt>
<trkpt lat="46.68857521" lon="7.04286128"><ele>1087.869141</ele><time>2008-04-28T13:18:16Z</time></trkpt>
<trkpt lat="46.68847522" lon="7.04256138"><ele>1089.791748</ele><time>2008-04-28T13:18:20Z</time></trkpt>
<trkpt lat="46.68845703" lon="7.04250924"><ele>1089.791748</ele><time>2008-04-28T13:18:21Z</time></trkpt>
<trkpt lat="46.68861855" lon="7.04239039"><ele>1086.907715</ele><time>2008-04-28T13:18:27Z</time></trkpt>
<trkpt lat="46.68875316" lon="7.04231093"><ele>1083.062256</ele><time>2008-04-28T13:18:30Z</time></trkpt>
<trkpt lat="46.68878904" lon="7.04228452"><ele>1082.101074</ele><time>2008-04-28T13:18:31Z</time></trkpt>
<trkpt lat="46.68886079" lon="7.04220557"><ele>1081.139893</ele><time>2008-04-28T13:18:33Z</time></trkpt>
<trkpt lat="46.68898609" lon="7.04202167"><ele>1076.813965</ele><time>2008-04-28T13:18:37Z</time></trkpt>
<trkpt lat="46.68905776" lon="7.04194271"><ele>1074.891357</ele><time>2008-04-28T13:18:39Z</time></trkpt>
<trkpt lat="46.68916522" lon="7.04179812"><ele>1071.046143</ele><time>2008-04-28T13:18:42Z</time></trkpt>
<trkpt lat="46.68924593" lon="7.04173216"><ele>1070.084717</ele><time>2008-04-28T13:18:44Z</time></trkpt>
<trkpt lat="46.68940729" lon="7.04157407"><ele>1066.239258</ele><time>2008-04-28T13:18:48Z</time></trkpt>
<trkpt lat="46.68956889" lon="7.04148137"><ele>1061.913574</ele><time>2008-04-28T13:18:52Z</time></trkpt>
<trkpt lat="46.68960485" lon="7.04146804"><ele>1060.952148</ele><time>2008-04-28T13:18:53Z</time></trkpt>
<trkpt lat="46.68971264" lon="7.04142806"><ele>1059.029541</ele><time>2008-04-28T13:18:56Z</time></trkpt>
<trkpt lat="46.68984742" lon="7.04138783"><ele>1055.184326</ele><time>2008-04-28T13:18:59Z</time></trkpt>
<trkpt lat="46.69005403" lon="7.04129479"><ele>1049.896973</ele><time>2008-04-28T13:19:04Z</time></trkpt>
<trkpt lat="46.69017046" lon="7.04115012"><ele>1047.012939</ele><time>2008-04-28T13:19:07Z</time></trkpt>
<trkpt lat="46.69035855" lon="7.04091341"><ele>1043.167725</ele><time>2008-04-28T13:19:11Z</time></trkpt>
<trkpt lat="46.69055577" lon="7.04072901"><ele>1037.880615</ele><time>2008-04-28T13:19:15Z</time></trkpt>
<trkpt lat="46.69076180" lon="7.04047906"><ele>1034.035156</ele><time>2008-04-28T13:19:19Z</time></trkpt>
<trkpt lat="46.69099473" lon="7.04020279"><ele>1031.151367</ele><time>2008-04-28T13:19:24Z</time></trkpt>
<trkpt lat="46.69111124" lon="7.04007120"><ele>1026.825439</ele><time>2008-04-28T13:19:27Z</time></trkpt>
<trkpt lat="46.69120093" lon="7.03999216"><ele>1022.018799</ele><time>2008-04-28T13:19:29Z</time></trkpt>
<trkpt lat="46.69131752" lon="7.03989979"><ele>1020.096191</ele><time>2008-04-28T13:19:32Z</time></trkpt>
<trkpt lat="46.69138927" lon="7.03984698"><ele>1017.212158</ele><time>2008-04-28T13:19:35Z</time></trkpt>
<trkpt lat="46.69148793" lon="7.03975470"><ele>1012.88623</ele><time>2008-04-28T13:19:39Z</time></trkpt>
<trkpt lat="46.69152380" lon="7.03972830"><ele>1012.88623</ele><time>2008-04-28T13:19:40Z</time></trkpt>
<trkpt lat="46.69187383" lon="7.03950349"><ele>1009.041016</ele><time>2008-04-28T13:19:46Z</time></trkpt>
<trkpt lat="46.69206242" lon="7.03939746"><ele>1006.156982</ele><time>2008-04-28T13:19:49Z</time></trkpt>
<trkpt lat="46.69235813" lon="7.03906847"><ele>1001.831055</ele><time>2008-04-28T13:19:54Z</time></trkpt>
<trkpt lat="46.69249241" lon="7.03888441"><ele>997.98584</ele><time>2008-04-28T13:19:56Z</time></trkpt>
<trkpt lat="46.69255503" lon="7.03879246"><ele>995.101807</ele><time>2008-04-28T13:19:57Z</time></trkpt>
<trkpt lat="46.69269836" lon="7.03860839"><ele>990.775879</ele><time>2008-04-28T13:19:59Z</time></trkpt>
<trkpt lat="46.69292224" lon="7.03831913"><ele>988.853516</ele><time>2008-04-28T13:20:02Z</time></trkpt>
<trkpt lat="46.69298485" lon="7.03822710"><ele>988.853516</ele><time>2008-04-28T13:20:03Z</time></trkpt>
<trkpt lat="46.69320798" lon="7.03772871"><ele>984.046631</ele><time>2008-04-28T13:20:07Z</time></trkpt>
<trkpt lat="46.69325257" lon="7.03761069"><ele>985.008057</ele><time>2008-04-28T13:20:08Z</time></trkpt>
<trkpt lat="46.69343052" lon="7.03704718"><ele>982.124023</ele><time>2008-04-28T13:20:12Z</time></trkpt>
<trkpt lat="46.69371542" lon="7.03620840"><ele>977.798096</ele><time>2008-04-28T13:20:19Z</time></trkpt>
<trkpt lat="46.69381315" lon="7.03586776"><ele>974.914307</ele><time>2008-04-28T13:20:22Z</time></trkpt>
<trkpt lat="46.69388414" lon="7.03560574"><ele>971.068848</ele><time>2008-04-28T13:20:24Z</time></trkpt>
<trkpt lat="46.69395514" lon="7.03533065"><ele>968.184814</ele><time>2008-04-28T13:20:26Z</time></trkpt>
<trkpt lat="46.69407047" lon="7.03487224"><ele>962.897705</ele><time>2008-04-28T13:20:29Z</time></trkpt>
<trkpt lat="46.69418589" lon="7.03443990"><ele>960.013672</ele><time>2008-04-28T13:20:32Z</time></trkpt>
<trkpt lat="46.69423032" lon="7.03428266"><ele>960.013672</ele><time>2008-04-28T13:20:33Z</time></trkpt>
<trkpt lat="46.69431933" lon="7.03402055"><ele>959.05249</ele><time>2008-04-28T13:20:35Z</time></trkpt>
<trkpt lat="46.69461454" lon="7.03356072"><ele>955.207031</ele><time>2008-04-28T13:20:39Z</time></trkpt>
<trkpt lat="46.69488327" lon="7.03323190"><ele>950.881104</ele><time>2008-04-28T13:20:42Z</time></trkpt>
<trkpt lat="46.69506239" lon="7.03300827"><ele>948.958496</ele><time>2008-04-28T13:20:44Z</time></trkpt>
<trkpt lat="46.69534846" lon="7.03249622"><ele>946.074707</ele><time>2008-04-28T13:20:48Z</time></trkpt>
<trkpt lat="46.69594752" lon="7.03148503"><ele>943.190674</ele><time>2008-04-28T13:20:57Z</time></trkpt>
<trkpt lat="46.69641338" lon="7.03095856"><ele>938.864746</ele><time>2008-04-28T13:21:03Z</time></trkpt>
<trkpt lat="46.69655663" lon="7.03076134"><ele>936.941895</ele><time>2008-04-28T13:21:05Z</time></trkpt>
<trkpt lat="46.69678940" lon="7.03044584"><ele>933.09668</ele><time>2008-04-28T13:21:08Z</time></trkpt>
<trkpt lat="46.69695041" lon="7.03019614"><ele>928.770996</ele><time>2008-04-28T13:21:10Z</time></trkpt>
<trkpt lat="46.69709332" lon="7.02990747"><ele>922.041504</ele><time>2008-04-28T13:21:12Z</time></trkpt>
<trkpt lat="46.69721813" lon="7.02959273"><ele>921.080322</ele><time>2008-04-28T13:21:14Z</time></trkpt>
<trkpt lat="46.69735190" lon="7.02927791"><ele>917.235107</ele><time>2008-04-28T13:21:16Z</time></trkpt>
<trkpt lat="46.69746774" lon="7.02895017"><ele>913.870361</ele><time>2008-04-28T13:21:18Z</time></trkpt>
<trkpt lat="46.69789606" lon="7.02799246"><ele>912.90918</ele><time>2008-04-28T13:21:26Z</time></trkpt>
<trkpt lat="46.69798541" lon="7.02783488"><ele>912.90918</ele><time>2008-04-28T13:21:28Z</time></trkpt>
<trkpt lat="46.69820954" lon="7.02762399"><ele>912.90918</ele><time>2008-04-28T13:21:32Z</time></trkpt>
<trkpt lat="46.69926918" lon="7.02709291"><ele>911.947998</ele><time>2008-04-28T13:21:46Z</time></trkpt>
<trkpt lat="46.69965433" lon="7.02663241"><ele>910.986572</ele><time>2008-04-28T13:21:52Z</time></trkpt>
<trkpt lat="46.69996697" lon="7.02604165"><ele>910.025146</ele><time>2008-04-28T13:21:58Z</time></trkpt>
<trkpt lat="46.70032555" lon="7.02569892"><ele>908.102783</ele><time>2008-04-28T13:22:03Z</time></trkpt>
<trkpt lat="46.70083769" lon="7.02551192"><ele>907.141113</ele><time>2008-04-28T13:22:09Z</time></trkpt>
<trkpt lat="46.70099912" lon="7.02537999"><ele>862.920654</ele><time>2008-04-28T13:22:11Z</time></trkpt>
<trkpt lat="46.70117833" lon="7.02519550"><ele>860.036621</ele><time>2008-04-28T13:22:13Z</time></trkpt>
<trkpt lat="46.70134856" lon="7.02501118"><ele>858.114014</ele><time>2008-04-28T13:22:15Z</time></trkpt>
<trkpt lat="46.70179741" lon="7.02473315"><ele>853.788086</ele><time>2008-04-28T13:22:20Z</time></trkpt>
<trkpt lat="46.70187822" lon="7.02469326"><ele>853.788086</ele><time>2008-04-28T13:22:21Z</time></trkpt>
<trkpt lat="46.70212959" lon="7.02456057"><ele>848.981445</ele><time>2008-04-28T13:22:24Z</time></trkpt>
<trkpt lat="46.70247970" lon="7.02437483"><ele>845.13623</ele><time>2008-04-28T13:22:28Z</time></trkpt>
<trkpt lat="46.70285664" lon="7.02412354"><ele>843.213379</ele><time>2008-04-28T13:22:33Z</time></trkpt>
<trkpt lat="46.70311597" lon="7.02370310"><ele>837.92627</ele><time>2008-04-28T13:22:38Z</time></trkpt>
<trkpt lat="46.70317808" lon="7.02346724"><ele>836.003662</ele><time>2008-04-28T13:22:40Z</time></trkpt>
<trkpt lat="46.70327481" lon="7.02285192"><ele>831.197266</ele><time>2008-04-28T13:22:45Z</time></trkpt>
<trkpt lat="46.70329241" lon="7.02274723"><ele>830.23584</ele><time>2008-04-28T13:22:46Z</time></trkpt>
<trkpt lat="46.70342602" lon="7.02238002"><ele>826.871094</ele><time>2008-04-28T13:22:50Z</time></trkpt>
<trkpt lat="46.70369533" lon="7.02222110"><ele>823.025879</ele><time>2008-04-28T13:22:54Z</time></trkpt>
<trkpt lat="46.70377630" lon="7.02222043"><ele>821.103271</ele><time>2008-04-28T13:22:55Z</time></trkpt>
<trkpt lat="46.70420830" lon="7.02228245"><ele>816.777344</ele><time>2008-04-28T13:23:00Z</time></trkpt>
<trkpt lat="46.70428919" lon="7.02226879"><ele>815.816162</ele><time>2008-04-28T13:23:01Z</time></trkpt>
<trkpt lat="46.70453176" lon="7.02218849"><ele>811.970703</ele><time>2008-04-28T13:23:04Z</time></trkpt>
<trkpt lat="46.70466629" lon="7.02206972"><ele>808.125488</ele><time>2008-04-28T13:23:06Z</time></trkpt>
<trkpt lat="46.70472899" lon="7.02200384"><ele>808.125488</ele><time>2008-04-28T13:23:07Z</time></trkpt>
<trkpt lat="46.70494381" lon="7.02171450"><ele>807.164063</ele><time>2008-04-28T13:23:16Z</time></trkpt>
<trkpt lat="46.70497047" lon="7.02162280"><ele>804.760742</ele><time>2008-04-28T13:23:19Z</time></trkpt>
<trkpt lat="46.70500525" lon="7.02129565"><ele>802.838135</ele><time>2008-04-28T13:23:28Z</time></trkpt>
<trkpt lat="46.70531916" lon="7.02103162"><ele>798.99292</ele><time>2008-04-28T13:23:35Z</time></trkpt>
<trkpt lat="46.70539954" lon="7.02086105"><ele>798.031738</ele><time>2008-04-28T13:23:38Z</time></trkpt>
<trkpt lat="46.70541689" lon="7.02070397"><ele>797.070313</ele><time>2008-04-28T13:23:40Z</time></trkpt>
<trkpt lat="46.70542493" lon="7.02044237"><ele>795.147461</ele><time>2008-04-28T13:23:43Z</time></trkpt>
<trkpt lat="46.70546844" lon="7.02002361"><ele>791.782959</ele><time>2008-04-28T13:23:47Z</time></trkpt>
<trkpt lat="46.70551211" lon="7.01967023"><ele>789.860352</ele><time>2008-04-28T13:23:50Z</time></trkpt>
<trkpt lat="46.70562727" lon="7.01918551"><ele>784.092529</ele><time>2008-04-28T13:23:54Z</time></trkpt>
<trkpt lat="46.70576122" lon="7.01892290"><ele>786.976318</ele><time>2008-04-28T13:23:57Z</time></trkpt>
<trkpt lat="46.70601100" lon="7.01834564"><ele>786.015137</ele><time>2008-04-28T13:24:08Z</time></trkpt>
<trkpt lat="46.70601988" lon="7.01831941"><ele>786.015137</ele><time>2008-04-28T13:24:15Z</time></trkpt>
<trkpt lat="46.70600119" lon="7.01813643"><ele>783.131104</ele><time>2008-04-28T13:24:19Z</time></trkpt>
<trkpt lat="46.70597370" lon="7.01799285"><ele>782.169922</ele><time>2008-04-28T13:24:21Z</time></trkpt>
<trkpt lat="46.70595543" lon="7.01791448"><ele>782.169922</ele><time>2008-04-28T13:24:22Z</time></trkpt>
<trkpt lat="46.70560297" lon="7.01748574"><ele>776.882568</ele><time>2008-04-28T13:24:29Z</time></trkpt>
<trkpt lat="46.70552191" lon="7.01744710"><ele>776.882568</ele><time>2008-04-28T13:24:30Z</time></trkpt>
<trkpt lat="46.70544983" lon="7.01742154"><ele>775.921143</ele><time>2008-04-28T13:24:31Z</time></trkpt>
<trkpt lat="46.70529669" lon="7.01737041"><ele>774.959961</ele><time>2008-04-28T13:24:33Z</time></trkpt>
<trkpt lat="46.70502470" lon="7.01679717"><ele>772.075928</ele><time>2008-04-28T13:24:40Z</time></trkpt>
<trkpt lat="46.70520374" lon="7.01654730"><ele>771.114746</ele><time>2008-04-28T13:24:43Z</time></trkpt>
<trkpt lat="46.70554471" lon="7.01632233"><ele>762.943359</ele><time>2008-04-28T13:24:47Z</time></trkpt>
<trkpt lat="46.70573330" lon="7.01624245"><ele>761.982178</ele><time>2008-04-28T13:24:49Z</time></trkpt>
<trkpt lat="46.70584110" lon="7.01620239"><ele>761.020752</ele><time>2008-04-28T13:24:50Z</time></trkpt>
<trkpt lat="46.70616464" lon="7.01612134"><ele>760.059326</ele><time>2008-04-28T13:24:53Z</time></trkpt>
<trkpt lat="46.70678507" lon="7.01605109"><ele>756.214111</ele><time>2008-04-28T13:24:58Z</time></trkpt>
<trkpt lat="46.70689302" lon="7.01605026"><ele>756.214111</ele><time>2008-04-28T13:24:59Z</time></trkpt>
<trkpt lat="46.70709092" lon="7.01603567"><ele>754.772217</ele><time>2008-04-28T13:25:01Z</time></trkpt>
<trkpt lat="46.70735227" lon="7.01616442"><ele>751.888428</ele><time>2008-04-28T13:25:04Z</time></trkpt>
<trkpt lat="46.70746090" lon="7.01634664"><ele>750.927002</ele><time>2008-04-28T13:25:06Z</time></trkpt>
<trkpt lat="46.70754254" lon="7.01654211"><ele>749.96582</ele><time>2008-04-28T13:25:08Z</time></trkpt>
<trkpt lat="46.70806758" lon="7.01742724"><ele>749.004395</ele><time>2008-04-28T13:25:16Z</time></trkpt>
<trkpt lat="46.70878256" lon="7.01861168"><ele>749.96582</ele><time>2008-04-28T13:25:29Z</time></trkpt>
<trkpt lat="46.70946183" lon="7.01984877"><ele>751.888428</ele><time>2008-04-28T13:25:45Z</time></trkpt>
<trkpt lat="46.70961597" lon="7.02017457"><ele>754.772217</ele><time>2008-04-28T13:25:50Z</time></trkpt>
<trkpt lat="46.70984295" lon="7.02074823"><ele>757.175537</ele><time>2008-04-28T13:26:00Z</time></trkpt>
<trkpt lat="46.71003247" lon="7.02092978"><ele>758.136963</ele><time>2008-04-28T13:26:05Z</time></trkpt>
<trkpt lat="46.71046388" lon="7.02082182"><ele>757.175537</ele><time>2008-04-28T13:26:15Z</time></trkpt>
<trkpt lat="46.71125203" lon="7.01987416"><ele>756.214111</ele><time>2008-04-28T13:26:34Z</time></trkpt>
<trkpt lat="46.71195192" lon="7.01939791"><ele>754.772217</ele><time>2008-04-28T13:26:47Z</time></trkpt>
<trkpt lat="46.71200573" lon="7.01935826"><ele>756.214111</ele><time>2008-04-28T13:26:48Z</time></trkpt>
<trkpt lat="46.71266832" lon="7.01851613"><ele>754.772217</ele><time>2008-04-28T13:27:03Z</time></trkpt>
<trkpt lat="46.71291006" lon="7.01820030"><ele>754.772217</ele><time>2008-04-28T13:27:09Z</time></trkpt>
<trkpt lat="46.71368161" lon="7.01764500"><ele>752.849609</ele><time>2008-04-28T13:27:23Z</time></trkpt>
<trkpt lat="46.71409442" lon="7.01736714"><ele>749.004395</ele><time>2008-04-28T13:27:29Z</time></trkpt>
<trkpt lat="46.71453372" lon="7.01697134"><ele>749.004395</ele><time>2008-04-28T13:27:36Z</time></trkpt>
<trkpt lat="46.71466825" lon="7.01686565"><ele>749.004395</ele><time>2008-04-28T13:27:40Z</time></trkpt>
<trkpt lat="46.71470395" lon="7.01678694"><ele>748.043213</ele><time>2008-04-28T13:27:42Z</time></trkpt>
<trkpt lat="46.71468568" lon="7.01669550"><ele>748.043213</ele><time>2008-04-28T13:27:44Z</time></trkpt>
<trkpt lat="46.71462206" lon="7.01653909"><ele>748.043213</ele><time>2008-04-28T13:27:47Z</time></trkpt>
<trkpt lat="46.71447655" lon="7.01610859"><ele>749.004395</ele><time>2008-04-28T13:27:54Z</time></trkpt>
<trkpt lat="46.71400465" lon="7.01498760"><ele>749.004395</ele><time>2008-04-28T13:28:12Z</time></trkpt>
<trkpt lat="46.71388680" lon="7.01474000"><ele>750.927002</ele><time>2008-04-28T13:28:17Z</time></trkpt>
<trkpt lat="46.71360517" lon="7.01399677"><ele>752.849609</ele><time>2008-04-28T13:28:33Z</time></trkpt>
<trkpt lat="46.71359545" lon="7.01381371"><ele>752.849609</ele><time>2008-04-28T13:28:36Z</time></trkpt>
<trkpt lat="46.71352160" lon="7.01329119"><ele>749.96582</ele><time>2008-04-28T13:28:44Z</time></trkpt>
<trkpt lat="46.71351993" lon="7.01285960"><ele>748.043213</ele><time>2008-04-28T13:28:49Z</time></trkpt>
<trkpt lat="46.71351699" lon="7.01207489"><ele>745.158936</ele><time>2008-04-28T13:28:57Z</time></trkpt>
<trkpt lat="46.71347843" lon="7.01136896"><ele>741.794434</ele><time>2008-04-28T13:29:04Z</time></trkpt>
<trkpt lat="46.71345966" lon="7.01115984"><ele>740.833008</ele><time>2008-04-28T13:29:06Z</time></trkpt>
<trkpt lat="46.71340157" lon="7.01007480"><ele>739.871826</ele><time>2008-04-28T13:29:17Z</time></trkpt>
<trkpt lat="46.71337249" lon="7.00951271"><ele>743.236328</ele><time>2008-04-28T13:29:24Z</time></trkpt>
<trkpt lat="46.71336327" lon="7.00944733"><ele>743.236328</ele><time>2008-04-28T13:29:25Z</time></trkpt>
<trkpt lat="46.71338791" lon="7.00881936"><ele>746.120361</ele><time>2008-04-28T13:29:35Z</time></trkpt>
<trkpt lat="46.71356577" lon="7.00829482"><ele>749.004395</ele><time>2008-04-28T13:29:46Z</time></trkpt>
<trkpt lat="46.71368899" lon="7.00756148"><ele>749.96582</ele><time>2008-04-28T13:30:01Z</time></trkpt>
<trkpt lat="46.71367725" lon="7.00684223"><ele>750.927002</ele><time>2008-04-28T13:30:17Z</time></trkpt>
<trkpt lat="46.71359335" lon="7.00607127"><ele>752.849609</ele><time>2008-04-28T13:30:34Z</time></trkpt>
<trkpt lat="46.71356552" lon="7.00584915"><ele>751.888428</ele><time>2008-04-28T13:30:39Z</time></trkpt>
<trkpt lat="46.71349084" lon="7.00513048"><ele>753.811035</ele><time>2008-04-28T13:30:54Z</time></trkpt>
<trkpt lat="46.71348950" lon="7.00477735"><ele>751.888428</ele><time>2008-04-28T13:31:00Z</time></trkpt>
<trkpt lat="46.71363040" lon="7.00397839"><ele>749.004395</ele><time>2008-04-28T13:31:09Z</time></trkpt>
<trkpt lat="46.71365697" lon="7.00387361"><ele>747.081543</ele><time>2008-04-28T13:31:10Z</time></trkpt>
<trkpt lat="46.71387138" lon="7.00347950"><ele>744.197754</ele><time>2008-04-28T13:31:14Z</time></trkpt>
<trkpt lat="46.71418419" lon="7.00294079"><ele>740.833008</ele><time>2008-04-28T13:31:19Z</time></trkpt>
<trkpt lat="46.71449407" lon="7.00164344"><ele>740.833008</ele><time>2008-04-28T13:31:28Z</time></trkpt>
<trkpt lat="46.71476933" lon="7.00069956"><ele>739.871826</ele><time>2008-04-28T13:31:35Z</time></trkpt>
<trkpt lat="46.71455920" lon="6.99986422"><ele>739.871826</ele><time>2008-04-28T13:31:42Z</time></trkpt>
<trkpt lat="46.71453020" lon="6.99934135"><ele>739.871826</ele><time>2008-04-28T13:31:46Z</time></trkpt>
<trkpt lat="46.71469758" lon="6.99842446"><ele>738.910645</ele><time>2008-04-28T13:31:53Z</time></trkpt>
<trkpt lat="46.71455995" lon="6.99771929"><ele>738.910645</ele><time>2008-04-28T13:32:00Z</time></trkpt>
<trkpt lat="46.71463044" lon="6.99733942"><ele>737.949219</ele><time>2008-04-28T13:32:05Z</time></trkpt>
<trkpt lat="46.71475559" lon="6.99712920"><ele>737.949219</ele><time>2008-04-28T13:32:09Z</time></trkpt>
<trkpt lat="46.71476321" lon="6.99677599"><ele>737.949219</ele><time>2008-04-28T13:32:15Z</time></trkpt>
<trkpt lat="46.71469046" lon="6.99658044"><ele>737.949219</ele><time>2008-04-28T13:32:18Z</time></trkpt>
<trkpt lat="46.71471619" lon="6.99625321"><ele>737.949219</ele><time>2008-04-28T13:32:24Z</time></trkpt>
<trkpt lat="46.71508416" lon="6.99602790"><ele>736.987793</ele><time>2008-04-28T13:32:31Z</time></trkpt>
<trkpt lat="46.71550610" lon="6.99581517"><ele>737.949219</ele><time>2008-04-28T13:32:38Z</time></trkpt>
<trkpt lat="46.71571271" lon="6.99574803"><ele>736.026611</ele><time>2008-04-28T13:32:41Z</time></trkpt>
<trkpt lat="46.71607146" lon="6.99547042"><ele>736.026611</ele><time>2008-04-28T13:32:46Z</time></trkpt>
<trkpt lat="46.71623264" lon="6.99527294"><ele>736.026611</ele><time>2008-04-28T13:32:49Z</time></trkpt>
<trkpt lat="46.71623189" lon="6.99507672"><ele>736.026611</ele><time>2008-04-28T13:32:53Z</time></trkpt>
<trkpt lat="46.71615964" lon="6.99501193"><ele>736.026611</ele><time>2008-04-28T13:32:55Z</time></trkpt>
<trkpt lat="46.71607791" lon="6.99480339"><ele>736.026611</ele><time>2008-04-28T13:32:59Z</time></trkpt>
<trkpt lat="46.71621010" lon="6.99409604"><ele>736.026611</ele><time>2008-04-28T13:33:12Z</time></trkpt>
<trkpt lat="46.71615520" lon="6.99386101"><ele>736.026611</ele><time>2008-04-28T13:33:16Z</time></trkpt>
<trkpt lat="46.71599192" lon="6.99350922"><ele>735.06543</ele><time>2008-04-28T13:33:23Z</time></trkpt>
<trkpt lat="46.71596451" lon="6.99341794"><ele>735.06543</ele><time>2008-04-28T13:33:25Z</time></trkpt>
<trkpt lat="46.71579930" lon="6.99256911"><ele>735.06543</ele><time>2008-04-28T13:33:35Z</time></trkpt>
<trkpt lat="46.71543460" lon="6.99131660"><ele>734.104004</ele><time>2008-04-28T13:33:46Z</time></trkpt>
<trkpt lat="46.71488215" lon="6.99037950"><ele>733.142578</ele><time>2008-04-28T13:33:58Z</time></trkpt>
<trkpt lat="46.71424991" lon="6.98973083"><ele>732.181396</ele><time>2008-04-28T13:34:13Z</time></trkpt>
<trkpt lat="46.71353644" lon="6.98900437"><ele>732.181396</ele><time>2008-04-28T13:34:31Z</time></trkpt>
<trkpt lat="46.71317518" lon="6.98865426"><ele>731.219971</ele><time>2008-04-28T13:34:40Z</time></trkpt>
<trkpt lat="46.71285876" lon="6.98825142"><ele>731.219971</ele><time>2008-04-28T13:34:49Z</time></trkpt>
<trkpt lat="46.71227111" lon="6.98749781"><ele>731.219971</ele><time>2008-04-28T13:35:06Z</time></trkpt>
<trkpt lat="46.71216264" lon="6.98738105"><ele>731.219971</ele><time>2008-04-28T13:35:09Z</time></trkpt>
<trkpt lat="46.71180147" lon="6.98704401"><ele>729.777832</ele><time>2008-04-28T13:35:18Z</time></trkpt>
<trkpt lat="46.71100829" lon="6.98663212"><ele>729.777832</ele><time>2008-04-28T13:35:35Z</time></trkpt>
<trkpt lat="46.71055768" lon="6.98643976"><ele>728.81665</ele><time>2008-04-28T13:35:45Z</time></trkpt>
<trkpt lat="46.71009810" lon="6.98622133"><ele>728.81665</ele><time>2008-04-28T13:35:59Z</time></trkpt>
<trkpt lat="46.70962066" lon="6.98606836"><ele>727.855225</ele><time>2008-04-28T13:36:14Z</time></trkpt>
<trkpt lat="46.70922487" lon="6.98605863"><ele>727.855225</ele><time>2008-04-28T13:36:27Z</time></trkpt>
<trkpt lat="46.70892723" lon="6.98586493"><ele>727.855225</ele><time>2008-04-28T13:36:41Z</time></trkpt>
<trkpt lat="46.70868323" lon="6.98559235"><ele>726.894043</ele><time>2008-04-28T13:36:57Z</time></trkpt>
<trkpt lat="46.70853789" lon="6.98522740"><ele>725.932617</ele><time>2008-04-28T13:37:14Z</time></trkpt>
<trkpt lat="46.70834770" lon="6.98490210"><ele>724.971436</ele><time>2008-04-28T13:37:31Z</time></trkpt>
<trkpt lat="46.70813095" lon="6.98469465"><ele>724.971436</ele><time>2008-04-28T13:37:44Z</time></trkpt>
<trkpt lat="46.70782434" lon="6.98450111"><ele>724.01001</ele><time>2008-04-28T13:38:00Z</time></trkpt>
<trkpt lat="46.70752670" lon="6.98430740"><ele>724.01001</ele><time>2008-04-28T13:38:16Z</time></trkpt>
<trkpt lat="46.70729226" lon="6.98416558"><ele>724.01001</ele><time>2008-04-28T13:38:28Z</time></trkpt>
<trkpt lat="46.70725613" lon="6.98413968"><ele>724.01001</ele><time>2008-04-28T13:38:30Z</time></trkpt>
<trkpt lat="46.70724657" lon="6.98398286"><ele>724.01001</ele><time>2008-04-28T13:38:36Z</time></trkpt>
<trkpt lat="46.70736233" lon="6.98369418"><ele>724.01001</ele><time>2008-04-28T13:38:44Z</time></trkpt>
<trkpt lat="46.70765737" lon="6.98323402"><ele>724.01001</ele><time>2008-04-28T13:38:55Z</time></trkpt>
<trkpt lat="46.70759375" lon="6.98307761"><ele>724.01001</ele><time>2008-04-28T13:39:00Z</time></trkpt>
<trkpt lat="46.70713250" lon="6.98245383"><ele>724.01001</ele><time>2008-04-28T13:39:16Z</time></trkpt>
<trkpt lat="46.70698782" lon="6.98225887"><ele>724.01001</ele><time>2008-04-28T13:39:21Z</time></trkpt>
<trkpt lat="46.70698640" lon="6.98191890"><ele>724.01001</ele><time>2008-04-28T13:39:28Z</time></trkpt>
<trkpt lat="46.70746090" lon="6.98135261"><ele>724.01001</ele><time>2008-04-28T13:39:41Z</time></trkpt>
<trkpt lat="46.70769308" lon="6.98091910"><ele>723.048828</ele><time>2008-04-28T13:39:49Z</time></trkpt>
<trkpt lat="46.70775460" lon="6.98055239"><ele>723.048828</ele><time>2008-04-28T13:39:55Z</time></trkpt>
<trkpt lat="46.70753709" lon="6.98014889"><ele>723.048828</ele><time>2008-04-28T13:40:06Z</time></trkpt>
<trkpt lat="46.70713979" lon="6.97978604"><ele>722.087402</ele><time>2008-04-28T13:40:20Z</time></trkpt>
<trkpt lat="46.70675145" lon="6.97941019"><ele>722.087402</ele><time>2008-04-28T13:40:35Z</time></trkpt>
<trkpt lat="46.70632700" lon="6.97899529"><ele>721.126221</ele><time>2008-04-28T13:40:51Z</time></trkpt>
<trkpt lat="46.70596523" lon="6.97851459"><ele>721.126221</ele><time>2008-04-28T13:41:06Z</time></trkpt>
<trkpt lat="46.70572953" lon="6.97805886"><ele>721.126221</ele><time>2008-04-28T13:41:19Z</time></trkpt>
<trkpt lat="46.70562828" lon="6.97749744"><ele>720.164795</ele><time>2008-04-28T13:41:32Z</time></trkpt>
<trkpt lat="46.70523014" lon="6.97691238"><ele>720.164795</ele><time>2008-04-28T13:41:48Z</time></trkpt>
<trkpt lat="46.70485932" lon="6.97641869"><ele>719.203613</ele><time>2008-04-28T13:42:01Z</time></trkpt>
<trkpt lat="46.70440813" lon="6.97606950"><ele>719.203613</ele><time>2008-04-28T13:42:16Z</time></trkpt>
<trkpt lat="46.70421836" lon="6.97587496"><ele>719.203613</ele><time>2008-04-28T13:42:29Z</time></trkpt>
<trkpt lat="46.70420000" lon="6.97577052"><ele>719.203613</ele><time>2008-04-28T13:42:33Z</time></trkpt>
<trkpt lat="46.70427167" lon="6.97570455"><ele>719.203613</ele><time>2008-04-28T13:42:37Z</time></trkpt>
<trkpt lat="46.70436161" lon="6.97570371"><ele>713.916016</ele><time>2008-04-28T13:42:40Z</time></trkpt>
<trkpt lat="46.70453218" lon="6.97561076"><ele>714.877441</ele><time>2008-04-28T13:42:44Z</time></trkpt>
<trkpt lat="46.70540499" lon="6.97566868"><ele>716.800293</ele><time>2008-04-28T13:42:57Z</time></trkpt>
<trkpt lat="46.70682748" lon="6.97595718"><ele>714.877441</ele><time>2008-04-28T13:43:11Z</time></trkpt>
<trkpt lat="46.70757498" lon="6.97617310"><ele>715.838867</ele><time>2008-04-28T13:43:18Z</time></trkpt>
<trkpt lat="46.70822239" lon="6.97611527"><ele>700.938477</ele><time>2008-04-28T13:43:24Z</time></trkpt>
<trkpt lat="46.70841132" lon="6.97611367"><ele>674.98291</ele><time>2008-04-28T13:43:25Z</time></trkpt>
<trkpt lat="46.70852808" lon="6.97607344"><ele>665.850342</ele><time>2008-04-28T13:43:26Z</time></trkpt>
<trkpt lat="46.70878893" lon="6.97605810"><ele>662.005127</ele><time>2008-04-28T13:43:28Z</time></trkpt>
<trkpt lat="46.70904935" lon="6.97595123"><ele>662.005127</ele><time>2008-04-28T13:43:29Z</time></trkpt>
<trkpt lat="46.70913929" lon="6.97595048"><ele>662.005127</ele><time>2008-04-28T13:43:32Z</time></trkpt>
<trkpt lat="46.70950776" lon="6.97585576"><ele>663.92749</ele><time>2008-04-28T13:43:36Z</time></trkpt>
<trkpt lat="46.70969585" lon="6.97565803"><ele>666.811523</ele><time>2008-04-28T13:43:39Z</time></trkpt>
<trkpt lat="46.70990196" lon="6.97546005"><ele>665.850342</ele><time>2008-04-28T13:43:40Z</time></trkpt>
<trkpt lat="46.71019734" lon="6.97510441"><ele>669.215088</ele><time>2008-04-28T13:43:48Z</time></trkpt>
<trkpt lat="46.71042130" lon="6.97486712"><ele>672.098877</ele><time>2008-04-28T13:43:54Z</time></trkpt>
<trkpt lat="46.71076161" lon="6.97448490"><ele>674.021484</ele><time>2008-04-28T13:44:08Z</time></trkpt>
<trkpt lat="46.71090502" lon="6.97436596"><ele>677.866699</ele><time>2008-04-28T13:44:16Z</time></trkpt>
<trkpt lat="46.71110200" lon="6.97412892"><ele>681.231445</ele><time>2008-04-28T13:44:28Z</time></trkpt>
<trkpt lat="46.71129897" lon="6.97390487"><ele>685.076904</ele><time>2008-04-28T13:44:43Z</time></trkpt>
<trkpt lat="46.71145136" lon="6.97377278"><ele>686.999268</ele><time>2008-04-28T13:44:56Z</time></trkpt>
<trkpt lat="46.71170248" lon="6.97358754"><ele>690.844482</ele><time>2008-04-28T13:45:13Z</time></trkpt>
<trkpt lat="46.71196282" lon="6.97345451"><ele>692.767334</ele><time>2008-04-28T13:45:29Z</time></trkpt>
<trkpt lat="46.71224998" lon="6.97329509"><ele>695.17041</ele><time>2008-04-28T13:45:46Z</time></trkpt>
<trkpt lat="46.71250161" lon="6.97322753"><ele>697.093018</ele><time>2008-04-28T13:46:00Z</time></trkpt>
<trkpt lat="46.71277989" lon="6.97308127"><ele>699.015625</ele><time>2008-04-28T13:46:15Z</time></trkpt>
<trkpt lat="46.71301332" lon="6.97296157"><ele>699.977051</ele><time>2008-04-28T13:46:29Z</time></trkpt>
<trkpt lat="46.71325564" lon="6.97284180"><ele>701.899902</ele><time>2008-04-28T13:46:43Z</time></trkpt>
<trkpt lat="46.71344390" lon="6.97267014"><ele>706.225586</ele><time>2008-04-28T13:46:57Z</time></trkpt>
<trkpt lat="46.71367683" lon="6.97243268"><ele>708.148438</ele><time>2008-04-28T13:47:11Z</time></trkpt>
<trkpt lat="46.71390072" lon="6.97219539"><ele>707.187012</ele><time>2008-04-28T13:47:25Z</time></trkpt>
<trkpt lat="46.71416927" lon="6.97186606"><ele>702.861084</ele><time>2008-04-28T13:47:34Z</time></trkpt>
<trkpt lat="46.71454486" lon="6.97132660"><ele>699.977051</ele><time>2008-04-28T13:47:46Z</time></trkpt>
<trkpt lat="46.71454486" lon="6.97132660"><ele>700.938477</ele><time>2008-04-28T13:47:47Z</time></trkpt>
<trkpt lat="46.71455400" lon="6.97136574"><ele>699.015625</ele><time>2008-04-28T13:48:02Z</time></trkpt>
<trkpt lat="46.71455400" lon="6.97136574"><ele>699.977051</ele><time>2008-04-28T13:49:48Z</time></trkpt>
<trkpt lat="46.71475366" lon="6.97178258"><ele>702.861084</ele><time>2008-04-28T13:50:00Z</time></trkpt>
<trkpt lat="46.71487151" lon="6.97200386"><ele>703.82251</ele><time>2008-04-28T13:50:07Z</time></trkpt>
<trkpt lat="46.71505306" lon="6.97240770"><ele>706.225586</ele><time>2008-04-28T13:50:18Z</time></trkpt>
<trkpt lat="46.71516144" lon="6.97251147"><ele>707.187012</ele><time>2008-04-28T13:50:27Z</time></trkpt>
<trkpt lat="46.71538616" lon="6.97247023"><ele>702.861084</ele><time>2008-04-28T13:50:40Z</time></trkpt>
<trkpt lat="46.71566477" lon="6.97241549"><ele>700.938477</ele><time>2008-04-28T13:50:46Z</time></trkpt>
<trkpt lat="46.71579058" lon="6.97238825"><ele>699.015625</ele><time>2008-04-28T13:50:49Z</time></trkpt>
<trkpt lat="46.71590734" lon="6.97234802"><ele>697.093018</ele><time>2008-04-28T13:50:52Z</time></trkpt>
<trkpt lat="46.71601513" lon="6.97229479"><ele>695.17041</ele><time>2008-04-28T13:50:55Z</time></trkpt>
<trkpt lat="46.71609610" lon="6.97229412"><ele>695.17041</ele><time>2008-04-28T13:50:57Z</time></trkpt>
<trkpt lat="46.71634790" lon="6.97229194"><ele>690.844482</ele><time>2008-04-28T13:51:03Z</time></trkpt>
<trkpt lat="46.71645577" lon="6.97226479"><ele>689.883301</ele><time>2008-04-28T13:51:06Z</time></trkpt>
<trkpt lat="46.71684184" lon="6.97209145"><ele>686.999268</ele><time>2008-04-28T13:51:15Z</time></trkpt>
<trkpt lat="46.71711165" lon="6.97207603"><ele>684.115479</ele><time>2008-04-28T13:51:21Z</time></trkpt>
<trkpt lat="46.71718366" lon="6.97207544"><ele>684.115479</ele><time>2008-04-28T13:51:22Z</time></trkpt>
<trkpt lat="46.71748943" lon="6.97205968"><ele>679.789307</ele><time>2008-04-28T13:51:29Z</time></trkpt>
<trkpt lat="46.71800165" lon="6.97193756"><ele>677.866699</ele><time>2008-04-28T13:51:39Z</time></trkpt>
<trkpt lat="46.71842284" lon="6.97154151"><ele>675.944092</ele><time>2008-04-28T13:51:50Z</time></trkpt>
<trkpt lat="46.71869131" lon="6.97119911"><ele>676.905518</ele><time>2008-04-28T13:52:01Z</time></trkpt>
<trkpt lat="46.71873607" lon="6.97114639"><ele>676.905518</ele><time>2008-04-28T13:52:04Z</time></trkpt>
<trkpt lat="46.71874571" lon="6.97129022"><ele>676.905518</ele><time>2008-04-28T13:52:08Z</time></trkpt>
<trkpt lat="46.71892684" lon="6.97158946"><ele>676.905518</ele><time>2008-04-28T13:52:20Z</time></trkpt>
<trkpt lat="46.71896271" lon="6.97157613"><ele>676.905518</ele><time>2008-04-28T13:52:23Z</time></trkpt>
<trkpt lat="46.71905181" lon="6.97136608"><ele>674.021484</ele><time>2008-04-28T13:52:28Z</time></trkpt>
<trkpt lat="46.71922155" lon="6.97106374"><ele>672.098877</ele><time>2008-04-28T13:52:33Z</time></trkpt>
<trkpt lat="46.71978590" lon="6.97048330"><ele>669.215088</ele><time>2008-04-28T13:52:43Z</time></trkpt>
<trkpt lat="46.72057422" lon="6.96969171"><ele>666.811523</ele><time>2008-04-28T13:52:56Z</time></trkpt>
<trkpt lat="46.72069022" lon="6.96945526"><ele>665.850342</ele><time>2008-04-28T13:52:59Z</time></trkpt>
<trkpt lat="46.72078771" lon="6.96910121"><ele>663.92749</ele><time>2008-04-28T13:53:03Z</time></trkpt>
<trkpt lat="46.72087505" lon="6.96847256"><ele>666.811523</ele><time>2008-04-28T13:53:10Z</time></trkpt>
<trkpt lat="46.72103128" lon="6.96709776"><ele>667.772705</ele><time>2008-04-28T13:53:28Z</time></trkpt>
<trkpt lat="46.72112617" lon="6.96611599"><ele>670.17627</ele><time>2008-04-28T13:53:43Z</time></trkpt>
<trkpt lat="46.72118568" lon="6.96527830"><ele>674.021484</ele><time>2008-04-28T13:53:58Z</time></trkpt>
<trkpt lat="46.72121032" lon="6.96471563"><ele>676.905518</ele><time>2008-04-28T13:54:10Z</time></trkpt>
<trkpt lat="46.72126338" lon="6.96447968"><ele>677.866699</ele><time>2008-04-28T13:54:17Z</time></trkpt>
<trkpt lat="46.72119959" lon="6.96428404"><ele>676.905518</ele><time>2008-04-28T13:54:21Z</time></trkpt>
<trkpt lat="46.72085627" lon="6.96393393"><ele>677.866699</ele><time>2008-04-28T13:54:31Z</time></trkpt>
<trkpt lat="46.72065628" lon="6.96343864"><ele>679.789307</ele><time>2008-04-28T13:54:43Z</time></trkpt>
<trkpt lat="46.72087974" lon="6.96308350"><ele>683.153809</ele><time>2008-04-28T13:54:56Z</time></trkpt>
<trkpt lat="46.72109440" lon="6.96279382"><ele>686.038086</ele><time>2008-04-28T13:55:10Z</time></trkpt>
<trkpt lat="46.72125550" lon="6.96259618"><ele>690.844482</ele><time>2008-04-28T13:55:21Z</time></trkpt>
<trkpt lat="46.72142574" lon="6.96243776"><ele>690.844482</ele><time>2008-04-28T13:55:34Z</time></trkpt>
<trkpt lat="46.72159606" lon="6.96227926"><ele>694.209229</ele><time>2008-04-28T13:55:48Z</time></trkpt>
<trkpt lat="46.72167602" lon="6.96204314"><ele>695.17041</ele><time>2008-04-28T13:56:00Z</time></trkpt>
<trkpt lat="46.72168474" lon="6.96197759"><ele>696.131836</ele><time>2008-04-28T13:56:03Z</time></trkpt>
<trkpt lat="46.72164844" lon="6.96189947"><ele>696.131836</ele><time>2008-04-28T13:56:07Z</time></trkpt>
<trkpt lat="46.72139565" lon="6.96167937"><ele>698.054443</ele><time>2008-04-28T13:56:22Z</time></trkpt>
<trkpt lat="46.72108862" lon="6.96140737"><ele>699.977051</ele><time>2008-04-28T13:56:40Z</time></trkpt>
<trkpt lat="46.72104302" lon="6.96125080"><ele>701.899902</ele><time>2008-04-28T13:56:47Z</time></trkpt>
<trkpt lat="46.72116690" lon="6.96076574"><ele>701.899902</ele><time>2008-04-28T13:57:02Z</time></trkpt>
<trkpt lat="46.72107588" lon="6.96051805"><ele>703.82251</ele><time>2008-04-28T13:57:09Z</time></trkpt>
<trkpt lat="46.72088544" lon="6.96014036"><ele>706.225586</ele><time>2008-04-28T13:57:24Z</time></trkpt>
<trkpt lat="46.72086717" lon="6.96008823"><ele>706.225586</ele><time>2008-04-28T13:57:26Z</time></trkpt>
<trkpt lat="46.72074948" lon="6.95990617"><ele>709.109619</ele><time>2008-04-28T13:57:34Z</time></trkpt>
<trkpt lat="46.72057715" lon="6.95956754"><ele>711.032227</ele><time>2008-04-28T13:57:49Z</time></trkpt>
<trkpt lat="46.72043156" lon="6.95917645"><ele>713.916016</ele><time>2008-04-28T13:58:03Z</time></trkpt>
<trkpt lat="46.72031312" lon="6.95881125"><ele>714.877441</ele><time>2008-04-28T13:58:16Z</time></trkpt>
<trkpt lat="46.72026761" lon="6.95868091"><ele>715.838867</ele><time>2008-04-28T13:58:21Z</time></trkpt>
<trkpt lat="46.72024012" lon="6.95856339"><ele>716.800293</ele><time>2008-04-28T13:58:25Z</time></trkpt>
<trkpt lat="46.72015730" lon="6.95813248"><ele>719.203613</ele><time>2008-04-28T13:58:40Z</time></trkpt>
<trkpt lat="46.72012839" lon="6.95767491"><ele>721.126221</ele><time>2008-04-28T13:58:55Z</time></trkpt>
<trkpt lat="46.72017180" lon="6.95730829"><ele>724.01001</ele><time>2008-04-28T13:59:07Z</time></trkpt>
<trkpt lat="46.72026920" lon="6.95692808"><ele>725.932617</ele><time>2008-04-28T13:59:20Z</time></trkpt>
<trkpt lat="46.72053734" lon="6.95652022"><ele>724.971436</ele><time>2008-04-28T13:59:32Z</time></trkpt>
<trkpt lat="46.72089751" lon="6.95659549"><ele>724.971436</ele><time>2008-04-28T13:59:42Z</time></trkpt>
<trkpt lat="46.72129414" lon="6.95678819"><ele>724.971436</ele><time>2008-04-28T13:59:51Z</time></trkpt>
<trkpt lat="46.72145549" lon="6.95665592"><ele>722.087402</ele><time>2008-04-28T13:59:55Z</time></trkpt>
<trkpt lat="46.72173997" lon="6.95585545"><ele>719.203613</ele><time>2008-04-28T14:00:04Z</time></trkpt>
<trkpt lat="46.72190837" lon="6.95526537"><ele>714.877441</ele><time>2008-04-28T14:00:09Z</time></trkpt>
<trkpt lat="46.72193494" lon="6.95516042"><ele>714.877441</ele><time>2008-04-28T14:00:10Z</time></trkpt>
<trkpt lat="46.72212973" lon="6.95442617"><ele>719.203613</ele><time>2008-04-28T14:00:18Z</time></trkpt>
<trkpt lat="46.72214750" lon="6.95437370"><ele>719.203613</ele><time>2008-04-28T14:00:19Z</time></trkpt>
<trkpt lat="46.72239753" lon="6.95395293"><ele>721.126221</ele><time>2008-04-28T14:00:31Z</time></trkpt>
<trkpt lat="46.72264799" lon="6.95361053"><ele>723.048828</ele><time>2008-04-28T14:00:45Z</time></trkpt>
<trkpt lat="46.72283582" lon="6.95336033"><ele>725.932617</ele><time>2008-04-28T14:00:57Z</time></trkpt>
<trkpt lat="46.72304143" lon="6.95305766"><ele>727.855225</ele><time>2008-04-28T14:01:09Z</time></trkpt>
<trkpt lat="46.72322894" lon="6.95272892"><ele>728.81665</ele><time>2008-04-28T14:01:21Z</time></trkpt>
<trkpt lat="46.72337118" lon="6.95232214"><ele>729.777832</ele><time>2008-04-28T14:01:36Z</time></trkpt>
<trkpt lat="46.72345013" lon="6.95186357"><ele>731.219971</ele><time>2008-04-28T14:01:50Z</time></trkpt>
<trkpt lat="46.72348467" lon="6.95152318"><ele>735.06543</ele><time>2008-04-28T14:02:01Z</time></trkpt>
<trkpt lat="46.72355449" lon="6.95102546"><ele>736.026611</ele><time>2008-04-28T14:02:16Z</time></trkpt>
<trkpt lat="46.72359782" lon="6.95063260"><ele>736.987793</ele><time>2008-04-28T14:02:31Z</time></trkpt>
<trkpt lat="46.72375808" lon="6.95023874"><ele>739.871826</ele><time>2008-04-28T14:02:49Z</time></trkpt>
<trkpt lat="46.72402706" lon="6.95004009"><ele>744.197754</ele><time>2008-04-28T14:03:04Z</time></trkpt>
<trkpt lat="46.72422538" lon="6.95012986"><ele>746.120361</ele><time>2008-04-28T14:03:18Z</time></trkpt>
<trkpt lat="46.72439679" lon="6.95024603"><ele>748.043213</ele><time>2008-04-28T14:03:32Z</time></trkpt>
<trkpt lat="46.72446904" lon="6.95031082"><ele>749.004395</ele><time>2008-04-28T14:03:37Z</time></trkpt>
<trkpt lat="46.72457750" lon="6.95042758"><ele>749.96582</ele><time>2008-04-28T14:03:42Z</time></trkpt>
<trkpt lat="46.72466769" lon="6.95049212"><ele>749.96582</ele><time>2008-04-28T14:03:48Z</time></trkpt>
<trkpt lat="46.72486584" lon="6.95054267"><ele>752.849609</ele><time>2008-04-28T14:04:01Z</time></trkpt>
<trkpt lat="46.72502778" lon="6.95055432"><ele>754.772217</ele><time>2008-04-28T14:04:11Z</time></trkpt>
<trkpt lat="46.72518058" lon="6.95052674"><ele>754.772217</ele><time>2008-04-28T14:04:21Z</time></trkpt>
<trkpt lat="46.72537747" lon="6.95028953"><ele>757.175537</ele><time>2008-04-28T14:04:36Z</time></trkpt>
<trkpt lat="46.72552935" lon="6.95003958"><ele>759.098145</ele><time>2008-04-28T14:04:49Z</time></trkpt>
<trkpt lat="46.72565357" lon="6.94963298"><ele>761.982178</ele><time>2008-04-28T14:05:06Z</time></trkpt>
<trkpt lat="46.72568022" lon="6.94955419"><ele>762.943359</ele><time>2008-04-28T14:05:10Z</time></trkpt>
<trkpt lat="46.72572372" lon="6.94921372"><ele>763.904541</ele><time>2008-04-28T14:05:24Z</time></trkpt>
<trkpt lat="46.72573160" lon="6.94896511"><ele>765.827637</ele><time>2008-04-28T14:05:35Z</time></trkpt>
<trkpt lat="46.72572255" lon="6.94893904"><ele>765.827637</ele><time>2008-04-28T14:05:37Z</time></trkpt>
<trkpt lat="46.72571342" lon="6.94891289"><ele>766.788818</ele><time>2008-04-28T14:05:39Z</time></trkpt>
<trkpt lat="46.72570344" lon="6.94869060"><ele>769.192139</ele><time>2008-04-28T14:05:51Z</time></trkpt>
<trkpt lat="46.72570319" lon="6.94862522"><ele>769.192139</ele><time>2008-04-28T14:05:53Z</time></trkpt>
<trkpt lat="46.72564879" lon="6.94852103"><ele>771.114746</ele><time>2008-04-28T14:06:00Z</time></trkpt>
<trkpt lat="46.72562121" lon="6.94837745"><ele>772.075928</ele><time>2008-04-28T14:06:07Z</time></trkpt>
<trkpt lat="46.72553916" lon="6.94812960"><ele>773.998535</ele><time>2008-04-28T14:06:19Z</time></trkpt>
<trkpt lat="46.72545760" lon="6.94799951"><ele>774.959961</ele><time>2008-04-28T14:06:38Z</time></trkpt>
<trkpt lat="46.72541150" lon="6.94773833"><ele>777.84375</ele><time>2008-04-28T14:07:01Z</time></trkpt>
<trkpt lat="46.72526582" lon="6.94733416"><ele>781.20874</ele><time>2008-04-28T14:07:33Z</time></trkpt>
<trkpt lat="46.72516608" lon="6.94713886"><ele>782.169922</ele><time>2008-04-28T14:07:51Z</time></trkpt>
<trkpt lat="46.72507530" lon="6.94694339"><ele>784.092529</ele><time>2008-04-28T14:08:07Z</time></trkpt>
<trkpt lat="46.72507396" lon="6.94664257"><ele>786.976318</ele><time>2008-04-28T14:08:28Z</time></trkpt>
<trkpt lat="46.72496483" lon="6.94635582"><ele>788.89917</ele><time>2008-04-28T14:08:49Z</time></trkpt>
<trkpt lat="46.72491881" lon="6.94613378"><ele>791.782959</ele><time>2008-04-28T14:09:18Z</time></trkpt>
<trkpt lat="46.72488210" lon="6.94595098"><ele>795.147461</ele><time>2008-04-28T14:09:33Z</time></trkpt>
<trkpt lat="46.72477271" lon="6.94562500"><ele>796.109131</ele><time>2008-04-28T14:10:03Z</time></trkpt>
<trkpt lat="46.72484362" lon="6.94537581"><ele>798.031738</ele><time>2008-04-28T14:10:18Z</time></trkpt>
<trkpt lat="46.72485226" lon="6.94529719"><ele>798.99292</ele><time>2008-04-28T14:10:31Z</time></trkpt>
<trkpt lat="46.72485201" lon="6.94524488"><ele>798.99292</ele><time>2008-04-28T14:10:32Z</time></trkpt>
<trkpt lat="46.72487833" lon="6.94507465"><ele>799.954346</ele><time>2008-04-28T14:10:42Z</time></trkpt>
<trkpt lat="46.72488704" lon="6.94502218"><ele>800.915527</ele><time>2008-04-28T14:10:46Z</time></trkpt>
<trkpt lat="46.72490456" lon="6.94491740"><ele>800.915527</ele><time>2008-04-28T14:10:50Z</time></trkpt>
<trkpt lat="46.72482309" lon="6.94478732"><ele>801.876953</ele><time>2008-04-28T14:10:58Z</time></trkpt>
<trkpt lat="46.72465101" lon="6.94452731"><ele>802.838135</ele><time>2008-04-28T14:11:13Z</time></trkpt>
<trkpt lat="46.72444255" lon="6.94416295"><ele>803.799561</ele><time>2008-04-28T14:11:27Z</time></trkpt>
<trkpt lat="46.72427910" lon="6.94381124"><ele>802.838135</ele><time>2008-04-28T14:11:40Z</time></trkpt>
<trkpt lat="46.72422462" lon="6.94369398"><ele>802.838135</ele><time>2008-04-28T14:11:45Z</time></trkpt>
<trkpt lat="46.72401658" lon="6.94343431"><ele>801.876953</ele><time>2008-04-28T14:11:54Z</time></trkpt>
<trkpt lat="46.72392614" lon="6.94331738"><ele>802.838135</ele><time>2008-04-28T14:11:57Z</time></trkpt>
<trkpt lat="46.72361878" lon="6.94296702"><ele>801.876953</ele><time>2008-04-28T14:12:07Z</time></trkpt>
<trkpt lat="46.72327520" lon="6.94257776"><ele>800.915527</ele><time>2008-04-28T14:12:19Z</time></trkpt>
<trkpt lat="46.72307580" lon="6.94222639"><ele>798.99292</ele><time>2008-04-28T14:12:26Z</time></trkpt>
<trkpt lat="46.72274983" lon="6.94173228"><ele>797.070313</ele><time>2008-04-28T14:12:36Z</time></trkpt>
<trkpt lat="46.72268629" lon="6.94160211"><ele>798.031738</ele><time>2008-04-28T14:12:38Z</time></trkpt>
<trkpt lat="46.72234154" lon="6.94093818"><ele>794.186279</ele><time>2008-04-28T14:12:49Z</time></trkpt>
<trkpt lat="46.72211464" lon="6.94046938"><ele>791.782959</ele><time>2008-04-28T14:12:58Z</time></trkpt>
<trkpt lat="46.72173344" lon="6.93970109"><ele>789.860352</ele><time>2008-04-28T14:13:11Z</time></trkpt>
<trkpt lat="46.72167812" lon="6.93940077"><ele>790.821533</ele><time>2008-04-28T14:13:16Z</time></trkpt>
<trkpt lat="46.72171181" lon="6.93886416"><ele>791.782959</ele><time>2008-04-28T14:13:28Z</time></trkpt>
<trkpt lat="46.72173729" lon="6.93853693"><ele>794.186279</ele><time>2008-04-28T14:13:39Z</time></trkpt>
<trkpt lat="46.72196964" lon="6.93816855"><ele>798.031738</ele><time>2008-04-28T14:13:50Z</time></trkpt>
<trkpt lat="46.72219310" lon="6.93785246"><ele>798.031738</ele><time>2008-04-28T14:14:01Z</time></trkpt>
<trkpt lat="46.72230081" lon="6.93778608"><ele>797.070313</ele><time>2008-04-28T14:14:04Z</time></trkpt>
<trkpt lat="46.72254246" lon="6.93752222"><ele>794.186279</ele><time>2008-04-28T14:14:12Z</time></trkpt>
<trkpt lat="46.72256744" lon="6.93705107"><ele>794.186279</ele><time>2008-04-28T14:14:21Z</time></trkpt>
<trkpt lat="46.72240290" lon="6.93646400"><ele>794.186279</ele><time>2008-04-28T14:14:33Z</time></trkpt>
<trkpt lat="46.72222001" lon="6.93578549"><ele>797.070313</ele><time>2008-04-28T14:14:46Z</time></trkpt>
<trkpt lat="46.72220182" lon="6.93573335"><ele>796.109131</ele><time>2008-04-28T14:14:47Z</time></trkpt>
<trkpt lat="46.72232679" lon="6.93552288"><ele>798.99292</ele><time>2008-04-28T14:14:52Z</time></trkpt>
<trkpt lat="46.72268528" lon="6.93521870"><ele>797.070313</ele><time>2008-04-28T14:15:03Z</time></trkpt>
<trkpt lat="46.72288234" lon="6.93502064"><ele>798.031738</ele><time>2008-04-28T14:15:09Z</time></trkpt>
<trkpt lat="46.72296306" lon="6.93496758"><ele>798.031738</ele><time>2008-04-28T14:15:12Z</time></trkpt>
<trkpt lat="46.72295233" lon="6.93457522"><ele>798.99292</ele><time>2008-04-28T14:15:22Z</time></trkpt>
<trkpt lat="46.72299676" lon="6.93445712"><ele>799.954346</ele><time>2008-04-28T14:15:24Z</time></trkpt>
<trkpt lat="46.72299650" lon="6.93440482"><ele>799.954346</ele><time>2008-04-28T14:15:26Z</time></trkpt>
<trkpt lat="46.72292367" lon="6.93420927"><ele>800.915527</ele><time>2008-04-28T14:15:33Z</time></trkpt>
<trkpt lat="46.72277832" lon="6.93388363"><ele>800.915527</ele><time>2008-04-28T14:15:48Z</time></trkpt>
<trkpt lat="46.72268780" lon="6.93375363"><ele>800.915527</ele><time>2008-04-28T14:15:54Z</time></trkpt>
<trkpt lat="46.72256132" lon="6.93363712"><ele>800.915527</ele><time>2008-04-28T14:15:58Z</time></trkpt>
<trkpt lat="46.72219058" lon="6.93319581"><ele>801.876953</ele><time>2008-04-28T14:16:12Z</time></trkpt>
<trkpt lat="46.72218153" lon="6.93318282"><ele>801.876953</ele><time>2008-04-28T14:16:13Z</time></trkpt>
<trkpt lat="46.72186503" lon="6.93280648"><ele>801.876953</ele><time>2008-04-28T14:16:25Z</time></trkpt>
<trkpt lat="46.72158415" lon="6.93235125"><ele>802.838135</ele><time>2008-04-28T14:16:39Z</time></trkpt>
<trkpt lat="46.72138517" lon="6.93211773"><ele>802.838135</ele><time>2008-04-28T14:16:45Z</time></trkpt>
<trkpt lat="46.72115936" lon="6.93191053"><ele>801.876953</ele><time>2008-04-28T14:16:51Z</time></trkpt>
<trkpt lat="46.72099667" lon="6.93174197"><ele>800.915527</ele><time>2008-04-28T14:16:55Z</time></trkpt>
<trkpt lat="46.72083389" lon="6.93154735"><ele>798.031738</ele><time>2008-04-28T14:16:59Z</time></trkpt>
<trkpt lat="46.72047975" lon="6.93080513"><ele>795.147461</ele><time>2008-04-28T14:17:11Z</time></trkpt>
<trkpt lat="46.72041597" lon="6.93060949"><ele>794.186279</ele><time>2008-04-28T14:17:15Z</time></trkpt>
<trkpt lat="46.72035277" lon="6.93055778"><ele>793.224854</ele><time>2008-04-28T14:17:17Z</time></trkpt>
<trkpt lat="46.72009075" lon="6.93029861"><ele>791.782959</ele><time>2008-04-28T14:17:25Z</time></trkpt>
<trkpt lat="46.72002730" lon="6.93019459"><ele>791.782959</ele><time>2008-04-28T14:17:28Z</time></trkpt>
<trkpt lat="46.72011648" lon="6.93002368"><ele>795.147461</ele><time>2008-04-28T14:17:41Z</time></trkpt>
<trkpt lat="46.72026903" lon="6.92994380"><ele>798.99292</ele><time>2008-04-28T14:17:55Z</time></trkpt>
<trkpt lat="46.72030482" lon="6.92990424"><ele>800.915527</ele><time>2008-04-28T14:17:58Z</time></trkpt>
<trkpt lat="46.72046609" lon="6.92974574"><ele>802.838135</ele><time>2008-04-28T14:18:11Z</time></trkpt>
<trkpt lat="46.72069903" lon="6.92953426"><ele>802.838135</ele><time>2008-04-28T14:18:22Z</time></trkpt>
<trkpt lat="46.72096758" lon="6.92924391"><ele>802.838135</ele><time>2008-04-28T14:18:36Z</time></trkpt>
<trkpt lat="46.72117386" lon="6.92909807"><ele>803.799561</ele><time>2008-04-28T14:18:48Z</time></trkpt>
<trkpt lat="46.72143328" lon="6.92878174"><ele>803.799561</ele><time>2008-04-28T14:19:01Z</time></trkpt>
<trkpt lat="46.72150394" lon="6.92849332"><ele>802.838135</ele><time>2008-04-28T14:19:09Z</time></trkpt>
<trkpt lat="46.72155733" lon="6.92834890"><ele>801.876953</ele><time>2008-04-28T14:19:11Z</time></trkpt>
<trkpt lat="46.72169982" lon="6.92803365"><ele>798.031738</ele><time>2008-04-28T14:19:16Z</time></trkpt>
<trkpt lat="46.72194122" lon="6.92770433"><ele>796.109131</ele><time>2008-04-28T14:19:24Z</time></trkpt>
<trkpt lat="46.72238781" lon="6.92698063"><ele>797.070313</ele><time>2008-04-28T14:19:32Z</time></trkpt>
<trkpt lat="46.72240566" lon="6.92695431"><ele>797.070313</ele><time>2008-04-28T14:19:33Z</time></trkpt>
<trkpt lat="46.72247490" lon="6.92635199"><ele>797.070313</ele><time>2008-04-28T14:19:45Z</time></trkpt>
<trkpt lat="46.72248362" lon="6.92628644"><ele>797.070313</ele><time>2008-04-28T14:19:46Z</time></trkpt>
<trkpt lat="46.72248052" lon="6.92559326"><ele>796.109131</ele><time>2008-04-28T14:19:59Z</time></trkpt>
<trkpt lat="46.72247901" lon="6.92526620"><ele>797.070313</ele><time>2008-04-28T14:20:09Z</time></trkpt>
<trkpt lat="46.72255008" lon="6.92505623"><ele>798.031738</ele><time>2008-04-28T14:20:18Z</time></trkpt>
<trkpt lat="46.72261228" lon="6.92488558"><ele>801.876953</ele><time>2008-04-28T14:20:28Z</time></trkpt>
<trkpt lat="46.72272803" lon="6.92463596"><ele>802.838135</ele><time>2008-04-28T14:20:39Z</time></trkpt>
<trkpt lat="46.72279911" lon="6.92443907"><ele>803.799561</ele><time>2008-04-28T14:20:47Z</time></trkpt>
<trkpt lat="46.72291470" lon="6.92412408"><ele>804.760742</ele><time>2008-04-28T14:20:59Z</time></trkpt>
<trkpt lat="46.72296843" lon="6.92408427"><ele>804.760742</ele><time>2008-04-28T14:21:04Z</time></trkpt>
<trkpt lat="46.72315744" lon="6.92409558"><ele>804.760742</ele><time>2008-04-28T14:21:18Z</time></trkpt>
<trkpt lat="46.72343597" lon="6.92402752"><ele>803.799561</ele><time>2008-04-28T14:21:32Z</time></trkpt>
<trkpt lat="46.72382254" lon="6.92397153"><ele>801.876953</ele><time>2008-04-28T14:21:48Z</time></trkpt>
<trkpt lat="46.72399387" lon="6.92406147"><ele>798.99292</ele><time>2008-04-28T14:21:56Z</time></trkpt>
<trkpt lat="46.72436225" lon="6.92396633"><ele>796.109131</ele><time>2008-04-28T14:22:09Z</time></trkpt>
<trkpt lat="46.72445135" lon="6.92378235"><ele>794.186279</ele><time>2008-04-28T14:22:14Z</time></trkpt>
<trkpt lat="46.72446828" lon="6.92354674"><ele>793.224854</ele><time>2008-04-28T14:22:21Z</time></trkpt>
<trkpt lat="46.72424164" lon="6.92314340"><ele>794.186279</ele><time>2008-04-28T14:22:33Z</time></trkpt>
<trkpt lat="46.72396973" lon="6.92270125"><ele>794.186279</ele><time>2008-04-28T14:22:44Z</time></trkpt>
<trkpt lat="46.72351769" lon="6.92220848"><ele>794.186279</ele><time>2008-04-28T14:22:58Z</time></trkpt>
<trkpt lat="46.72291302" lon="6.92176952"><ele>794.186279</ele><time>2008-04-28T14:23:13Z</time></trkpt>
<trkpt lat="46.72258805" lon="6.92152410"><ele>794.186279</ele><time>2008-04-28T14:23:21Z</time></trkpt>
<trkpt lat="46.72244363" lon="6.92140776"><ele>794.186279</ele><time>2008-04-28T14:23:25Z</time></trkpt>
<trkpt lat="46.72224456" lon="6.92114809"><ele>794.186279</ele><time>2008-04-28T14:23:33Z</time></trkpt>
<trkpt lat="46.72228916" lon="6.92106913"><ele>794.186279</ele><time>2008-04-28T14:23:39Z</time></trkpt>
<trkpt lat="46.72259551" lon="6.92118396"><ele>793.224854</ele><time>2008-04-28T14:23:50Z</time></trkpt>
<trkpt lat="46.72280054" lon="6.92077643"><ele>790.821533</ele><time>2008-04-28T14:24:00Z</time></trkpt>
<trkpt lat="46.72296968" lon="6.92036932"><ele>790.821533</ele><time>2008-04-28T14:24:10Z</time></trkpt>
<trkpt lat="46.72312969" lon="6.91994922"><ele>790.821533</ele><time>2008-04-28T14:24:20Z</time></trkpt>
<trkpt lat="46.72321871" lon="6.91975216"><ele>791.782959</ele><time>2008-04-28T14:24:26Z</time></trkpt>
<trkpt lat="46.72342516" lon="6.91965862"><ele>793.224854</ele><time>2008-04-28T14:24:35Z</time></trkpt>
<trkpt lat="46.72357838" lon="6.91972249"><ele>791.782959</ele><time>2008-04-28T14:26:33Z</time></trkpt>
<trkpt lat="46.72384962" lon="6.92002080"><ele>790.821533</ele><time>2008-04-28T14:26:43Z</time></trkpt>
<trkpt lat="46.72420233" lon="6.92043596"><ele>790.821533</ele><time>2008-04-28T14:26:55Z</time></trkpt>
<trkpt lat="46.72449100" lon="6.92061634"><ele>790.821533</ele><time>2008-04-28T14:27:05Z</time></trkpt>
<trkpt lat="46.72478939" lon="6.92094047"><ele>790.821533</ele><time>2008-04-28T14:27:15Z</time></trkpt>
<trkpt lat="46.72497044" lon="6.92120039"><ele>790.821533</ele><time>2008-04-28T14:27:23Z</time></trkpt>
<trkpt lat="46.72527798" lon="6.92157682"><ele>789.860352</ele><time>2008-04-28T14:27:32Z</time></trkpt>
<trkpt lat="46.72551233" lon="6.92167925"><ele>786.015137</ele><time>2008-04-28T14:27:38Z</time></trkpt>
<trkpt lat="46.72555743" lon="6.92169190"><ele>786.015137</ele><time>2008-04-28T14:27:39Z</time></trkpt>
<trkpt lat="46.72599823" lon="6.92170070"><ele>784.092529</ele><time>2008-04-28T14:27:50Z</time></trkpt>
<trkpt lat="46.72626670" lon="6.92139728"><ele>779.766357</ele><time>2008-04-28T14:28:00Z</time></trkpt>
<trkpt lat="46.72644532" lon="6.92110777"><ele>776.882568</ele><time>2008-04-28T14:28:07Z</time></trkpt>
<trkpt lat="46.72648866" lon="6.92074106"><ele>774.959961</ele><time>2008-04-28T14:28:15Z</time></trkpt>
<trkpt lat="46.72643392" lon="6.92058457"><ele>774.959961</ele><time>2008-04-28T14:28:18Z</time></trkpt>
<trkpt lat="46.72625212" lon="6.92016774"><ele>773.037354</ele><time>2008-04-28T14:28:26Z</time></trkpt>
<trkpt lat="46.72610695" lon="6.91988133"><ele>773.037354</ele><time>2008-04-28T14:28:32Z</time></trkpt>
<trkpt lat="46.72601617" lon="6.91969911"><ele>772.075928</ele><time>2008-04-28T14:28:35Z</time></trkpt>
<trkpt lat="46.72563538" lon="6.91906175"><ele>772.075928</ele><time>2008-04-28T14:28:47Z</time></trkpt>
<trkpt lat="46.72532709" lon="6.91852841"><ele>771.114746</ele><time>2008-04-28T14:28:59Z</time></trkpt>
<trkpt lat="46.72503716" lon="6.91807335"><ele>772.075928</ele><time>2008-04-28T14:29:11Z</time></trkpt>
<trkpt lat="46.72500070" lon="6.91795592"><ele>772.075928</ele><time>2008-04-28T14:29:14Z</time></trkpt>
<trkpt lat="46.72500934" lon="6.91787738"><ele>772.075928</ele><time>2008-04-28T14:29:28Z</time></trkpt>
<trkpt lat="46.72501814" lon="6.91783807"><ele>771.114746</ele><time>2008-04-28T14:29:29Z</time></trkpt>
<trkpt lat="46.72490783" lon="6.91732896"><ele>770.15332</ele><time>2008-04-28T14:29:40Z</time></trkpt>
<trkpt lat="46.72459996" lon="6.91688715"><ele>772.075928</ele><time>2008-04-28T14:29:54Z</time></trkpt>
<trkpt lat="46.72420333" lon="6.91669478"><ele>773.998535</ele><time>2008-04-28T14:30:09Z</time></trkpt>
<trkpt lat="46.72388759" lon="6.91651465"><ele>775.921143</ele><time>2008-04-28T14:30:21Z</time></trkpt>
<trkpt lat="46.72341879" lon="6.91628373"><ele>777.84375</ele><time>2008-04-28T14:30:38Z</time></trkpt>
<trkpt lat="46.72313958" lon="6.91620796"><ele>779.766357</ele><time>2008-04-28T14:30:50Z</time></trkpt>
<trkpt lat="46.72288804" lon="6.91628893"><ele>781.20874</ele><time>2008-04-28T14:31:01Z</time></trkpt>
<trkpt lat="46.72261831" lon="6.91630460"><ele>782.169922</ele><time>2008-04-28T14:31:13Z</time></trkpt>
<trkpt lat="46.72251924" lon="6.91629245"><ele>783.131104</ele><time>2008-04-28T14:31:18Z</time></trkpt>
<trkpt lat="46.72243785" lon="6.91618860"><ele>783.131104</ele><time>2008-04-28T14:31:25Z</time></trkpt>
<trkpt lat="46.72250826" lon="6.91584779"><ele>782.169922</ele><time>2008-04-28T14:31:35Z</time></trkpt>
<trkpt lat="46.72252469" lon="6.91552064"><ele>779.766357</ele><time>2008-04-28T14:31:40Z</time></trkpt>
<trkpt lat="46.72250600" lon="6.91535074"><ele>779.766357</ele><time>2008-04-28T14:31:42Z</time></trkpt>
<trkpt lat="46.72240566" lon="6.91506400"><ele>777.84375</ele><time>2008-04-28T14:31:46Z</time></trkpt>
<trkpt lat="46.72222369" lon="6.91460794"><ele>775.921143</ele><time>2008-04-28T14:31:52Z</time></trkpt>
<trkpt lat="46.72210501" lon="6.91422975"><ele>774.959961</ele><time>2008-04-28T14:31:56Z</time></trkpt>
<trkpt lat="46.72194994" lon="6.91376036"><ele>773.037354</ele><time>2008-04-28T14:32:01Z</time></trkpt>
<trkpt lat="46.72178490" lon="6.91309484"><ele>773.037354</ele><time>2008-04-28T14:32:08Z</time></trkpt>
<trkpt lat="46.72169278" lon="6.91262486"><ele>772.075928</ele><time>2008-04-28T14:32:13Z</time></trkpt>
<trkpt lat="46.72146228" lon="6.91139750"><ele>769.192139</ele><time>2008-04-28T14:32:24Z</time></trkpt>
<trkpt lat="46.72127042" lon="6.91075847"><ele>769.192139</ele><time>2008-04-28T14:32:30Z</time></trkpt>
<trkpt lat="46.72109717" lon="6.91026310"><ele>769.192139</ele><time>2008-04-28T14:32:35Z</time></trkpt>
<trkpt lat="46.72106858" lon="6.90991022"><ele>769.192139</ele><time>2008-04-28T14:32:38Z</time></trkpt>
<trkpt lat="46.72112944" lon="6.90946489"><ele>771.114746</ele><time>2008-04-28T14:32:43Z</time></trkpt>
<trkpt lat="46.72122692" lon="6.90914998"><ele>770.15332</ele><time>2008-04-28T14:32:46Z</time></trkpt>
<trkpt lat="46.72155457" lon="6.90802186"><ele>770.15332</ele><time>2008-04-28T14:33:03Z</time></trkpt>
<trkpt lat="46.72197115" lon="6.90668352"><ele>770.15332</ele><time>2008-04-28T14:33:20Z</time></trkpt>
<trkpt lat="46.72199730" lon="6.90650012"><ele>770.15332</ele><time>2008-04-28T14:33:23Z</time></trkpt>
<trkpt lat="46.72213241" lon="6.90655117"><ele>770.15332</ele><time>2008-04-28T14:33:30Z</time></trkpt>
<trkpt lat="46.72259384" lon="6.90712214"><ele>766.788818</ele><time>2008-04-28T14:33:43Z</time></trkpt>
<trkpt lat="46.72328132" lon="6.90793946"><ele>764.866211</ele><time>2008-04-28T14:34:01Z</time></trkpt>
<trkpt lat="46.72370637" lon="6.90841933"><ele>764.866211</ele><time>2008-04-28T14:34:14Z</time></trkpt>
<trkpt lat="46.72379605" lon="6.90835303"><ele>764.866211</ele><time>2008-04-28T14:34:18Z</time></trkpt>
<trkpt lat="46.72390284" lon="6.90811649"><ele>761.982178</ele><time>2008-04-28T14:34:24Z</time></trkpt>
<trkpt lat="46.72410803" lon="6.90773511"><ele>759.098145</ele><time>2008-04-28T14:34:33Z</time></trkpt>
<trkpt lat="46.72412580" lon="6.90769572"><ele>759.098145</ele><time>2008-04-28T14:34:34Z</time></trkpt>
<trkpt lat="46.72428623" lon="6.90738014"><ele>754.772217</ele><time>2008-04-28T14:34:42Z</time></trkpt>
<trkpt lat="46.72432185" lon="6.90730135"><ele>753.811035</ele><time>2008-04-28T14:34:44Z</time></trkpt>
<trkpt lat="46.72445554" lon="6.90702533"><ele>749.96582</ele><time>2008-04-28T14:34:51Z</time></trkpt>
<trkpt lat="46.72448236" lon="6.90698577"><ele>749.96582</ele><time>2008-04-28T14:34:52Z</time></trkpt>
<trkpt lat="46.72455361" lon="6.90684118"><ele>747.081543</ele><time>2008-04-28T14:34:56Z</time></trkpt>
<trkpt lat="46.72467842" lon="6.90660456"><ele>743.236328</ele><time>2008-04-28T14:35:02Z</time></trkpt>
<trkpt lat="46.72470524" lon="6.90656500"><ele>743.236328</ele><time>2008-04-28T14:35:03Z</time></trkpt>
<trkpt lat="46.72480331" lon="6.90636786"><ele>740.833008</ele><time>2008-04-28T14:35:07Z</time></trkpt>
<trkpt lat="46.72487464" lon="6.90623634"><ele>739.871826</ele><time>2008-04-28T14:35:10Z</time></trkpt>
<trkpt lat="46.72495502" lon="6.90611782"><ele>737.949219</ele><time>2008-04-28T14:35:13Z</time></trkpt>
<trkpt lat="46.72516021" lon="6.90573636"><ele>736.026611</ele><time>2008-04-28T14:35:22Z</time></trkpt>
<trkpt lat="46.72507840" lon="6.90556713"><ele>736.026611</ele><time>2008-04-28T14:35:27Z</time></trkpt>
<trkpt lat="46.72446292" lon="6.90474914"><ele>735.06543</ele><time>2008-04-28T14:35:46Z</time></trkpt>
<trkpt lat="46.72383838" lon="6.90394423"><ele>734.104004</ele><time>2008-04-28T14:36:04Z</time></trkpt>
<trkpt lat="46.72317781" lon="6.90311367"><ele>733.142578</ele><time>2008-04-28T14:36:22Z</time></trkpt>
<trkpt lat="46.72244489" lon="6.90220524"><ele>731.219971</ele><time>2008-04-28T14:36:42Z</time></trkpt>
<trkpt lat="46.72181147" lon="6.90140057"><ele>729.777832</ele><time>2008-04-28T14:36:59Z</time></trkpt>
<trkpt lat="46.72144032" lon="6.90090721"><ele>727.855225</ele><time>2008-04-28T14:37:08Z</time></trkpt>
<trkpt lat="46.72129515" lon="6.90064704"><ele>727.855225</ele><time>2008-04-28T14:37:12Z</time></trkpt>
<trkpt lat="46.72112198" lon="6.90017791"><ele>724.971436</ele><time>2008-04-28T14:37:18Z</time></trkpt>
<trkpt lat="46.72108568" lon="6.90009979"><ele>724.971436</ele><time>2008-04-28T14:37:19Z</time></trkpt>
<trkpt lat="46.72076876" lon="6.89967122"><ele>724.01001</ele><time>2008-04-28T14:37:26Z</time></trkpt>
<trkpt lat="46.72065100" lon="6.89948933"><ele>724.01001</ele><time>2008-04-28T14:37:29Z</time></trkpt>
<trkpt lat="46.72067614" lon="6.89910972"><ele>721.126221</ele><time>2008-04-28T14:37:36Z</time></trkpt>
<trkpt lat="46.72087261" lon="6.89879380"><ele>716.800293</ele><time>2008-04-28T14:37:41Z</time></trkpt>
<trkpt lat="46.72100656" lon="6.89858325"><ele>714.877441</ele><time>2008-04-28T14:37:45Z</time></trkpt>
<trkpt lat="46.72104235" lon="6.89854360"><ele>713.916016</ele><time>2008-04-28T14:37:46Z</time></trkpt>
<trkpt lat="46.72111401" lon="6.89849054"><ele>711.993652</ele><time>2008-04-28T14:37:48Z</time></trkpt>
<trkpt lat="46.72150042" lon="6.89839516"><ele>710.070801</ele><time>2008-04-28T14:37:55Z</time></trkpt>
<trkpt lat="46.72168884" lon="6.89830170"><ele>706.225586</ele><time>2008-04-28T14:37:58Z</time></trkpt>
<trkpt lat="46.72181415" lon="6.89816960"><ele>702.861084</ele><time>2008-04-28T14:38:00Z</time></trkpt>
<trkpt lat="46.72203770" lon="6.89787959"><ele>698.054443</ele><time>2008-04-28T14:38:03Z</time></trkpt>
<trkpt lat="46.72211825" lon="6.89778722"><ele>697.093018</ele><time>2008-04-28T14:38:04Z</time></trkpt>
<trkpt lat="46.72227918" lon="6.89758941"><ele>697.093018</ele><time>2008-04-28T14:38:06Z</time></trkpt>
<trkpt lat="46.72254665" lon="6.89707660"><ele>700.938477</ele><time>2008-04-28T14:38:12Z</time></trkpt>
<trkpt lat="46.72274153" lon="6.89643371"><ele>703.82251</ele><time>2008-04-28T14:38:24Z</time></trkpt>
<trkpt lat="46.72299852" lon="6.89562008"><ele>703.82251</ele><time>2008-04-28T14:38:40Z</time></trkpt>
<trkpt lat="46.72321980" lon="6.89487224"><ele>704.783691</ele><time>2008-04-28T14:38:55Z</time></trkpt>
<trkpt lat="46.72315643" lon="6.89478130"><ele>703.82251</ele><time>2008-04-28T14:38:59Z</time></trkpt>
<trkpt lat="46.72271403" lon="6.89444569"><ele>706.225586</ele><time>2008-04-28T14:39:14Z</time></trkpt>
<trkpt lat="46.72224440" lon="6.89404495"><ele>709.109619</ele><time>2008-04-28T14:39:31Z</time></trkpt>
<trkpt lat="46.72174760" lon="6.89363139"><ele>710.070801</ele><time>2008-04-28T14:39:49Z</time></trkpt>
<trkpt lat="46.72120588" lon="6.89320517"><ele>711.032227</ele><time>2008-04-28T14:40:07Z</time></trkpt>
<trkpt lat="46.72067296" lon="6.89276579"><ele>709.109619</ele><time>2008-04-28T14:40:23Z</time></trkpt>
<trkpt lat="46.72061873" lon="6.89270100"><ele>709.109619</ele><time>2008-04-28T14:40:25Z</time></trkpt>
<trkpt lat="46.72061780" lon="6.89250478"><ele>710.070801</ele><time>2008-04-28T14:40:29Z</time></trkpt>
<trkpt lat="46.72077748" lon="6.89204536"><ele>709.109619</ele><time>2008-04-28T14:40:38Z</time></trkpt>
<trkpt lat="46.72092819" lon="6.89157296"><ele>703.82251</ele><time>2008-04-28T14:40:45Z</time></trkpt>
<trkpt lat="46.72105224" lon="6.89119234"><ele>699.015625</ele><time>2008-04-28T14:40:50Z</time></trkpt>
<trkpt lat="46.72107898" lon="6.89112662"><ele>699.015625</ele><time>2008-04-28T14:40:51Z</time></trkpt>
<trkpt lat="46.72117629" lon="6.89079864"><ele>696.131836</ele><time>2008-04-28T14:40:55Z</time></trkpt>
<trkpt lat="46.72120295" lon="6.89071993"><ele>696.131836</ele><time>2008-04-28T14:40:56Z</time></trkpt>
<trkpt lat="46.72128266" lon="6.89047057"><ele>691.805908</ele><time>2008-04-28T14:40:59Z</time></trkpt>
<trkpt lat="46.72131795" lon="6.89031324"><ele>688.922119</ele><time>2008-04-28T14:41:01Z</time></trkpt>
<trkpt lat="46.72135273" lon="6.89006438"><ele>687.960693</ele><time>2008-04-28T14:41:04Z</time></trkpt>
<trkpt lat="46.72132423" lon="6.88975073"><ele>684.115479</ele><time>2008-04-28T14:41:08Z</time></trkpt>
<trkpt lat="46.72126916" lon="6.88952895"><ele>682.192627</ele><time>2008-04-28T14:41:11Z</time></trkpt>
<trkpt lat="46.72121384" lon="6.88924170"><ele>679.789307</ele><time>2008-04-28T14:41:16Z</time></trkpt>
<trkpt lat="46.72127553" lon="6.88897952"><ele>676.905518</ele><time>2008-04-28T14:41:20Z</time></trkpt>
<trkpt lat="46.72137192" lon="6.88844215"><ele>674.021484</ele><time>2008-04-28T14:41:28Z</time></trkpt>
<trkpt lat="46.72143278" lon="6.88800990"><ele>671.137695</ele><time>2008-04-28T14:41:34Z</time></trkpt>
<trkpt lat="46.72149288" lon="6.88742065"><ele>670.17627</ele><time>2008-04-28T14:41:43Z</time></trkpt>
<trkpt lat="46.72150972" lon="6.88717196"><ele>665.850342</ele><time>2008-04-28T14:41:47Z</time></trkpt>
<trkpt lat="46.72157929" lon="6.88668732"><ele>662.005127</ele><time>2008-04-28T14:41:58Z</time></trkpt>
<trkpt lat="46.72165909" lon="6.88645103"><ele>659.121094</ele><time>2008-04-28T14:42:04Z</time></trkpt>
<trkpt lat="46.72178364" lon="6.88614886"><ele>654.795166</ele><time>2008-04-28T14:42:11Z</time></trkpt>
<trkpt lat="46.72183704" lon="6.88603059"><ele>650.949707</ele><time>2008-04-28T14:42:14Z</time></trkpt>
<trkpt lat="46.72185481" lon="6.88599120"><ele>650.949707</ele><time>2008-04-28T14:42:15Z</time></trkpt>
<trkpt lat="46.72195271" lon="6.88578090"><ele>648.065918</ele><time>2008-04-28T14:42:20Z</time></trkpt>
<trkpt lat="46.72198816" lon="6.88566280"><ele>646.143311</ele><time>2008-04-28T14:42:22Z</time></trkpt>
<trkpt lat="46.72203250" lon="6.88553154"><ele>644.220703</ele><time>2008-04-28T14:42:24Z</time></trkpt>
<trkpt lat="46.72212185" lon="6.88539986"><ele>641.817383</ele><time>2008-04-28T14:42:26Z</time></trkpt>
<trkpt lat="46.72226443" lon="6.88512367"><ele>638.933594</ele><time>2008-04-28T14:42:29Z</time></trkpt>
<trkpt lat="46.72240684" lon="6.88482134"><ele>636.049561</ele><time>2008-04-28T14:42:32Z</time></trkpt>
<trkpt lat="46.72252217" lon="6.88448011"><ele>634.126709</ele><time>2008-04-28T14:42:35Z</time></trkpt>
<trkpt lat="46.72280406" lon="6.88324755"><ele>635.088135</ele><time>2008-04-28T14:42:47Z</time></trkpt>
<trkpt lat="46.72291830" lon="6.88269703"><ele>633.165283</ele><time>2008-04-28T14:42:54Z</time></trkpt>
<trkpt lat="46.72290774" lon="6.88238321"><ele>627.878174</ele><time>2008-04-28T14:42:58Z</time></trkpt>
<trkpt lat="46.72285276" lon="6.88216134"><ele>626.916992</ele><time>2008-04-28T14:43:01Z</time></trkpt>
<trkpt lat="46.72281604" lon="6.88201784"><ele>624.994385</ele><time>2008-04-28T14:43:03Z</time></trkpt>
<trkpt lat="46.72285066" lon="6.88174283"><ele>622.110352</ele><time>2008-04-28T14:43:07Z</time></trkpt>
<trkpt lat="46.72290439" lon="6.88168994"><ele>620.187744</ele><time>2008-04-28T14:43:08Z</time></trkpt>
<trkpt lat="46.72325383" lon="6.88141166"><ele>615.861816</ele><time>2008-04-28T14:43:13Z</time></trkpt>
<trkpt lat="46.72342440" lon="6.88133136"><ele>614.900391</ele><time>2008-04-28T14:43:15Z</time></trkpt>
<trkpt lat="46.72369405" lon="6.88128937"><ele>612.016602</ele><time>2008-04-28T14:43:18Z</time></trkpt>
<trkpt lat="46.72379295" lon="6.88127529"><ele>612.016602</ele><time>2008-04-28T14:43:19Z</time></trkpt>
<trkpt lat="46.72413418" lon="6.88115400"><ele>609.132568</ele><time>2008-04-28T14:43:23Z</time></trkpt>
<trkpt lat="46.72461044" lon="6.88104445"><ele>604.806641</ele><time>2008-04-28T14:43:30Z</time></trkpt>
<trkpt lat="46.72492376" lon="6.88074036"><ele>600.961182</ele><time>2008-04-28T14:43:37Z</time></trkpt>
<trkpt lat="46.72507572" lon="6.88052947"><ele>600</ele><time>2008-04-28T14:43:40Z</time></trkpt>
<trkpt lat="46.72541603" lon="6.88022504"><ele>594.232178</ele><time>2008-04-28T14:43:45Z</time></trkpt>
<trkpt lat="46.72554142" lon="6.88010601"><ele>590.867432</ele><time>2008-04-28T14:43:47Z</time></trkpt>
<trkpt lat="46.72563102" lon="6.88003971"><ele>589.90625</ele><time>2008-04-28T14:43:48Z</time></trkpt>
<trkpt lat="46.72611390" lon="6.87945910"><ele>587.021973</ele><time>2008-04-28T14:43:56Z</time></trkpt>
<trkpt lat="46.72633770" lon="6.87923438"><ele>587.021973</ele><time>2008-04-28T14:44:03Z</time></trkpt>
<trkpt lat="46.72637349" lon="6.87918166"><ele>586.060791</ele><time>2008-04-28T14:44:04Z</time></trkpt>
<trkpt lat="46.72652537" lon="6.87897077"><ele>578.851074</ele><time>2008-04-28T14:44:07Z</time></trkpt>
<trkpt lat="46.72665931" lon="6.87877321"><ele>575.967041</ele><time>2008-04-28T14:44:09Z</time></trkpt>
<trkpt lat="46.72679326" lon="6.87856249"><ele>575.005859</ele><time>2008-04-28T14:44:11Z</time></trkpt>
<trkpt lat="46.72708780" lon="6.87810156"><ele>574.044434</ele><time>2008-04-28T14:44:16Z</time></trkpt>
<trkpt lat="46.72742022" lon="6.87801959"><ele>570.198975</ele><time>2008-04-28T14:44:23Z</time></trkpt>
<trkpt lat="46.72745652" lon="6.87807156"><ele>570.198975</ele><time>2008-04-28T14:44:24Z</time></trkpt>
<trkpt lat="46.72784518" lon="6.87844690"><ele>566.834473</ele><time>2008-04-28T14:44:31Z</time></trkpt>
<trkpt lat="46.72795365" lon="6.87855042"><ele>566.834473</ele><time>2008-04-28T14:44:33Z</time></trkpt>
<trkpt lat="46.72824048" lon="6.87835126"><ele>563.950439</ele><time>2008-04-28T14:44:40Z</time></trkpt>
<trkpt lat="46.72857977" lon="6.87783753"><ele>560.105225</ele><time>2008-04-28T14:44:46Z</time></trkpt>
<trkpt lat="46.72869595" lon="6.87766621"><ele>559.144043</ele><time>2008-04-28T14:44:48Z</time></trkpt>
<trkpt lat="46.72882025" lon="6.87733789"><ele>554.817871</ele><time>2008-04-28T14:44:51Z</time></trkpt>
<trkpt lat="46.72889125" lon="6.87714092"><ele>554.817871</ele><time>2008-04-28T14:44:53Z</time></trkpt>
<trkpt lat="46.72901614" lon="6.87693028"><ele>552.895264</ele><time>2008-04-28T14:44:56Z</time></trkpt>
<trkpt lat="46.72932979" lon="6.87667849"><ele>548.088867</ele><time>2008-04-28T14:45:00Z</time></trkpt>
<trkpt lat="46.72961653" lon="6.87645310"><ele>548.088867</ele><time>2008-04-28T14:45:05Z</time></trkpt>
<trkpt lat="46.72993169" lon="6.87651521"><ele>543.762817</ele><time>2008-04-28T14:45:12Z</time></trkpt>
<trkpt lat="46.73005851" lon="6.87669701"><ele>540.878906</ele><time>2008-04-28T14:45:15Z</time></trkpt>
<trkpt lat="46.73014023" lon="6.87685316"><ele>537.994995</ele><time>2008-04-28T14:45:17Z</time></trkpt>
<trkpt lat="46.73028507" lon="6.87704788"><ele>533.188354</ele><time>2008-04-28T14:45:20Z</time></trkpt>
<trkpt lat="46.73042027" lon="6.87709884"><ele>530.785156</ele><time>2008-04-28T14:45:22Z</time></trkpt>
<trkpt lat="46.73075362" lon="6.87720001"><ele>525.978394</ele><time>2008-04-28T14:45:27Z</time></trkpt>
<trkpt lat="46.73080777" lon="6.87723873"><ele>525.978394</ele><time>2008-04-28T14:45:28Z</time></trkpt>
<trkpt lat="46.73093392" lon="6.87727662"><ele>525.017212</ele><time>2008-04-28T14:45:30Z</time></trkpt>
<trkpt lat="46.73106895" lon="6.87728835"><ele>524.055786</ele><time>2008-04-28T14:45:32Z</time></trkpt>
<trkpt lat="46.73124866" lon="6.87724720"><ele>523.094604</ele><time>2008-04-28T14:45:35Z</time></trkpt>
<trkpt lat="46.73147296" lon="6.87712708"><ele>518.768555</ele><time>2008-04-28T14:45:39Z</time></trkpt>
<trkpt lat="46.73168820" lon="6.87700714"><ele>514.92334</ele><time>2008-04-28T14:45:43Z</time></trkpt>
<trkpt lat="46.73183153" lon="6.87687479"><ele>513.000732</ele><time>2008-04-28T14:45:46Z</time></trkpt>
<trkpt lat="46.73199230" lon="6.87663767"><ele>510.116699</ele><time>2008-04-28T14:45:50Z</time></trkpt>
<trkpt lat="46.73210830" lon="6.87645326"><ele>507.232788</ele><time>2008-04-28T14:45:53Z</time></trkpt>
<trkpt lat="46.73226027" lon="6.87625545"><ele>502.906738</ele><time>2008-04-28T14:45:57Z</time></trkpt>
<trkpt lat="46.73232221" lon="6.87604548"><ele>500.022949</ele><time>2008-04-28T14:46:00Z</time></trkpt>
<trkpt lat="46.73234870" lon="6.87595362"><ele>498.100342</ele><time>2008-04-28T14:46:01Z</time></trkpt>
<trkpt lat="46.73235498" lon="6.87539094"><ele>492.812988</ele><time>2008-04-28T14:46:06Z</time></trkpt>
<trkpt lat="46.73237007" lon="6.87481519"><ele>488.967773</ele><time>2008-04-28T14:46:11Z</time></trkpt>
<trkpt lat="46.73237862" lon="6.87471041"><ele>488.967773</ele><time>2008-04-28T14:46:12Z</time></trkpt>
<trkpt lat="46.73242212" lon="6.87442208"><ele>488.00647</ele><time>2008-04-28T14:46:15Z</time></trkpt>
<trkpt lat="46.73253721" lon="6.87404154"><ele>486.08374</ele><time>2008-04-28T14:46:19Z</time></trkpt>
<trkpt lat="46.73264374" lon="6.87375253"><ele>487.045044</ele><time>2008-04-28T14:46:23Z</time></trkpt>
<trkpt lat="46.73284164" lon="6.87375052"><ele>486.08374</ele><time>2008-04-28T14:46:28Z</time></trkpt>
<trkpt lat="46.73371864" lon="6.87464403"><ele>486.08374</ele><time>2008-04-28T14:46:46Z</time></trkpt>
<trkpt lat="46.73467568" lon="6.87535364"><ele>484.161133</ele><time>2008-04-28T14:47:00Z</time></trkpt>
<trkpt lat="46.73545386" lon="6.87627448"><ele>483.199829</ele><time>2008-04-28T14:47:14Z</time></trkpt>
<trkpt lat="46.73665616" lon="6.87746571"><ele>482.238525</ele><time>2008-04-28T14:47:35Z</time></trkpt>
<trkpt lat="46.73764170" lon="6.87848914"><ele>483.199829</ele><time>2008-04-28T14:47:52Z</time></trkpt>
<trkpt lat="46.73856371" lon="6.87940856"><ele>483.199829</ele><time>2008-04-28T14:48:08Z</time></trkpt>
<trkpt lat="46.73940400" lon="6.88015874"><ele>482.238525</ele><time>2008-04-28T14:48:23Z</time></trkpt>
<trkpt lat="46.74057034" lon="6.88136363"><ele>480.796631</ele><time>2008-04-28T14:48:42Z</time></trkpt>
<trkpt lat="46.74124802" lon="6.88197166"><ele>482.238525</ele><time>2008-04-28T14:48:58Z</time></trkpt>
<trkpt lat="46.74159209" lon="6.88243912"><ele>482.238525</ele><time>2008-04-28T14:49:06Z</time></trkpt>
<trkpt lat="46.74183626" lon="6.88269837"><ele>482.238525</ele><time>2008-04-28T14:49:12Z</time></trkpt>
<trkpt lat="46.74199048" lon="6.88297153"><ele>483.199829</ele><time>2008-04-28T14:49:20Z</time></trkpt>
<trkpt lat="46.74218050" lon="6.88319206"><ele>485.122437</ele><time>2008-04-28T14:49:27Z</time></trkpt>
<trkpt lat="46.74228938" lon="6.88338719"><ele>479.835083</ele><time>2008-04-28T17:13:20Z</time></trkpt>
</trkseg></trk></gpx>